     2.11           OBSERVATION DATA    G (GPS)             RINEX VERSION / TYPE
teqc 2010Oct21 OPUS Account 20111026 16:10:57UTC            PGM / RUN BY / DATE
S 1522                                                      MARKER NAME
1172                                                        MARKER NUMBER
CSMIDDLETON NGS                                             OBSERVER / AGENCY
0220390632 TRIMBLE R7 NP 2.28 / SP 0.00                     REC # / TYPE / VERS
60183425 TRM41249.00 NONE                                   ANT # / TYPE
  -740296.2364 -5500436.8642  3132565.8680                  APPROX POSITION XYZ
        2.0010        0.0000        0.0000                  ANTENNA: DELTA H/E/N
     1     1                                                WAVELENGTH FACT L1/2
     5    L1    L2    C1    P1    P2                        # / TYPES OF OBSERV
  2011     8     1     0     0   30.0000000     GPS         TIME OF FIRST OBS
                                                            END OF HEADER
 11  8  1  0  0 30.0000000  0  9G09G28G10G17G12G04G27G20G02
  -9328008.03557  -7258488.14155  21955273.9224                   21955272.8874
  -8661695.35557  -6742097.43755  22010577.9454                   22010577.2774
  -7908649.62157  -6153580.28954  22807514.6024                   22807515.4064
 -12581277.32057  -9793205.75856  21467619.6334                   21467617.6884
   -539837.25457   -411954.54754  24417742.2734                   24417742.1884
 -22295617.44958 -17361881.44557  19751132.4144                   19751131.0904
 -12134037.68457  -9445948.37955  22273727.4304                   22273726.6254
   1480046.03956   1157952.07853  24388588.7424                   24388589.3634
 -13535743.41057 -10537191.12556  21731205.0164                   21731202.1644
 11  8  1  0  1  0.0000000  0  9G09G28G10G17G12G04G27G20G02
  -9322292.24247  -7254034.28145  21956361.5554                   21956360.7074
  -8586522.27047  -6683521.05145  22024882.8834                   22024882.1294
  -7985142.15647  -6213184.74244  22792957.9924                   22792958.6134
 -12534377.64847  -9756660.55946  21476543.8284                   21476542.3794
   -623298.18446   -476988.98444  24401860.7034                   24401859.6804
 -22277186.09448 -17347519.34447  19754639.4924                   19754638.6094
 -12116002.91847  -9431895.35245  22277159.2974                   22277158.6804
   1544806.56645   1208414.82042  24400912.9064                   24400912.9804
 -13591260.91447 -10580451.46146  21720640.4144                   21720637.4804
 11  8  1  0  1 30.0000000  0  9G09G28G10G17G12G04G27G20G02
  -9315885.54747  -7249042.06645  21957580.4844                   21957579.5204
  -8510928.21947  -6624616.64145  22039268.2584                   22039266.7464
  -8061427.14847  -6272627.46944  22778441.8754                   22778443.0594
 -12487342.81648  -9720010.05146  21485493.8524                   21485492.2504
   -706720.08647   -541993.02344  24385985.8204                   24385985.4304
 -22258152.71548 -17332688.13347  19758261.3284                   19758260.1644
 -12097436.35247  -9417427.93745  22280692.4064                   22280691.9734
   1610078.30545   1259275.94542  24413333.8364                   24413332.3674
 -13646395.07848 -10623413.09846  21710148.1094                   21710146.0314
 11  8  1  0  2  0.0000000  0  9G09G28G10G17G12G04G27G20G02
  -9308796.96947  -7243518.52345  21958929.5234                   21958928.9024
  -8434921.40247  -6565390.59845  22053732.0634                   22053730.7814
  -8137509.53947  -6331912.31244  22763963.5554                   22763964.7664
 -12440181.21147  -9683260.74246  21494468.9924                   21494467.2034
   -790109.32047   -606971.60944  24370117.7734                   24370116.5904
 -22238526.67248 -17317395.10547  19761996.1644                   19761995.0554
 -12078346.81247  -9402553.00045  22284324.8674                   22284324.5634
   1675851.86745   1310528.02342  24425849.9224                   24425849.6914
 -13701153.03948 -10666081.59446  21699728.1024                   21699725.5824
 11  8  1  0  2 30.0000000  0  9G09G28G10G17G12G04G27G20G02
  -9301034.54747  -7237469.89845  21960406.6254                   21960405.7424
  -8358510.25047  -6505849.48845  22068272.1644                   22068271.0944
  -8213393.66047  -6391042.67644  22749522.2814                   22749524.4414
 -12392900.79348  -9646418.85246  21503466.1644                   21503464.1724
   -873472.03146   -671929.52744  24354253.3134                   24354253.3834
 -22218316.79348 -17301647.14147  19765841.9144                   19765840.4184
 -12058742.99647  -9387277.34445  22288055.2344                   22288054.9064
   1742118.46946   1362164.30543  24438460.5234                   24438459.9494
 -13755541.50048 -10708462.16846  21689378.2664                   21689375.7194
 11  8  1  0  3  0.0000000  0  9G09G28G10G17G12G04G27G20G02
  -9292591.89847  -7230891.23845  21962013.5394                   21962012.4694
  -8281688.70347  -6445988.59045  22082891.2734                   22082889.9104
  -8289069.55547  -6450010.77744  22735122.3524                   22735123.0904
 -12345494.71548  -9609479.04746  21512487.1724                   21512485.3714
   -956799.80546   -736860.18443  24338397.1094                   24338396.8134
 -22197517.71948 -17285440.06247  19769799.9144                   19769798.6764
 -12038619.01647  -9371596.35245  22291885.0704                   22291884.6994
   1808882.79346   1414188.40643  24451165.5554                   24451164.7854
 -13809552.78148 -10750548.83646  21679100.4774                   21679097.8524
 11  8  1  0  3 30.0000000  0  9G09G28G10G17G12G04G27G20G02
  -9283468.00447  -7223781.73845  21963749.0474                   21963748.3594
  -8204455.70747  -6385807.09045  22097587.9454                   22097586.5434
  -8364532.73847  -6508813.12144  22720761.9614                   22720762.9884
 -12297962.08248  -9572440.63346  21521531.6724                   21521530.1454
  -1040089.78946   -801761.43043  24322547.2034                   24322546.5744
 -22176129.27048 -17268773.72747  19773870.0084                   19773868.6914
 -12017974.55947  -9355509.80145  22295813.1024                   22295813.4224
   1876144.61746   1466600.12343  24463964.8284                   24463963.4884
 -13863184.58648 -10792339.81246  21668894.5864                   21668892.0594
 11  8  1  0  4  0.0000000  0  8G09G28G10G17G12G04G27G02
  -9273662.60947  -7216141.19945  21965615.3914                   21965614.4804
  -8126810.84047  -6325304.64545  22112363.4774                   22112362.3674
  -8439778.96147  -6567446.42244  22706442.6414                   22706443.7424
 -12250302.16848  -9535303.05146  21530601.2664                   21530599.8204
  -1123339.35946   -866631.15643  24306705.0704                   24306705.3284
 -22154151.91448 -17251648.50047  19778052.0004                   19778050.8834
 -11996809.57847  -9339017.63745  22299841.0164                   22299840.7664
 -13916435.21948 -10833833.78146  21658761.8754                   21658759.0474
 11  8  1  0  4 30.0000000  0  8G09G28G10G17G12G04G27G02
  -9263179.61347  -7207972.65645  21967610.3284                   21967609.3984
  -8048758.31647  -6264484.55145  22127216.4064                   22127215.2464
  -8514808.64547  -6625910.99244  22692164.6174                   22692165.9534
 -12202518.51648  -9498069.04346  21539694.6024                   21539692.6804
  -1206550.20346   -931470.70343  24290871.1804                   24290869.6024
 -22131590.06648 -17234067.82846  19782345.5394                   19782344.1604
 -11975128.23847  -9322123.12145  22303966.9224                   22303966.6644
 -13969307.55548 -10875032.96146  21648700.1564                   21648697.4884
 11  8  1  0  5  0.0000000  0  8G09G28G10G17G12G04G27G02
  -9252019.91047  -7199276.80545  21969733.8204                   21969733.0704
  -7970298.91847  -6203347.41845  22142146.5164                   22142145.7304
  -8589618.61747  -6684204.36344  22677929.7274                   22677930.0664
 -12154611.17648  -9460738.66446  21548811.1644                   21548809.2074
  -1289720.80146   -996278.91843  24275044.4694                   24275043.0904
 -22108445.19148 -17216032.84047  19786749.6024                   19786748.6024
 -11952931.70747  -9304827.15645  22308190.6484                   22308190.5514
 -14021800.91448 -10915936.83646  21638710.7894                   21638708.6024
 11  8  1  0  5 30.0000000  0  8G09G28G10G17G12G04G27G02
  -9240171.69547  -7190044.45745  21971988.6804                   21971987.7584
  -7891420.55947  -6141883.82045  22157156.5944                   22157155.6174
  -8664193.30947  -6742314.38344  22663738.0004                   22663738.9304
 -12106567.93447  -9423302.39146  21557953.2664                   21557951.7344
  -1372837.05546  -1061044.74643  24259227.9844                   24259225.9064
 -22084706.49648 -17197535.14147  19791266.8134                   19791265.9064
 -11930208.41847  -9287120.72745  22312514.8284                   22312514.3634
 -14073901.88348 -10956534.95346  21628796.6484                   21628793.9494
 11  8  1  0  6  0.0000000  0  8G09G28G10G17G12G04G27G02
  -9227631.02047  -7180272.52345  21974375.4224                   21974374.1214
  -7812119.71947  -6080091.01245  22172247.4454                   22172246.0664
  -8738524.91047  -6800234.99644  22649593.1954                   22649593.8524
 -12058384.35247  -9385756.75046  21567122.3054                   21567120.5044
  -1455892.87546  -1125763.50043  24243422.3134                   24243421.6024
 -22060370.31648 -17178571.86747  19795898.0784                   19795896.6254
 -11906954.86747  -9269001.10545  22316939.5004                   22316939.0864
 -14125605.01648 -10996823.07846  21618957.7894                   21618954.6254
 11  8  1  0  6 30.0000000  0  8G09G28G10G17G12G04G27G02
  -9214404.41847  -7169966.10545  21976891.7814                   21976890.5784
  -7732402.83247  -6017974.00845  22187417.1804                   22187415.8914
  -8812615.96947  -6857968.16844  22635493.7974                   22635494.7194
 -12010066.50848  -9348106.50446  21576316.7664                   21576315.5434
  -1538892.28946  -1190438.26243  24227628.4454                   24227627.2734
 -22035444.44948 -17159149.09047  19800641.4144                   19800640.1214
 -11883178.18447  -9250473.84045  22321464.3984                   22321464.2234
 -14176915.77348 -11036805.44146  21609193.3054                   21609190.6134
 11  8  1  0  7  0.0000000  0  8G09G28G10G17G12G04G27G02
  -9200493.59847  -7159126.52745  21979538.9614                   21979538.5864
  -7652271.57847  -5955534.11345  22202665.4384                   22202664.7074
  -8886464.25447  -6915512.16044  22621440.7504                   22621442.0594
 -11961615.39847  -9310352.41046  21585536.8834                   21585535.2344
  -1621834.78146  -1255068.67243  24211844.7814                   24211843.4184
 -22009931.10248 -17139268.54347  19805496.2114                   19805495.0904
 -11858880.24647  -9231540.40645  22326088.0554                   22326088.1374
 -14227834.17248 -11076482.06646  21599503.9304                   21599501.3754
 11  8  1  0  7 30.0000000  0  8G09G28G10G17G12G04G27G02
  -9185899.47347  -7147754.51645  21982316.2664                   21982315.6134
  -7571726.68047  -5892771.92245  22217992.5784                   22217991.8404
  -8960066.62547  -6972864.53545  22607434.6564                   22607435.1524
 -11913031.44948  -9272494.81246  21594782.0554                   21594780.5124
  -1704718.52046  -1319653.34843  24196072.3914                   24196071.8594
 -21983831.62148 -17118931.27347  19810462.8054                   19810461.4024
 -11834062.10947  -9212201.62945  22330810.9144                   22330810.6884
 -14278359.53948 -11115852.44146  21589889.5634                   21589886.6524
 11  8  1  0  8  0.0000000  0  8G09G28G10G17G12G04G27G02
  -9170628.95747  -7135855.43445  21985222.2584                   21985221.5824
  -7490775.16447  -5829692.87945  22233397.3284                   22233396.5434
  -9033426.42247  -7030027.88744  22593474.6724                   22593475.3874
 -11864320.98448  -9234538.62946  21604051.4844                   21604050.0234
  -1787548.27347  -1384195.96944  24180310.6884                   24180309.5274
 -21957153.75448 -17098143.31247  19815539.6254                   19815538.2894
 -11808730.97348  -9192463.10945  22335631.2344                   22335631.1994
 -14328497.51248 -11154920.93746  21580348.0784                   21580345.3984
 11  8  1  0  8 30.0000000  0  8G09G28G10G17G12G04G27G02
  -9154684.44147  -7123431.16045  21988256.4774                   21988255.1374
  -7409419.00847  -5766298.53145  22248879.2114                   22248877.7344
  -9106541.44947  -7087000.50445  22579561.1334                   22579561.7584
 -11815485.46148  -9196485.00046  21613344.4924                   21613343.1994
  -1870323.49646  -1448696.07844  24164558.9534                   24164557.7194
 -21929900.16848 -17076906.74647  19820725.6564                   19820724.8284
 -11782889.44147  -9172326.87945  22340548.5474                   22340548.3634
 -14378248.60548 -11193687.97746  21570881.1174                   21570878.4774
 11  8  1  0  9  0.0000000  0  8G09G28G10G17G12G04G27G02
  -9138064.85947  -7110480.85945  21991418.5784                   21991418.2584
  -7327656.92247  -5702587.86345  22264437.8914                   22264436.8444
  -9179406.41047  -7143778.27744  22565695.5554                   22565696.5274
 -11766522.97748  -9158332.43046  21622662.1724                   21622660.2384
  -1953040.55947  -1513150.86744  24148818.6334                   24148817.5084
 -21902070.42248 -17055221.22747  19826021.4924                   19826019.9184
 -11756536.53947  -9151792.16845  22345563.6334                   22345563.1524
 -14427610.28148 -11232151.57046  21561487.6884                   21561484.9024
 11  8  1  0  9 30.0000000  0  8G09G28G10G17G12G04G27G02
  -9120775.98447  -7097009.03545  21994709.0394                   21994707.9264
  -7245494.83247  -5638565.52045  22280072.8594                   22280071.8404
  -9252023.40647  -7200362.83245  22551876.9924                   22551877.4104
 -11717438.21948  -9120084.58246  21632002.2194                   21632000.3594
  -2035702.93447  -1577563.07844  24133088.4384                   24133087.0004
 -21873671.18448 -17033091.94947  19831425.8054                   19831424.2464
 -11729678.45347  -9130863.81245  22350674.5084                   22350674.1454
 -14476586.82448 -11270315.06646  21552167.5234                   21552165.2074
 11  8  1  0 10  0.0000000  0  8G09G28G10G17G12G04G27G02
  -9102815.08247  -7083013.54745  21998126.8204                   21998126.1764
  -7162929.61347  -5574229.06245  22295784.1564                   22295783.3954
  -9324385.39147  -7256748.67245  22538106.9534                   22538107.6524
 -11668227.62547  -9081738.68446  21641367.2034                   21641365.1844
  -2118304.51647  -1641927.90644  24117369.5474                   24117368.8244
 -21844699.97348 -17010516.98447  19836938.8444                   19836937.5434
 -11702312.31647  -9109539.57445  22355882.1644                   22355882.1334
 -14525173.47348 -11308174.75446  21542922.0084                   21542919.3094
 11  8  1  0 10 30.0000000  0  8G09G28G10G17G12G04G27G02
  -9084176.57447  -7068490.05545  22001673.6174                   22001672.9804
  -7079955.43047  -5509573.91845  22311574.1094                   22311572.6764
  -9396482.43747  -7312928.08245  22524386.9924                   22524387.6054
 -11618885.10948  -9043289.97346  21650756.6094                   21650754.7384
  -2200837.21947  -1706239.07844  24101663.8914                   24101663.2304
 -21815151.68048 -16987492.33647  19842561.6484                   19842560.5434
 -11674433.07048  -9087815.50845  22361187.5084                   22361187.2384
 -14573363.34448 -11345725.26246  21533751.7664                   21533748.5044
 11  8  1  0 11  0.0000000  0  8G09G28G10G17G12G04G27G02
  -9064868.69148  -7053444.96945  22005347.8444                   22005346.7154
  -6996580.43447  -5444606.47745  22327439.8134                   22327439.0864
  -9468318.47747  -7368904.10245  22510716.7894                   22510717.7814
 -11569417.73448  -9004743.98046  21660170.0784                   21660168.3324
  -2283306.60246  -1770500.90644  24085970.7584                   24085969.7854
 -21785035.21148 -16964024.95747  19848292.8204                   19848291.2304
 -11646049.05547  -9065698.11745  22366588.5004                   22366588.5514
 -14621163.05148 -11382971.74646  21524655.8364                   21524653.0354
 11  8  1  0 11 30.0000000  0  8G09G28G10G17G12G04G27G02
  -9044897.77347  -7037883.23845  22009148.5394                   22009147.8594
  -6912811.07447  -5379331.71545  22343380.7034                   22343380.0164
  -9539895.86347  -7424678.58245  22497096.4064                   22497096.8524
 -11519831.28147  -8966105.18446  21669605.7814                   21669603.8834
  -2365716.50447  -1834716.39843  24070288.3834                   24070287.2194
 -21754357.73848 -16940120.43447  19854130.2814                   19854129.0824
 -11617166.94947  -9043192.60245  22372084.8134                   22372084.4924
 -14668577.48048 -11419918.02046  21515633.0474                   21515630.3594
 11  8  1  0 12  0.0000000  0  8G09G28G10G17G12G04G27G02
  -9024256.54347  -7021799.17645  22013075.6564                   22013075.2664
  -6828639.66847  -5313743.68445  22359398.2734                   22359397.6804
  -9611203.14547  -7480242.59845  22483526.8284                   22483527.9144
 -11470117.34447  -8927367.06246  21679065.7504                   21679064.4574
  -2448056.93447  -1898877.71544  24054620.0004                   24054618.3404
 -21723112.62548 -16915773.59447  19860076.1024                   19860075.2344
 -11587779.89148  -9020293.62145  22377677.2814                   22377676.5044
 -14715597.63348 -11456557.06246  21506685.1644                   21506682.7234
 11  8  1  0 12 30.0000000  0  8G09G28G10G17G12G04G27G02
  -9002948.35247  -7005195.41045  22017130.8524                   22017129.9924
  -6744069.76647  -5247845.12545  22375491.3524                   22375490.2034
  -9682239.77347  -7535595.70745  22470009.0784                   22470009.5434
 -11420278.18047  -8888531.36346  21688550.1804                   21688548.5514
  -2530328.11347  -1962985.06644  24038963.6484                   24038962.9264
 -21691303.48448 -16890987.24647  19866129.0314                   19866128.0434
 -11557891.32847  -8997003.86345  22383364.8984                   22383364.8634
 -14762225.14148 -11492890.15246  21497812.4064                   21497809.4454
 11  8  1  0 13  0.0000000  0  8G09G28G10G17G12G04G27G02
  -8980971.78147  -6988070.82845  22021313.0084                   22021312.1414
  -6659099.41447  -5181634.53145  22391660.6804                   22391659.5824
  -9752999.62947  -7590733.16445  22456543.6484                   22456544.3594
 -11370311.52748  -8849596.32846  21698058.1724                   21698057.0704
  -2612525.70747  -2027035.13343  24023322.3984                   24023320.8524
 -21658929.55948 -16865760.80947  19872289.5634                   19872288.5084
 -11527500.08648  -8973322.40245  22389147.8674                   22389147.6024
 -14808456.96948 -11528914.91046  21489014.7194                   21489012.1564
 11  8  1  0 13 30.0000000  0  8G09G28G10G17G12G04G27G02
  -8958330.86347  -6970428.57445  22025621.1174                   22025620.8364
  -6573732.32847  -5115114.80945  22407905.6954                   22407905.0044
  -9823482.46947  -7645654.76245  22443131.3984                   22443131.7894
 -11320219.92648  -8810563.91846  21707590.3284                   21707589.2194
  -2694650.99247  -2091028.81644  24007694.3054                   24007693.1414
 -21625995.52348 -16840097.92247  19878557.0314                   19878555.6604
 -11496610.35247  -8949252.49645  22395026.3204                   22395025.7034
 -14854295.31648 -11564633.06646  21480291.9614                   21480289.0394
 11  8  1  0 14  0.0000000  0  8G09G28G10G17G12G04G27G02
  -8935029.19947  -6952271.43445  22030055.2584                   22030055.1024
  -6487971.50447  -5048288.26245  22424225.3284                   22424224.6954
  -9893687.30147  -7700359.73845  22429771.8284                   22429771.9344
 -11270006.09048  -8771436.26646  21717145.7584                   21717144.2034
  -2776704.28946  -2154966.41043  23992079.7894                   23992078.9224
 -21592505.14848 -16814001.52047  19884929.8524                   19884928.5554
 -11465225.55147  -8924796.84045  22400998.5784                   22400997.9924
 -14899742.03948 -11600046.05546  21471643.8914                   21471640.5904
 11  8  1  0 14 30.0000000  0  8G09G28G10G17G12G04G27G02
  -8911068.13747  -6933600.48845  22034615.1644                   22034614.3554
  -6401818.30547  -4981155.98045  22440619.7814                   22440619.1094
  -9963610.79347  -7754845.48444  22416465.5554                   22416465.9654
 -11219669.76248  -8732213.16446  21726724.5554                   21726723.1254
  -2858683.93447  -2218846.60544  23976479.5944                   23976478.5554
 -21558460.25048 -16787473.01646  19891408.2974                   19891407.0164
 -11433347.24647  -8899956.62945  22407064.6644                   22407064.5784
 -14944796.90248 -11635153.69946  21463070.0234                   21463066.9144
 11  8  1  0 15  0.0000000  0  8G09G28G10G17G12G04G27G02
  -8886443.85247  -6914412.74645  22039301.4144                   22039300.6054
  -6315268.67647  -4913714.77745  22457089.3754                   22457088.7664
 -10033245.11347  -7809105.89545  22403214.6724                   22403215.1644
 -11169206.46948  -8692891.12546  21736326.8444                   21736326.0864
  -2940583.03147  -2282664.03544  23960895.3444                   23960894.0664
 -21523857.53948 -16760509.85546  19897993.0474                   19897991.8404
 -11400971.75447  -8874729.00045  22413225.5554                   22413225.0784
 -14989453.85548 -11669951.27746  21454572.0394                   21454569.1994
 11  8  1  0 15 30.0000000  0  8G09G28G10G17G12G04G27G02
  -8861165.28147  -6894715.17645  22044111.0784                   22044110.9184
  -6228331.15247  -4845971.33244  22473633.8054                   22473632.4654
 -10102594.64847  -7863144.39845  22390017.6094                   22390018.0984
 -11118623.74648  -8653476.02746  21745953.2424                   21745951.8444
  -3022407.34047  -2346423.16044  23945324.1484                   23945323.4924
 -21488706.35248 -16733119.32447  19904682.0474                   19904680.5784
 -11368108.36347  -8849121.19945  22419479.3984                   22419478.9964
 -15033720.55548 -11704444.75046  21446148.2734                   21446145.3134
 11  8  1  0 16  0.0000000  0  8G09G28G10G17G12G04G27G02
  -8835222.15247  -6874499.77045  22049048.3284                   22049047.8134
  -6140995.44947  -4777917.60944  22490252.4304                   22490252.2664
 -10171644.55147  -7916949.41845  22376878.1804                   22376878.3094
 -11067910.14848  -8613958.94946  21755603.4384                   21755602.2854
  -3104143.51647  -2410113.66044  23929770.3444                   23929769.1564
 -21452997.14148 -16705293.96147  19911477.1414                   19911476.0394
 -11334746.92647  -8823125.30545  22425827.4064                   22425827.4884
 -15077584.65648 -11738624.51646  21437800.9924                   21437798.4384
 11  8  1  0 16 30.0000000  0  8G09G28G10G17G12G04G27G02
  -8808616.41047  -6853768.02745  22054111.1564                   22054110.5594
  -6053263.16847  -4709554.85244  22506947.8204                   22506946.5984
 -10240392.82447  -7970519.41445  22363795.7584                   22363796.2504
 -11017066.14147  -8574340.26646  21765278.6644                   21765277.4654
  -3185790.99646  -2473734.99244  23914233.0784                   23914231.9144
 -21416732.19948 -16677035.57047  19918378.1564                   19918377.0354
 -11300889.39847  -8796742.85545  22432270.7344                   22432270.7584
 -15121046.28148 -11772490.64846  21429530.5084                   21429527.5434
 11  8  1  0 17  0.0000000  0  8G09G28G10G17G12G04G27G02
  -8781351.16847  -6832522.39145  22059299.2034                   22059298.8714
  -5965136.68747  -4640884.94944  22523718.3984                   22523717.1484
 -10308837.48047  -8023852.80945  22350770.7424                   22350771.5044
 -10966093.74247  -8534621.53146  21774978.5634                   21774977.0634
  -3267349.25847  -2537286.85544  23898712.9614                   23898711.4774
 -21379914.92248 -16648346.78147  19925384.7504                   19925383.2304
 -11266538.94147  -8769976.30945  22438807.0314                   22438807.1604
 -15164106.95348 -11806044.36346  21421336.5084                   21421333.4964
 11  8  1  0 17 30.0000000  0  8G09G28G10G17G12G04G27G02
  -8753427.88747  -6810763.98445  22064613.1414                   22064612.4494
  -5876617.22347  -4571908.81244  22540562.4694                   22540560.9264
 -10376975.24247  -8076947.06245  22337804.0864                   22337804.8244
 -10914992.59847  -8494802.46546  21784702.8444                   21784700.9654
  -3348815.98046  -2600767.37544  23883210.4144                   23883209.0984
 -21342547.12548 -16619229.01247  19932495.3984                   19932494.1564
 -11231696.94947  -8742826.74645  22445437.6484                   22445437.7194
 -15206766.18048 -11839285.25846  21413218.6174                   21413215.5394
 11  8  1  0 18  0.0000000  0  8G09G28G10G17G12G04G27G02
  -8724850.89547  -6788496.21145  22070051.3284                   22070050.3484
  -5787708.96547  -4502629.72744  22557480.8674                   22557480.2814
 -10444805.97747  -8129802.07845  22324896.6094                   22324896.9614
 -10863765.81247  -8454885.51246  21794450.7344                   21794449.7504
  -3430192.57847  -2664177.69144  23867724.4454                   23867723.6024
 -21304633.64548 -16589686.03947  19939709.8754                   19939708.5864
 -11196367.92647  -8715297.67645  22452160.4534                   22452160.0274
 -15249026.42248 -11872215.26646  21405176.7344                   21405174.2074
 11  8  1  0 18 30.0000000  0  8G09G28G10G17G12G04G27G02
  -8695618.55147  -6765717.77045  22075614.0314                   22075613.2464
  -5698409.41847  -4433045.75044  22574474.3364                   22574473.2154
 -10512323.44147  -8182412.98845  22312048.2814                   22312048.7734
 -10812410.37148  -8414868.29746  21804223.4454                   21804222.0124
  -3511473.98446  -2727513.80144  23852257.9384                   23852256.8524
 -21266173.05948 -16559716.74247  19947028.5314                   19947027.5984
 -11160550.28147  -8687387.86345  22458976.4384                   22458976.0944
 -15290884.02048 -11904831.52346  21397211.6334                   21397209.0594
 11  8  1  0 19  0.0000000  0  8G09G28G10G17G12G04G27G02
  -8665728.14547  -6742426.55145  22081301.6174                   22081301.2624
  -5608715.77747  -4363154.67245  22591542.3444                   22591542.1174
 -10579520.70347  -8234774.39845  22299260.9774                   22299261.2544
 -10760922.18448  -8374747.65646  21814021.5394                   21814019.9344
  -3592654.31646  -2790771.18044  23836809.8594                   23836807.7624
 -21227163.30948 -16529319.53147  19954451.9304                   19954450.7974
 -11124241.73048  -8659095.52745  22465885.8984                   22465885.2154
 -15332334.39548 -11937130.46546  21389323.7274                   21389320.8484
 11  8  1  0 19 30.0000000  0  8G09G28G10G17G12G04G27G02
  -8635184.52047  -6718626.33245  22087113.8674                   22087113.7544
  -5518632.31247  -4292959.83645  22608684.8834                   22608684.5394
 -10646397.54347  -8286886.12545  22286534.9454                   22286535.1994
 -10709304.20748  -8334525.88346  21823844.2814                   21823842.5514
  -3673734.94546  -2853950.86344  23821380.5554                   23821379.2464
 -21187609.45348 -16498498.34447  19961979.0084                   19961977.7194
 -11087446.98447  -8630424.32845  22472887.7734                   22472887.4884
 -15373380.55148 -11969114.43046  21381512.9304                   21381509.9104
 11  8  1  0 20  0.0000000  0  8G09G28G10G17G12G04G27G02
  -8603978.83647  -6694310.23045  22093052.7114                   22093051.4104
  -5428150.04747  -4222454.24645  22625903.2504                   22625902.8134
 -10712940.30147  -8338737.53145  22273872.2504                   22273872.2424
 -10657546.31647  -8294195.07446  21833693.3594                   21833692.0704
  -3754703.66846  -2917043.32444  23805972.3444                   23805970.8014
 -21147502.91448 -16467246.49647  19969610.8594                   19969609.9494
 -11050157.22747  -8601367.41045  22479984.2194                   22479983.5944
 -15414011.94148 -12000775.19946  21373780.9774                   21373778.0204
 11  8  1  0 20 30.0000000  0  8G09G28G10G17G12G04G27G02
  -8572114.20347  -6669480.66045  22099116.4534                   22099114.9144
  -5337271.35947  -4151639.77044  22643196.8054                   22643196.7424
 -10779147.62947  -8390327.56645  22261273.3984                   22261273.1334
 -10605649.78547  -8253756.25046  21843568.9384                   21843567.3714
  -3835559.82447  -2980048.09044  23790585.7274                   23790584.8874
 -21106847.36348 -16435566.83646  19977347.1334                   19977345.9494
 -11012375.50847  -8571927.14545  22487173.3284                   22487173.1174
 -15454229.56248 -12032113.54346  21366127.7114                   21366124.5044
 11  8  1  0 21  0.0000000  0  8G09G28G10G17G12G04G27G02
  -8539596.73847  -6644142.40245  22105303.8444                   22105303.2464
  -5246002.00447  -4080520.88744  22660565.2974                   22660564.6054
 -10845020.70347  -8441657.14545  22248737.4774                   22248738.1684
 -10553619.49247  -8213213.18446  21853470.1174                   21853468.4494
  -3916306.16047  -3042967.26244  23775220.6884                   23775219.2074
 -21065648.94148 -16403464.17647  19985187.1254                   19985185.9494
 -10974108.00847  -8542108.35945  22494455.0474                   22494454.9734
 -15494037.57448 -12063132.72346  21358552.3914                   21358549.5234
 11  8  1  0 21 30.0000000  0  8G09G28G10G17G12G04G27G02
  -8506424.93747  -6618294.25845  22111616.1094                   22111615.7544
  -5154339.78947  -4009095.88344  22678007.5234                   22678007.6684
 -10910553.33247  -8492721.44145  22236267.2274                   22236267.6644
 -10501451.97347  -8172563.18046  21863396.9064                   21863395.4574
  -3996937.57047  -3105796.89844  23759876.1644                   23759875.4774
 -21023906.51648 -16370937.60547  19993130.5394                   19993129.2194
 -10935353.17247  -8511909.82845  22501830.1954                   22501830.1994
 -15533432.44148 -12093829.97346  21351055.8134                   21351052.8324
 11  8  1  0 22  0.0000000  0  8G09G28G10G17G12G04G27G02
  -8472605.08247  -6591941.14845  22118051.7274                   22118051.4104
  -5062290.96547  -3937369.62144  22695524.4694                   22695524.1644
 -10975746.75047  -8543521.42645  22223860.9144                   22223861.4304
 -10449152.01647  -8131809.98846  21873349.7114                   21873347.9144
  -4077457.05547  -3168539.27344  23744554.2734                   23744553.7154
 -20981626.87548 -16337992.43047  20001175.8834                   20001174.3714
 -10896117.28547  -8481336.45745  22509296.8134                   22509296.3134
 -15572418.73448 -12124208.86346  21343637.2424                   21343633.8634
 11  8  1  0 22 30.0000000  0  8G09G28G10G17G12G04G27G02
  -8438134.38747  -6565080.89545  22124611.6414                   22124611.2544
  -4969851.52347  -3865338.99244  22713115.2274                   22713114.8094
 -11040593.41447  -8594051.20345  22211521.3914                   22211521.4574
 -10396714.75847  -8090949.80946  21883327.8754                   21883326.2384
  -4157857.55547  -3231188.93044  23729254.2664                   23729253.8014
 -20938807.13348 -16304626.39547  20009324.4384                   20009323.2384
 -10856397.37947  -8450385.91845  22516855.2664                   22516854.9264
 -15610991.06648 -12154265.18446  21336296.8054                   21336294.4884
 11  8  1  0 23  0.0000000  0  8G09G28G10G17G12G04G27G02
  -8403021.44947  -6537720.19145  22131293.4304                   22131293.0514
  -4877030.05147  -3793010.66044  22730778.4614                   22730777.9494
 -11105097.39847  -8644313.96945  22199246.6884                   22199246.5704
 -10344147.02347  -8049987.96146  21893331.4224                   21893329.7934
  -4238144.37547  -3293750.01644  23713976.3204                   23713975.4694
 -20895456.41048 -16270846.60947  20017573.8524                   20017572.6414
 -10816202.23447  -8419065.08245  22524503.7664                   22524503.8954
 -15649156.59448 -12184004.52046  21329034.1334                   21329031.0864
 11  8  1  0 23 30.0000000  0  8G09G28G10G17G12G04G27G02
  -8367270.12147  -6509862.05545  22138096.8364                   22138096.0314
  -4783830.00447  -3720387.32444  22748514.0314                   22748512.4964
 -11169257.58247  -8694308.83245  22187037.3444                   22187037.6214
 -10291451.30947  -8008926.38746  21903359.0004                   21903357.1954
  -4318317.73447  -3356222.70744  23698719.8914                   23698718.7464
 -20851578.77048 -16236656.23847  20025923.3834                   20025922.1524
 -10775535.69547  -8387376.91845  22532242.5944                   22532242.6334
 -15686917.19548 -12213428.32846  21321848.6804                   21321845.5634
 11  8  1  0 24  0.0000000  0  8G09G28G10G17G12G04G27G02
  -8330874.39547  -6481501.79745  22145022.9144                   22145022.2504
  -4690244.50047  -3647463.63344  22766322.8054                   22766321.4494
 -11233062.82047  -8744027.10945  22174895.7424                   22174895.5704
 -10238619.35248  -7967758.65246  21913412.5704                   21913410.3094
  -4398367.73447  -3418599.25444  23683486.7814                   23683485.3324
 -20807168.42248 -16202050.78146  20034374.4144                   20034373.2234
 -10734391.62947  -8355316.66445  22540072.5164                   22540072.6334
 -15724264.32848 -12242529.96146  21314741.7114                   21314738.6604
 11  8  1  0 24 30.0000000  0  8G09G28G10G17G12G04G27G02
  -8293832.52047  -6452638.04345  22152071.3524                   22152071.0274
  -4596271.30547  -3574237.84444  22784205.4694                   22784204.2544
 -11296506.66447  -8793463.79745  22162822.3834                   22162822.6134
 -10185647.59447  -7926481.97346  21923492.5004                   21923491.3204
  -4478289.14847  -3480875.59844  23668277.8594                   23668277.4144
 -20762224.02348 -16167029.16846  20042927.1724                   20042926.1174
 -10692768.47347  -8322883.09045  22547993.1174                   22547992.9454
 -15761194.48048 -12271306.66846  21307713.9454                   21307710.9804
 11  8  1  0 25  0.0000000  0  8G09G28G10G17G12G04G27G02
  -8256158.18047  -6423281.44945  22159240.4614                   22159239.9384
  -4501923.90247  -3500720.48044  22802159.0394                   22802158.9574
 -11359598.03547  -8842625.81645  22150816.5474                   22150816.2664
 -10132548.43448  -7885106.03546  21933597.2734                   21933595.3204
  -4558091.83247  -3543059.44144  23653092.1804                   23653091.1024
 -20716759.49648 -16131602.27347  20051578.5314                   20051577.3094
 -10650679.80947  -8290086.77745  22556001.6094                   22556002.0004
 -15797719.29348 -12299767.53546  21300763.8834                   21300760.5204
 11  8  1  0 25 30.0000000  0  8G09G28G10G17G12G04G27G02
  -8217844.50847  -6393426.68745  22166531.4844                   22166531.1134
  -4407194.62947  -3426905.53144  22820185.5084                   22820184.6054
 -11422324.93047  -8891503.81645  22138879.9924                   22138880.0664
 -10079312.64847  -7843623.61746  21943727.3364                   21943726.0124
  -4637764.85947  -3605142.25044  23637930.8204                   23637929.8794
 -20670768.02348 -16095764.76647  20060330.4844                   20060328.9454
 -10608118.47747  -8256922.16445  22564101.3914                   22564101.4614
 -15833829.74248 -12327905.51646  21293891.9614                   21293889.2154
 11  8  1  0 26  0.0000000  0  8G09G28G10G17G12G04G27G02
  -8178898.03947  -6363078.84045  22173943.0704                   22173942.6134
  -4312089.08247  -3352797.39544  22838283.3674                   22838283.0514
 -11484688.63347  -8940098.80945  22127012.5864                   22127012.2274
 -10025944.55947  -7802038.12146  21953883.1254                   21953882.0314
  -4717310.47347  -3667125.79744  23622793.5944                   23622792.6724
 -20624256.03548 -16059521.66046  20069181.6024                   20069180.3914
 -10565090.91447  -8223394.25445  22572289.3134                   22572289.2584
 -15869530.22748 -12355724.04746  21287098.4384                   21287095.1844
 11  8  1  0 26 30.0000000  0  8G09G28G10G17G12G04G27G02
  -8139319.97347  -6332238.83245  22181474.4774                   22181473.7344
  -4216607.94947  -3278396.59444  22856453.0704                   22856452.9454
 -11546685.37147  -8988407.86345  22115215.2344                   22115214.7074
  -9972443.45347  -7760348.96546  21964064.2504                   21964062.9144
  -4796726.77047  -3729008.56244  23607681.8524                   23607680.5594
 -20577225.08248 -16022874.16447  20078131.0084                   20078129.9344
 -10521598.43447  -8189504.06645  22580565.4844                   22580565.6334
 -15904819.90648 -12383222.46946  21280383.0864                   21280379.6764
 11  8  1  0 27  0.0000000  0  8G09G28G10G17G12G04G27G02
  -8099106.18047  -6300903.46145  22189126.5234                   22189126.6844
  -4120746.60947  -3203699.52344  22874694.4924                   22874693.8484
 -11608306.34047  -9036424.11745  22103488.3054                   22103488.7114
  -9918803.10947  -7718551.32046  21974271.8444                   21974270.0634
  -4876005.38347  -3790784.06644  23592594.9224                   23592594.1174
 -20529671.23848 -15985819.21947  20087180.4534                   20087179.3794
 -10477636.53147  -8155248.08645  22588930.8444                   22588931.0314
 -15939692.37148 -12410395.78546  21273746.8134                   21273743.7194
 11  8  1  0 27 30.0000000  0  8G09G28G10G17G12G04G27G02
  -8058262.10547  -6269076.95745  22196899.4774                   22196898.9574
  -4024509.94547  -3128710.01244  22893007.7034                   22893007.9384
 -11669551.64847  -9084147.64545  22091834.0234                   22091833.8284
  -9865027.05947  -7676647.92646  21984505.2114                   21984503.5664
  -4955147.51247  -3852453.21944  23577534.8834                   23577533.8244
 -20481599.99648 -15948361.09447  20096327.8674                   20096326.6604
 -10433210.64547  -8120630.55545  22597385.0554                   22597385.3554
 -15974151.17648 -12437246.77046  21267189.5864                   21267186.3324
 11  8  1  0 28  0.0000000  0  8G09G28G10G17G12G04G27G02
  -8016795.41447  -6236765.31645  22204790.2274                   22204790.0594
  -3927905.07847  -3053433.57844  22911391.5634                   22911391.3714
 -11730424.11347  -9131580.65245  22080250.2424                   22080250.4494
  -9811121.37147  -7634643.51245  21994762.6644                   21994761.3714
  -5034156.78147  -3914018.87144  23562499.7274                   23562498.6414
 -20433019.45748 -15910506.12147  20105572.8134                   20105571.4694
 -10388328.63747  -8085657.61745  22605925.9694                   22605926.0594
 -16008201.90648 -12463779.75846  21260709.9614                   21260706.8524
 11  8  1  0 28 30.0000000  0  8G09G28G10G17G12G04G27G02
  -7974703.82447  -6203966.72345  22212800.3984                   22212799.5044
  -3830928.75047  -2977867.69544  22929844.7974                   22929845.3094
 -11790916.43047  -9178717.44145  22068738.9694                   22068738.6604
  -9757081.12947  -7592534.24646  22005046.0634                   22005045.3404
  -5113027.46547  -3975476.51644  23547491.8524                   23547490.4964
 -20383927.27748 -15872252.46947  20114914.2974                   20114913.4104
 -10342987.64147  -8050327.03545  22614554.4064                   22614554.1954
 -16041839.86348 -12489991.11746  21254308.7584                   21254305.4264
 11  8  1  0 29  0.0000000  0  8G09G28G10G17G12G04G27G02
  -7931992.11747  -6170684.92645  22220927.8914                   22220927.0084
  -3733585.33647  -2902015.75444  22948369.3984                   22948369.5634
 -11851028.32047  -9225557.80545  22057299.8054                   22057299.8754
  -9702908.88747  -7550322.14146  22015355.3364                   22015353.4804
  -5191759.95747  -4036826.52045  23532509.2894                   23532507.8524
 -20334328.44148 -15833604.00847  20124352.8364                   20124351.7114
 -10297192.65647  -8014642.69145  22623268.7424                   22623269.2074
 -16075067.86348 -12515883.02746  21247985.5164                   21247982.4574
 11  8  1  0 29 30.0000000  0  8G09G28G10G17G12G04G27G02
  -7888659.84847  -6136919.56645  22229173.9534                   22229173.3484
  -3635873.73847  -2825876.92644  22966963.4224                   22966963.6524
 -11910753.94547  -9272097.18045  22045934.7194                   22045934.6024
  -9648602.14847  -7508005.21146  22025689.2664                   22025687.7734
  -5270349.83647  -4098065.38744  23517554.0704                   23517553.0864
 -20284222.77048 -15794560.61747  20133887.5704                   20133886.2814
 -10250943.27747  -7978604.25445  22632070.0164                   22632069.5904
 -16107883.31648 -12541453.47746  21241741.1094                   21241738.0084
 11  8  1  0 30  0.0000000  0  8G09G28G10G17G12G04G27G02
  -7844709.56247  -6102672.64145  22237537.3594                   22237536.5784
  -3537795.17247  -2749452.14144  22985627.3984                   22985627.2734
 -11970090.43747  -9318333.34445  22034643.2034                   22034642.8874
  -9594161.12548  -7465583.64846  22036049.2734                   22036047.5984
  -5348794.91047  -4159191.41444  23502626.5004                   23502625.1994
 -20233612.23048 -15755123.82046  20143518.3914                   20143517.3164
 -10204241.47747  -7942213.28945  22640957.4844                   22640957.0234
 -16140286.18748 -12566702.43046  21235574.8914                   21235572.2504
 11  8  1  0 30 30.0000000  0  8G09G28G10G17G12G04G27G02
  -7800143.43747  -6067945.84045  22246017.9454                   22246017.7584
  -3439351.68747  -2672743.00044  23004360.4694                   23004360.1644
 -12029035.28947  -9364264.34445  22023426.5784                   22023426.1684
  -9539585.83248  -7423057.44946  22046434.5004                   22046433.1094
  -5427093.44947  -4220203.25844  23487726.2114                   23487725.3794
 -20182499.50448 -15715295.71546  20153244.9534                   20153243.8404
 -10157089.28147  -7905471.36345  22649929.6484                   22649929.6094
 -16172276.68048 -12591630.04746  21229487.6724                   21229484.2034
 11  8  1  0 31  0.0000000  0  9G09G28G10G17G12G05G04G27G02
  -7754962.87147  -6032740.25845  22254615.2974                   22254615.4614
  -3340544.49247  -2595750.43444  23023162.7974                   23023162.3444
 -12087584.81247  -9409887.29745  22012284.7114                   22012284.3524
  -9484875.52748  -7380426.06246  22056845.2504                   22056844.2854
  -5505242.93747  -4281098.95344  23472855.0084                   23472853.7894
   -128463.67656    -90719.68453  24712715.2734                   24712720.7274
 -20130886.11748 -15675077.48447  20163066.7584                   20163065.4104
 -10109488.06247  -7868379.55545  22658987.8754                   22658988.0554
 -16203854.03948 -12616235.75046  21223478.3754                   21223474.9654
 11  8  1  0 31 30.0000000  0  9G09G28G10G17G12G05G04G27G02
  -7709176.26247  -5997062.42245  22263328.3524                   22263328.0124
  -3241380.62147  -2518479.94144  23042033.3754                   23042032.8164
 -12145741.94948  -9455204.49245  22001218.0784                   22001217.5434
  -9430036.36348  -7337694.24245  22067281.0234                   22067279.5824
  -5583247.37147  -4341881.62144  23458011.3524                   23458010.1564
   -216708.15646   -159481.30943  24695922.5864                   24695926.7154
 -20078780.43748 -15634475.66046  20172981.9304                   20172980.6094
 -10061446.17647  -7830944.35945  22668130.0634                   22668130.0824
 -16235024.59848 -12640524.45746  21217546.6644                   21217543.8134
 11  8  1  0 32  0.0000000  0  9G09G28G10G17G12G05G04G27G02
  -7662784.36747  -5960912.92645  22272156.3364                   22272155.7504
  -3141859.89147  -2440931.39144  23060970.9224                   23060970.3714
 -12203501.96947  -9500212.25845  21990226.2814                   21990225.6724
  -9375066.57447  -7294860.64846  22077741.4774                   22077740.1764
  -5661103.00047  -4402548.33644  23443195.9924                   23443194.2704
   -304999.20346   -228279.21944  24679121.0394                   24679125.3754
 -20026183.19548 -15593490.78946  20182991.0234                   20182989.6094
 -10012964.06647  -7793166.14145  22677355.7664                   22677355.8834
 -16265786.50048 -12664494.73446  21211693.1254                   21211689.5904
 11  8  1  0 32 30.0000000  0  9G09G28G10G17G12G05G04G27G02
  -7615787.78147  -5924292.25045  22281099.9064                   22281099.9104
  -3041982.61747  -2363105.02044  23079977.3834                   23079977.2344
 -12260860.58247  -9544907.21945  21979310.9844                   21979310.7194
  -9319964.48447  -7251923.96546  22088227.4064                   22088225.5164
  -5738806.40247  -4463096.43044  23428409.8284                   23428408.5554
   -393333.11746   -297110.53543  24662310.8054                   24662315.8444
 -19973095.10248 -15552123.44946  20193093.0704                   20193091.9104
  -9964042.13347  -7755045.18745  22686664.8134                   22686665.2114
 -16296138.28948 -12688145.45346  21205917.0784                   21205913.4614
 11  8  1  0 33  0.0000000  0  9G09G28G10G17G12G05G04G27G02
  -7568195.64147  -5887207.49645  22290156.2114                   22290156.2194
  -2941756.73047  -2285007.01644  23099049.5864                   23099049.3244
 -12317821.75047  -9589292.49645  21968471.8754                   21968471.6684
  -9264736.37547  -7208889.06646  22098736.5234                   22098735.0744
  -5816362.37947  -4523529.62144  23413651.1644                   23413649.8634
   -481714.25046   -365978.67644  24645491.9614                   24645497.3364
 -19919525.27048 -15510380.72347  20203286.9924                   20203286.1054
  -9914689.35547  -7716588.51245  22696056.9064                   22696057.3324
 -16326086.78948 -12711481.92646  21200217.9534                   21200214.8054
 11  8  1  0 33 30.0000000  0  9G09G28G10G17G12G05G04G27G02
  -7519998.34847  -5849651.18745  22299327.9224                   22299327.2704
  -2841172.06647  -2206629.43444  23118190.5634                   23118189.8714
 -12374370.67648  -9633356.52345  21957710.8444                   21957710.7424
  -9209370.96947  -7165747.19546  22109272.1484                   22109271.1524
  -5893756.73047  -4583836.86744  23398923.5554                   23398922.3164
   -570128.42246   -434872.57444  24628667.5394                   24628672.7894
 -19865463.60548 -15468254.76247  20213574.4694                   20213573.5434
  -9864896.00847  -7677788.53945  22705532.7274                   22705532.6954
 -16355620.08648 -12734494.85946  21194598.1254                   21194594.9964
 11  8  1  0 34  0.0000000  0  9G09G28G10G17G12G05G04G27G02
  -7471205.30947  -5811630.67645  22308612.7664                   22308612.2114
  -2740237.29347  -2127979.07044  23137397.8674                   23137397.3674
 -12430511.07847  -9677102.23045  21947027.7194                   21947027.6484
  -9153874.58648  -7122503.27045  22119832.9064                   22119831.1414
  -5970993.83647  -4644021.56644  23384225.3834                   23384224.2504
   -658580.09146   -503795.70244  24611835.3524                   24611840.5744
 -19810919.78948 -15425753.09446  20223954.4224                   20223953.0354
  -9814671.25847  -7638652.39845  22715089.9774                   22715089.9184
 -16384745.34048 -12757189.83646  21189055.9614                   21189052.6644
 11  8  1  0 34 30.0000000  0  9G09G28G10G17G12G05G04G27G02
  -7421820.75447  -5773149.22345  22318010.5634                   22318010.3634
  -2638955.82847  -2049058.56244  23156670.9224                   23156671.3284
 -12486242.20748  -9720529.01245  21936422.4384                   21936422.1724
  -9098249.34048  -7079158.92245  22130417.6644                   22130416.0864
  -6048074.62947  -4704084.46544  23369557.5864                   23369556.2854
   -747069.20746   -572747.98844  24594997.1174                   24595001.8014
 -19755898.32448 -15382879.23447  20234424.3674                   20234423.1914
  -9764019.07447  -7599183.19545  22724728.6174                   22724729.0204
 -16413464.55148 -12779568.40246  21183590.6884                   21183587.2304
 11  8  1  0 35  0.0000000  0  9G09G28G10G17G12G05G04G27G02
  -7371842.69547  -5734205.29745  22327521.3834                   22327520.6954
  -2537325.00847  -1969865.81244  23176010.4064                   23176011.0124
 -12541556.93748  -9763631.32845  21925896.0234                   21925896.0004
  -9042490.73048  -7035710.66446  22141028.5474                   22141027.6884
  -6124992.42647  -4764020.35545  23354920.4384                   23354918.9574
   -835588.45346   -641723.80544  24578151.3134                   24578156.6524
 -19700396.93748 -15339631.41446  20244985.6954                   20244984.5664
  -9712937.17247  -7559379.15645  22734448.9224                   22734450.0274
 -16441773.43748 -12801627.24246  21178203.5084                   21178200.0084
 11  8  1  0 35 30.0000000  0  9G09G28G10G17G12G05G04G27G02
  -7321267.06247  -5694795.73845  22337145.2814                   22337144.9494
  -2435339.56247  -1890396.74644  23195418.2114                   23195418.6804
 -12596445.41048  -9806401.50045  21915451.0234                   21915451.2974
  -8986592.11748  -6992153.32046  22151665.7194                   22151664.4104
  -6201738.39547  -4823822.35545  23340316.0234                   23340314.7304
   -924129.51646   -710716.57843  24561303.1484                   24561307.2734
 -19644411.40648 -15296006.34046  20255639.5864                   20255638.3014
  -9661421.31247  -7519236.96145  22744252.2344                   22744252.4844
 -16469665.46148 -12823361.25046  21172895.7344                   21172892.6844
 11  8  1  0 36  0.0000000  0  9G09G28G10G17G12G05G04G27G02
  -7270094.43047  -5654920.99245  22346882.8444                   22346882.3954
  -2332999.58647  -1810651.41044  23214892.2814                   23214893.1254
 -12650903.06648  -9848835.96945  21905088.2504                   21905088.0274
  -8930551.60248  -6948485.39546  22162330.2194                   22162328.4884
  -6278308.68747  -4883487.47344  23325745.0164                   23325743.5944
  -1012688.07446   -779723.00043  24544450.3284                   24544454.9494
 -19587942.40648 -15252004.53146  20266385.5864                   20266384.4064
  -9609471.71547  -7478756.80145  22754137.5314                   22754138.4344
 -16497138.86748 -12844769.07446  21167667.9534                   21167664.3754
 11  8  1  0 36 30.0000000  0  9G09G28G10G17G12G05G04G27G02
  -7218330.02747  -5614585.11345  22356733.8444                   22356733.3594
  -2230309.69547  -1730633.44544  23234434.7974                   23234434.7664
 -12704930.09448  -9890934.86745  21894807.3984                   21894806.8984
  -8874371.74648  -6904708.90246  22173020.8984                   22173019.3594
  -6354703.74647  -4943016.02045  23311207.3754                   23311206.3324
  -1101264.45746   -848743.28943  24527594.4454                   24527599.4414
 -19530994.88748 -15207629.85546  20277222.1024                   20277220.7974
  -9557093.64847  -7437942.75845  22764105.4614                   22764105.9104
 -16524196.83248 -12865853.18046  21162518.8364                   21162515.8984
 11  8  1  0 37  0.0000000  0  9G09G28G10G17G12G05G04G27G02
  -7165975.22347  -5573789.19145  22366696.4924                   22366695.6134
  -2127270.05547  -1650342.93744  23254042.3524                   23254042.4104
 -12758522.27048  -9932694.93045  21884608.9454                   21884608.1844
  -8818051.00847  -6860822.62546  22183738.0634                   22183736.7304
  -6430920.61747  -5002405.74645  23296704.5234                   23296703.1684
  -1189855.11746   -917774.69143  24510736.1954                   24510740.6954
 -19473570.27048 -15162883.41046  20288150.0394                   20288148.6884
  -9504288.00847  -7396795.54745  22774153.7504                   22774154.3714
 -16550838.26648 -12886612.72746  21157449.0554                   21157446.0004
 11  8  1  0 37 30.0000000  0  9G09G28G10G17G12G05G04G27G02
  -7113036.46547  -5532538.23845  22376770.0704                   22376769.7814
  -2023886.18047  -1569784.21144  23273715.7504                   23273715.2704
 -12811680.58248  -9974116.91045  21874493.6254                   21874492.9454
  -8761593.53147  -6816829.81646  22194481.8134                   22194480.0664
  -6506961.23047  -5061658.12945  23282234.3984                   23282232.6994
  -1278461.37146   -986818.24243  24493874.8284                   24493879.6134
 -19415674.69548 -15117769.98846  20299167.0004                   20299165.6764
  -9451061.05147  -7355320.03145  22784282.9844                   22784283.0704
 -16577067.01648 -12907050.68446  21152457.9924                   21152454.7664
 11  8  1  0 38  0.0000000  0  9G09G28G10G17G12G05G04G27G02
  -7059510.95747  -5490830.07845  22386955.6884                   22386955.9184
  -1920154.73847  -1488954.64143  23293454.6804                   23293454.5204
 -12864397.16048 -10015194.67645  21864461.5084                   21864461.2584
  -8704993.60247  -6772725.99645  22205251.9614                   22205250.6994
  -6582818.18047  -5120767.39545  23267799.0084                   23267797.8914
  -1367075.94546  -1055868.25844  24477011.4614                   24477016.3914
 -19357305.30148 -15072287.35246  20310274.0864                   20310273.1174
  -9397409.77047  -7313513.87145  22794492.3364                   22794492.2544
 -16602878.28148 -12927163.33246  21147546.4924                   21147543.0474
 11  8  1  0 38 30.0000000  0  9G09G28G10G17G12G05G04G27G02
  -7005401.04747  -5448666.53145  22397252.7584                   22397251.9064
  -1816076.50447  -1407854.85544  23313260.9454                   23313260.1374
 -12916668.57848 -10055925.58245  21854514.1564                   21854514.0594
  -8648251.09047  -6728511.07445  22216050.0554                   22216048.2464
  -6658488.63347  -5179731.33245  23253399.1254                   23253398.2424
  -1455695.73846  -1124922.31244  24460147.2734                   24460152.4534
 -19298464.31648 -15026437.24646  20321471.3204                   20321470.1724
  -9343335.80147  -7271378.34445  22804782.5784                   22804782.2424
 -16628271.64548 -12946950.34046  21142714.0704                   21142710.8714
 11  8  1  0 39  0.0000000  0  9G09G28G10G17G12G05G04G27G02
  -6950711.69147  -5406051.47345  22407660.1954                   22407659.3984
  -1711656.25847  -1326488.55944  23333130.9614                   23333131.0984
 -12968494.68048 -10096309.48045  21844652.4224                   21844651.5904
  -8591368.08248  -6684186.68045  22226874.3674                   22226873.2194
  -6733973.19147  -5238550.43445  23239034.7734                   23239033.6994
  -1544320.75446  -1193980.44144  24443282.9844                   24443287.0664
 -19239156.55948 -14980223.41846  20332757.2034                   20332755.6724
  -9288844.06647  -7228917.28945  22815151.8754                   22815151.4304
 -16653250.12148 -12966414.05946  21137960.8834                   21137957.2734
 11  8  1  0 39 30.0000000  0  9G09G28G10G17G12G05G04G27G02
  -6895447.36747  -5362988.38345  22418176.0784                   22418175.8284
  -1606897.15247  -1244858.18444  23353066.0554                   23353065.9494
 -13019873.96548 -10136345.21545  21834875.1024                   21834874.5004
  -8534346.11347  -6639754.01245  22237724.9844                   22237723.5394
  -6809271.20747  -5297224.17245  23224706.3134                   23224705.2384
  -1632950.57046  -1263042.30944  24426416.6414                   24426421.2344
 -19179385.91448 -14933648.90246  20344131.4144                   20344130.1254
  -9233938.52347  -7186133.77345  22825599.9614                   22825600.0944
 -16677815.14548 -12985555.60946  21133285.9844                   21133282.9654
 11  8  1  0 40  0.0000000  0  9G09G28G10G17G12G05G04G27G02
  -6839609.45347  -5319478.35545  22428801.4454                   22428801.5664
  -1501799.66446  -1162964.14843  23373065.5474                   23373066.2274
 -13070802.64848 -10176029.82845  21825183.5704                   21825183.0314
  -8477183.98047  -6595212.12945  22248603.0314                   22248601.6684
  -6884379.43447  -5355750.03945  23210413.9064                   23210412.2734
  -1721581.60546  -1332105.11744  24409550.7344                   24409555.2074
 -19119153.91448 -14886714.88747  20355592.8834                   20355591.5634
  -9178620.43047  -7143028.79345  22836126.8284                   22836126.9384
 -16701965.83248 -13004374.30946  21128690.4924                   21128687.2034
 11  8  1  0 40 30.0000000  0  9G09G28G10G17G12G05G04G27G02
  -6783196.45347  -5275520.20745  22439536.6564                   22439536.8164
  -1396361.59847  -1080804.73444  23393129.8054                   23393131.3444
 -13121273.87948 -10215357.99645  21815579.3914                   21815578.8594
  -8419877.34047  -6550557.63345  22259508.2504                   22259506.5354
  -6959291.82447  -5414123.30545  23196158.3284                   23196157.0164
  -1810206.96546  -1401163.51644  24392685.6884                   24392690.2704
 -19058458.87548 -14839420.06247  20367142.8834                   20367141.2814
  -9122887.93747  -7099600.92245  22846732.5004                   22846732.3284
 -16725698.60548 -13022867.36746  21124174.1564                   21124171.0004
 11  8  1  0 41  0.0000000  0  9G09G28G10G17G12G05G04G27G02
  -6726212.42647  -5231117.09845  22450380.5084                   22450380.2734
  -1290586.15247   -998382.43044  23413258.1484                   23413259.0514
 -13171286.50448 -10254328.79345  21806061.9454                   21806061.5634
  -8362427.71147  -6505791.72345  22270440.5164                   22270439.4694
  -7034007.55147  -5472343.30945  23181940.5394                   23181938.7664
  -1898826.35246  -1470217.22343  24375822.2114                   24375825.5904
 -18997304.72748 -14791767.49246  20378779.8984                   20378778.9574
  -9066745.16847  -7055853.34845  22857416.0394                   22857415.7304
 -16749015.25048 -13041036.16046  21119737.3524                   21119734.0594
 11  8  1  0 41 30.0000000  0  9G09G28G10G17G12G05G04G27G02
  -6668661.91047  -5186272.56245  22461332.1884                   22461331.9804
  -1184477.04747   -915700.12544  23433450.5394                   23433450.7344
 -13220839.50448 -10292941.45345  21796631.7974                   21796631.6054
  -8304836.65647  -6460915.62945  22281399.8594                   22281398.4494
  -7108526.77347  -5530410.21145  23167759.8444                   23167758.5744
  -1987438.68046  -1539265.48044  24358959.0864                   24358962.4344
 -18935695.74248 -14743760.50046  20390503.8204                   20390502.4654
  -9010196.17247  -7011789.25445  22868176.7814                   22868176.6914
 -16771917.81648 -13058882.30546  21115378.9144                   21115375.3984
 11  8  1  0 42  0.0000000  0  9G09G28G10G17G12G05G04G27G02
  -6610544.43047  -5140986.25045  22472391.6484                   22472391.2704
  -1078032.53946   -832756.46544  23453706.3914                   23453706.8954
 -13269927.01647 -10331191.39545  21787291.2584                   21787290.8204
  -8247100.68047  -6415926.57845  22292386.7584                   22292385.0824
  -7182843.78547  -5588319.55545  23153617.8524                   23153616.2234
  -2076038.42646  -1608303.91444  24342098.9064                   24342102.4574
 -18873631.22748 -14695398.54746  20402314.4774                   20402312.8204
  -8953239.99647  -6967407.87545  22879015.3054                   22879016.3674
 -16794403.38348 -13076403.50046  21111099.9304                   21111097.0984
 11  8  1  0 42 30.0000000  0  9G09G28G10G17G12G05G04G27G02
  -6551867.31647  -5095263.84845  22483557.5234                   22483557.1844
   -971259.03946   -749556.44144  23474024.3754                   23474025.5204
 -13318550.44548 -10369079.72345  21778038.4224                   21778037.9844
  -8189223.98047  -6370827.87545  22303400.2344                   22303398.9574
  -7256960.89147  -5646073.12545  23139513.9304                   23139512.1454
  -2164627.47346  -1677334.02344  24325240.2344                   24325243.4614
 -18811117.96548 -14646686.92246  20414210.3524                   20414209.2114
  -8895883.43447  -6922714.50445  22889930.4774                   22889930.1844
 -16816476.59448 -13093603.38346  21106899.5164                   21106896.4694
 11  8  1  0 43  0.0000000  0  9G09G28G10G17G12G05G04G27G02
  -6492629.59047  -5049104.60945  22494829.9924                   22494829.6374
   -864154.70746   -666098.64144  23494405.8674                   23494407.1524
 -13366703.53147 -10406601.54745  21768875.0634                   21768874.4494
  -8131202.90247  -6325616.68045  22314441.2974                   22314440.2584
  -7330872.07447  -5703666.23045  23125448.7274                   23125447.3754
  -2253199.78546  -1746351.07844  24308385.6334                   24308388.8914
 -18748154.78148 -14597624.70346  20426191.6644                   20426190.4224
  -8838125.28547  -6877708.21145  22900921.1804                   22900921.3164
 -16838133.96948 -13110479.24646  21102778.4064                   21102775.3984
 11  8  1  0 43 30.0000000  0  9G09G28G10G17G12G05G04G27G02
  -6432835.21947  -5002511.63345  22506208.4694                   22506208.4304
   -756722.57446   -582385.40244  23514849.2504                   23514850.8524
 -13414384.92247 -10443755.81645  21759801.5004                   21759800.7584
  -8073038.72748  -6280293.97346  22325509.6024                   22325508.1884
  -7404576.61347  -5761098.31645  23111423.2424                   23111421.9574
  -2341754.46146  -1815354.40244  24291533.7424                   24291538.4884
 -18684745.52348 -14548214.90246  20438258.0864                   20438256.9104
  -8779969.41047  -6832392.00445  22911987.3284                   22911987.9964
 -16859377.29348 -13127032.46946  21098736.3204                   21098732.6914
 11  8  1  0 44  0.0000000  0  9G09G28G10G17G12G05G04G27G02
  -6372485.81647  -4955486.16045  22517693.0634                   22517692.5824
   -648963.39546   -498417.33244  23535355.7114                   23535356.1994
 -13461590.76248 -10480539.52746  21750818.6564                   21750817.5864
  -8014730.16448  -6234858.74245  22336605.1024                   22336604.2424
  -7478071.13747  -5818366.77745  23097437.8754                   23097436.5744
  -2430287.62946  -1884340.99244  24274686.5864                   24274689.7304
 -18620891.80148 -14498458.75446  20450408.9534                   20450408.0594
  -8721417.03547  -6786766.84845  22923129.4924                   22923130.0944
 -16880205.76248 -13143262.42646  21094772.6414                   21094769.0434
 11  8  1  0 44 30.0000000  0  9G09G28G10G17G12G05G04G27G02
  -6311585.37947  -4908031.31645  22529281.7584                   22529281.5864
   -540879.83246   -414196.52343  23555923.1024                   23555924.0434
 -13508319.71148 -10516951.63345  21741926.5004                   21741925.6524
  -7956277.86748  -6189311.52045  22347728.3834                   22347726.6604
  -7551354.75447  -5875470.87945  23083492.0944                   23083491.0864
  -2518797.85946  -1953309.69943  24257842.9924                   24257846.7424
 -18556596.69548 -14448358.68046  20462644.0864                   20462642.8914
  -8662471.60947  -6740835.42645  22934346.8524                   22934346.7854
 -16900621.03148 -13159170.40646  21090887.1334                   21090884.1844
 11  8  1  0 45  0.0000000  0  9G09G28G10G17G12G05G04G27G02
  -6250134.21147  -4860147.32845  22540975.3914                   22540975.3404
   -432471.20746   -329722.37143  23576553.4614                   23576553.3594
 -13554566.15247 -10552987.77346  21733125.9304                   21733125.3714
  -7897678.56648  -6143649.73445  22358879.3364                   22358878.5234
  -7624422.31247  -5932406.61745  23069587.6804                   23069586.5394
  -2607279.79347  -2022256.41844  24241005.2894                   24241008.6254
 -18491860.57048 -14397914.95746  20474962.7814                   20474961.8554
  -8603132.91847  -6694597.54745  22945638.6804                   22945638.7304
 -16920620.32848 -13174754.26246  21087082.0234                   21087078.3594
 11  8  1  0 45 30.0000000  0  9G09G28G10G17G12G05G04G27G02
  -6188135.00047  -4811836.30945  22552773.6174                   22552772.9614
   -323739.59446   -244996.53143  23597244.0944                   23597245.1604
 -13600327.43048 -10588645.85545  21724418.2504                   21724417.0664
  -7838932.50048  -6097873.59445  22370058.0784                   22370056.9654
  -7697271.59847  -5989172.28145  23055724.7664                   23055723.6414
  -2695730.99247  -2091179.19144  24224172.8834                   24224175.9104
 -18426685.28148 -14347129.02046  20487365.0784                   20487364.2154
  -8543403.31247  -6648055.08245  22957004.5164                   22957005.6414
 -16940203.95348 -13190014.21546  21083355.1884                   21083351.9494
 11  8  1  0 46  0.0000000  0  9G09G28G10G17G12G05G04G27G02
  -6125590.19947  -4763100.13745  22564675.5314                   22564675.6454
   -214686.23846   -160020.03943  23617995.8754                   23617996.4064
 -13645600.55547 -10623923.56246  21715802.7814                   21715801.9614
  -7780039.16447  -6051982.68745  22381265.1724                   22381264.3834
  -7769900.09847  -6045765.91045  23041904.1254                   23041902.7194
  -2784148.96547  -2160076.07444  24207347.7734                   24207350.5314
 -18361073.33248 -14296002.82846  20499850.8204                   20499849.8014
  -8483284.93047  -6601209.66445  22968445.2584                   22968445.6174
 -16959372.14548 -13204950.44546  21079707.5314                   21079704.3914
 11  8  1  0 46 30.0000000  0  9G09G28G10G17G12G05G04G27G02
  -6062501.52347  -4713940.19545  22576681.0394                   22576680.8674
   -105311.75846    -74793.27043  23638809.3444                   23638809.9734
 -13690382.03547 -10658818.17245  21707280.9224                   21707280.2584
  -7720997.19147  -6005975.97745  22392500.8984                   22392499.2234
  -7842304.64147  -6102185.03945  23028126.8054                   23028125.2154
  -2872529.82846  -2228944.07044  24190529.5234                   24190532.2234
 -18295026.16848 -14244537.50446  20512419.4224                   20512417.7344
  -8422779.27047  -6554062.45745  22979958.8984                   22979959.3954
 -16978124.24648 -13219562.45346  21076139.2664                   21076135.6214
 11  8  1  0 47  0.0000000  0  9G09G28G10G17G12G05G04G27G02
  -5998873.08647  -4664359.64845  22588789.4774                   22588789.3204
      4380.47746     10681.08644  23659683.4304                   23659683.5124
 -13734670.19947 -10693328.37546  21698853.0784                   21698852.7034
  -7661807.72747  -5959854.32445  22403764.2974                   22403762.8874
  -7914483.88347  -6158428.60945  23014390.6564                   23014389.6374
  -2960872.58647  -2297782.36744  24173718.4534                   24173720.6414
 -18228547.68048 -14192736.08646  20525069.8524                   20525068.5084
  -8361890.15647  -6506616.45345  22991545.9454                   22991546.4024
 -16996462.20748 -13233851.75846  21072649.6724                   21072646.3014
 11  8  1  0 47 30.0000000  0  9G09G28G10G17G12G05G04G27G02
  -7510123.68047  -5841957.58245  22301207.7974                   22301207.9574
  -1461025.84847  -1131194.06243  23380826.1334                   23380826.2974
 -15353881.55948 -11955051.46545  21390727.4064                   21390727.0234
  -9177886.46148  -7141214.37545  22115264.6884                   22115262.7504
  -9561856.48447  -7442095.56645  22700906.7344                   22700904.9964
  -4624595.29347  -3594189.46144  23857121.7424                   23857125.0514
 -19737055.87148 -15368197.02046  20238010.0864                   20238008.6094
  -9876035.89547  -7686470.35945  22703413.3914                   22703413.9964
 -18589804.40648 -14475417.08646  20769446.4924                   20769443.0744
 11  8  1  0 48  0.0000000  0  9G09G28G10G17G12G05G04G27G02
  -7445421.59447  -5791540.43445  22313519.6174                   22313520.1294
  -1350700.54347  -1045226.43043  23401820.4224                   23401820.8874
 -15397171.54347 -11988783.87145  21382489.4534                   21382488.6804
  -9118397.43748  -7094859.30145  22126584.5234                   22126583.0474
  -9633576.13347  -7497981.00445  22687258.4774                   22687257.5044
  -4712850.30146  -3662959.33644  23840327.6724                   23840330.5044
 -19669718.61348 -15315726.43446  20250823.9144                   20250822.6024
  -9814383.94947  -7638429.94945  22715145.3284                   22715145.7464
 -18607311.07048 -14489058.61746  20766115.2274                   20766111.3714
 11  8  1  0 48 30.0000000  0  9G09G28G10G17G12G05G04G27G02
  -7380184.03947  -5740706.04345  22325934.5234                   22325934.2154
  -1240058.35246   -959011.88343  23422875.6254                   23422876.7504
 -15439955.49247 -12022121.95746  21374348.2974                   21374347.1374
  -9058755.64848  -7048385.17645  22137933.6094                   22137932.6054
  -9705058.99647  -7553681.91445  22673656.1174                   22673654.7344
  -4801055.05946  -3731690.10244  23823542.9694                   23823546.0234
 -19601952.71148 -15262921.83246  20263719.4064                   20263718.5784
  -9752351.37547  -7590092.94544  22726949.6724                   22726950.6884
 -18624399.86348 -14502374.53146  20762863.1724                   20762860.1334
 11  8  1  0 49  0.0000000  0  9G09G28G10G17G12G05G04G27G02
  -7314417.82447  -5689459.70345  22338449.5864                   22338449.3204
  -1129105.17246   -872554.97344  23443989.0394                   23443990.2734
 -15482235.05147 -12055067.01645  21366302.6024                   21366301.9264
  -8998964.40648  -7001794.60545  22149312.0164                   22149310.6174
  -9776307.19547  -7609199.97345  22660098.2584                   22660096.8484
  -4889210.37547  -3800382.33644  23806766.6804                   23806770.4024
 -19533764.68048 -15209788.30946  20276694.8674                   20276693.8484
  -9689944.61347  -7541464.38745  22738825.4534                   22738826.3244
 -18641075.10948 -14515368.20346  20759690.2034                   20759686.8794
 11  8  1  0 49 30.0000000  0  9G09G28G10G17G12G05G04G27G02
  -7248120.95747  -5637799.87545  22351065.5164                   22351065.6764
  -1017837.69146   -785853.19143  23465162.0474                   23465163.6254
 -15524002.39148 -12087612.93446  21358354.1724                   21358353.7704
  -8939018.21548  -6955083.30545  22160719.0944                   22160718.1524
  -9847313.35947  -7664529.41045  22646585.7274                   22646584.5314
  -4977308.53946  -3869030.04344  23790002.3204                   23790005.9964
 -19465151.88748 -15156323.80146  20289751.6954                   20289750.5394
  -9627161.02047  -7492542.18045  22750773.1804                   22750773.3954
 -18657332.12548 -14528035.98846  20756596.4614                   20756592.9224
 11  8  1  0 50  0.0000000  0  9G09G28G10G17G12G05G04G27G02
  -7181293.32047  -5585726.45745  22363782.6024                   22363782.6024
   -906254.96946   -698905.72743  23486395.2894                   23486397.1454
 -15565251.95347 -12119755.39545  21350504.8984                   21350504.1604
  -8878914.34448  -6908249.12945  22172156.2894                   22172155.1334
  -9918072.00447  -7719665.95745  22633120.9694                   22633119.3134
  -5065344.28947  -3937629.13744  23773249.3444                   23773252.8754
 -19396113.99248 -15102528.03946  20302889.3914                   20302888.1564
  -9564000.20747  -7443326.03945  22762792.2274                   22762792.8054
 -18673168.34448 -14540375.88346  20753583.0164                   20753579.3134
 11  8  1  0 50 30.0000000  0  9G09G28G10G17G12G05G04G27G02
  -7113939.50447  -5533243.03145  22376599.5164                   22376599.4654
   -794360.36346   -611715.25444  23507689.3674                   23507689.9804
 -15605982.71548 -12151493.60246  21342754.5164                   21342753.2584
  -8818653.59047  -6861292.69145  22183623.7274                   22183622.6334
  -9988582.30547  -7774608.98445  22619702.8134                   22619701.9694
  -5153316.29347  -4006178.53944  23756509.0634                   23756511.5634
 -19326654.85948 -15048404.04346  20316107.0234                   20316105.8324
  -9500466.16847  -7393819.06245  22774882.2584                   22774883.1484
 -18688585.73848 -14552389.41046  20750648.9694                   20750645.8714
 11  8  1  0 51  0.0000000  0  9G09G28G10G17G12G05G04G27G02
  -7046059.94147  -5480349.93045  22389516.4144                   22389516.4184
   -682153.62946   -524281.55144  23529041.6564                   23529041.5664
 -15646189.76648 -12182823.71546  21335102.5164                   21335101.8204
  -8758233.59048  -6814212.17645  22195121.1334                   22195119.5394
 -10058839.90647  -7829355.10545  22606333.5314                   22606332.3954
  -5241219.80946  -4074674.59444  23739780.9144                   23739784.4384
 -19256774.63348 -14993951.92246  20329404.7974                   20329403.3324
  -9436559.10247  -7344021.41845  22787043.3444                   22787044.0204
 -18703582.57048 -14564075.23046  20747794.9774                   20747791.7584
 11  8  1  0 51 30.0000000  0  9G09G28G10G17G12G05G04G27G02
  -6977667.57447  -5427057.23845  22402531.1094                   22402531.0004
   -569646.18446   -436613.52743  23550450.2424                   23550451.4024
 -15685880.51647 -12213751.51646  21327550.1484                   21327548.8954
  -8697663.66847  -6767014.84045  22206647.5164                   22206645.9574
 -10128852.23847  -7883910.09045  22593010.3984                   22593009.2894
  -5329061.93747  -4143122.73844  23723065.1954                   23723068.2544
 -19186485.92648 -14939181.50046  20342780.1414                   20342779.0354
  -9372291.28147  -7293942.66445  22799273.1804                   22799274.4454
 -18718169.06248 -14575441.30146  20745019.2034                   20745016.1684
 11  8  1  0 52  0.0000000  0  9G09G28G10G17G12G05G04G27G02
  -6908753.94147  -5373358.36745  22415645.2114                   22415644.7234
   -456828.71546   -348703.92243  23571919.6024                   23571920.2074
 -15725040.96547 -12244266.10546  21320097.5944                   21320096.8954
  -8636932.23447  -6719691.66045  22218204.3834                   22218202.8094
 -10198605.65647  -7938263.33245  22579737.0004                   22579735.2504
  -5416828.58247  -4211512.13344  23706363.7114                   23706366.9414
 -19115779.52748 -14884085.60546  20356235.2274                   20356233.7704
  -9307653.96947  -7243575.98444  22811573.5554                   22811574.4264
 -18732334.04348 -14586478.91446  20742324.1254                   20742320.9344
 11  8  1  0 52 30.0000000  0  9G09G28G10G17G12G05G04G27G02
  -6839330.54747  -5319262.28145  22428855.8594                   22428856.0864
   -343711.68046   -260560.86343  23593445.0084                   23593445.2704
 -15763676.92647 -12274372.00046  21312745.6334                   21312745.0824
  -8576047.21147  -6672248.80145  22229790.4614                   22229788.6724
 -10268106.02047  -7992419.39545  22566511.4304                   22566510.0274
  -5504525.69947  -4279847.32844  23689675.1484                   23689677.8874
 -19044666.50848 -14828672.86346  20369767.5164                   20369766.7814
  -9242658.02747  -7192929.85945  22823941.6884                   22823942.7154
 -18746086.56648 -14597195.14546  20739706.7584                   20739703.7774
 11  8  1  0 53  0.0000000  0  9G09G28G10G17G12G05G04G27G02
  -6769400.96947  -5264771.77045  22442162.9774                   22442163.4494
   -230297.25046   -172186.08643  23615027.3054                   23615026.8484
 -15801786.63348 -12304067.81646  21305493.4384                   21305492.9964
  -8515009.32447  -6624686.82045  22241405.5004                   22241403.3834
 -10337351.71947  -8046377.01645  22553334.4534                   22553332.8674
  -5592151.18747  -4348126.73044  23673001.0634                   23673003.4224
 -18973149.84048 -14772945.59446  20383376.7584                   20383375.2974
  -9177306.68047  -7142006.78544  22836377.7664                   22836378.8634
 -18759427.74248 -14607590.83647  20737168.1094                   20737164.6524
 11  8  1  0 53 30.0000000  0  9G09G28G10G17G12G05G04G27G02
  -6698971.18447  -5209891.47745  22455565.5784                   22455565.4304
   -116590.65646    -83583.60943  23636664.3984                   23636665.7974
 -15839370.43047 -12333353.85546  21298341.4384                   21298340.6994
  -8453820.94147  -6577007.57045  22253049.3594                   22253047.9344
 -10406342.88747  -8100136.31245  22540205.7424                   22540204.0744
  -5679705.20747  -4416350.43044  23656340.0234                   23656341.7464
 -18901234.97748 -14716908.03946  20397061.3134                   20397060.7384
  -9111605.45747  -7090811.09044  22848880.6174                   22848881.5944
 -18772360.87548 -14617668.57846  20734707.1334                   20734703.8284
 11  8  1  0 54  0.0000000  0  9G09G28G10G17G12G05G04G27G02
  -6628041.94547  -5154622.00445  22469062.6414                   22469063.1454
     -2591.16446      5247.06343  23658357.9534                   23658359.5164
 -15876423.08647 -12362226.00046  21291290.8524                   21291289.7344
  -8392479.12547  -6529208.77745  22264722.1094                   22264720.8914
 -10475075.06247  -8153693.80545  22527126.1334                   22527124.8244
  -5767182.61747  -4484514.44144  23639692.6334                   23639695.1884
 -18828921.91048 -14660560.20346  20410822.5554                   20410821.1054
  -9045554.44947  -7039342.83244  22861449.4774                   22861450.7344
 -18784883.90248 -14627426.75446  20732323.8364                   20732320.4534
 11  8  1  0 54 30.0000000  0  9G09G28G10G17G12G05G04G27G02
  -6556618.43447  -5098967.37545  22482654.3754                   22482654.3914
    111696.85546     94302.55143  23680106.4304                   23680106.8054
 -15912944.69947 -12390684.34846  21284340.6174                   21284340.1684
  -8330985.64147  -6481291.78945  22276424.0554                   22276422.4804
 -10543548.62547  -8207049.78545  22514096.2584                   22514094.7194
  -5854582.92247  -4552618.36344  23623061.2194                   23623063.3324
 -18756215.67248 -14603905.99646  20424657.8984                   20424656.9344
  -8979158.65647  -6987605.89844  22874084.1724                   22874084.7304
 -18796999.87948 -14636867.75846  20730018.4304                   20730014.8484
 11  8  1  0 55  0.0000000  0  9G09G28G10G17G12G05G04G27G02
  -6484702.16047  -5042928.78145  22496339.4924                   22496340.0984
    226273.23846    183582.72743  23701909.5554                   23701910.0704
 -15948931.18448 -12418725.71946  21277492.5084                   21277491.6954
  -8269338.95748  -6433255.42645  22288155.0314                   22288153.4144
 -10611759.09847  -8260200.76245  22501116.7584                   22501114.9304
  -5941901.93747  -4620658.91444  23606444.3134                   23606446.7344
 -18683116.89848 -14546945.91046  20438568.3204                   20438567.3954
  -8912419.02347  -6935601.04344  22886784.2974                   22886785.3794
 -18808707.65648 -14645990.68446  20727790.8984                   20727787.0084
 11  8  1  0 55 30.0000000  0  9G09G28G10G17G12G05G04G27G02
  -6412291.51247  -4986504.96545  22510119.0864                   22510119.7424
    341140.68846    273089.76643  23723768.1094                   23723769.2734
 -15984375.37948 -12446344.52046  21270748.0314                   21270746.7974
  -8207533.89148  -6385095.65645  22299915.8444                   22299915.0594
 -10679699.50047  -8313141.30945  22488187.9064                   22488185.9924
  -6029132.31647  -4688630.43444  23589845.1414                   23589847.6804
 -18609623.47748 -14489678.31646  20452553.5474                   20452552.0124
  -8845333.43747  -6883326.60544  22899550.2974                   22899551.1054
 -18820002.84448 -14654792.10546  20725641.0394                   20725637.3364
 11  8  1  0 56  0.0000000  0  9G09G28G10G17G12G05G04G27G02
  -6339390.37147  -4929698.93045  22523991.5704                   22523991.8754
    456296.43046    362821.39843  23745681.4844                   23745683.0354
 -16019275.56248 -12473539.41846  21264106.5554                   21264106.0474
  -8145570.78947  -6336812.73445  22311707.4844                   22311705.7704
 -10747368.05147  -8365870.02345  22475310.4454                   22475308.7664
  -6116272.23447  -4756531.42244  23573262.8134                   23573264.7624
 -18535738.66848 -14432105.74646  20466613.3524                   20466612.0664
  -8777905.16447  -6830785.16844  22912381.6954                   22912382.4384
 -18830886.69948 -14663273.00846  20723569.9304                   20723566.4454
 11  8  1  0 56 30.0000000  0  9G09G28G10G17G12G05G04G27G02
  -6266006.17247  -4872516.50445  22537956.3754                   22537956.5744
    571734.06646    452772.65243  23767648.8674                   23767650.5704
 -16053633.80948 -12500312.02746  21257568.1094                   21257567.5394
  -8083453.62547  -6288409.76245  22323527.7814                   22323526.5434
 -10814766.91047  -8418388.58245  22462485.2114                   22462483.3714
  -6203323.18047  -4824363.10244  23556697.2034                   23556699.6254
 -18461469.29748 -14374233.51646  20480746.4224                   20480745.1954
  -8710141.26247  -6777982.18044  22925276.9774                   22925277.8834
 -18841364.37148 -14671437.40646  20721575.7974                   20721572.5594
 11  8  1  0 57  0.0000000  0  9G09G28G10G17G12G05G04G27G02
  -6192140.28547  -4814958.72344  22552012.5554                   22552012.9184
    687453.54746    542943.56643  23789669.8204                   23789671.4304
 -16087445.57448 -12526658.80146  21251134.3364                   21251133.1764
  -8021179.73447  -6239884.67245  22335378.2894                   22335376.9494
 -10881891.60247  -8470693.50045  22449711.7734                   22449709.5474
  -6290280.48447  -4892121.82444  23540150.2974                   23540152.1334
 -18386816.25448 -14316062.31246  20494952.2344                   20494951.2154
  -8642042.39847  -6724918.19544  22938236.0634                   22938236.7074
 -18851434.64148 -14679284.35246  20719659.7424                   20719656.2074
 11  8  1  0 57 30.0000000  0  9G09G28G10G17G12G05G04G27G02
  -6117794.64547  -4757027.10945  22566160.1954                   22566160.7464
    803454.18046    633333.54743  23811743.8834                   23811745.6564
 -16120707.14548 -12552576.85246  21244804.9774                   21244804.0864
  -7958747.98847  -6191236.56645  22347258.6174                   22347257.2814
 -10948738.21147  -8522781.75845  22436991.3834                   22436989.5394
  -6377140.16847  -4959804.48444  23523620.7734                   23523622.7934
 -18311780.15648 -14257592.63346  20509231.3204                   20509230.3954
  -8573609.87147  -6671594.21544  22951257.9774                   22951258.8484
 -18861096.26648 -14686812.87546  20717821.0164                   20717817.6564
 11  8  1  0 58  0.0000000  0  9G09G28G10G17G12G05G04G27G02
  -6042977.71147  -4698728.26245  22580396.9304                   22580397.9494
    919728.20746    723936.59843  23833870.0474                   23833871.6804
 -16153421.91048 -12578068.83246  21238579.2894                   21238578.3714
  -7896163.64147  -6142469.55145  22359168.0004                   22359166.7344
 -11015310.51647  -8574656.26245  22424322.5474                   22424321.7034
  -6463904.99647  -5027413.23044  23507109.7974                   23507112.1334
 -18236369.37948 -14198831.00046  20523581.4534                   20523580.0394
  -8504852.02747  -6618016.73444  22964342.2114                   22964343.3164
 -18870355.50848 -14694027.84046  20716059.1804                   20716055.7894
 11  8  1  0 58 30.0000000  0  9G09G28G10G17G12G05G04G27G02
  -5967691.61747  -4640063.83245  22594723.3674                   22594724.2234
   1036274.98046    814752.15243  23856048.1644                   23856050.6684
 -16185586.58648 -12603132.15646  21232458.3054                   21232457.4734
  -7833424.77047  -6093582.12145  22371106.7894                   22371105.5514
 -11081604.96947  -8626314.25045  22411707.0944                   22411706.1804
  -6550571.41447  -5094945.26644  23490617.4534                   23490619.6684
 -18160585.55148 -14139778.66846  20538002.5234                   20538001.3834
  -8435770.32447  -6564186.89544  22977488.1094                   22977489.1374
 -18879212.21148 -14700929.14846  20714374.0394                   20714370.2154
 11  8  1  0 59  0.0000000  0  9G09G28G10G17G12G05G04G27G02
  -5891939.66047  -4581036.39145  22609139.0944                   22609138.9654
   1153092.53146    905778.70343  23878278.1804                   23878279.9734
 -16217198.94948 -12627765.11346  21226442.8914                   21226441.9884
  -7770531.37547  -6044574.28945  22383075.3444                   22383073.8164
 -11147619.05947  -8677753.79345  22399145.1804                   22399144.0084
  -6637136.50047  -5162398.35945  23474144.7344                   23474146.7584
 -18084430.93448 -14080437.41846  20552494.3134                   20552492.9924
  -8366367.41447  -6510106.77344  22990695.1334                   22990696.0824
 -18887666.69148 -14707517.04346  20712764.8364                   20712761.2624
 11  8  1  0 59 30.0000000  0  9G09G28G10G17G12G05G04G27G02
  -5815723.94947  -4521647.58645  22623642.5554                   22623642.3054
   1270179.76646    997015.40643  23900559.8834                   23900560.9804
 -16248255.25448 -12651964.78146  21220533.1094                   21220532.0314
  -7707482.02747  -5995444.92245  22395072.8444                   22395071.3094
 -11213348.88747  -8728971.82045  22386637.5164                   22386635.3834
  -6723596.34447  -5229769.43044  23457691.8054                   23457693.9534
 -18007907.00048 -14020808.39146  20567056.4924                   20567055.1214
  -8296644.85947  -6455777.57444  23003963.5084                   23003964.5354
 -18895718.69948 -14713791.32847  20711232.6414                   20711229.0234
 11  8  1  1  0  0.0000000  0  9G09G28G10G17G12G05G04G27G02
  -5739044.31647  -4461897.27045  22638234.0554                   22638234.4184
   1387537.65646   1088463.00843  23922891.6724                   23922893.1174
 -16278750.42648 -12675727.20346  21214730.0864                   21214729.0984
  -7644272.99647  -5946191.12545  22407100.9694                   22407100.0314
 -11278789.15247  -8779964.22745  22374184.4534                   22374182.9304
  -6809945.00847  -5297053.85544  23441259.5394                   23441261.7384
 -17931013.02048 -13960891.01246  20581688.7194                   20581687.6724
  -8226602.08247  -6401198.84044  23017292.0234                   23017292.8954
 -18903365.53148 -14719749.88346  20709777.5084                   20709774.0314
 11  8  1  1  0 30.0000000  0  9G09G28G10G17G12G05G04G27G02
  -5661912.50847  -4401794.62145  22652911.6334                   22652912.2234
   1505156.15246   1180113.71543  23945274.1094                   23945275.1094
 -16308690.23848 -12699056.88346  21209032.5704                   21209031.5904
  -7580912.41447  -5896819.23045  22419158.2974                   22419157.0984
 -11343945.77347  -8830735.60245  22361785.6884                   22361784.0824
  -6896188.35247  -5364256.21544  23424848.3524                   23424850.3754
 -17853760.07048 -13900693.91846  20596389.8204                   20596388.3404
  -8156250.18747  -6346379.25845  23030679.2584                   23030679.7814
 -18910616.19948 -14725399.73446  20708397.7034                   20708394.2194
 11  8  1  1  1  0.0000000  0  9G09G28G10G17G12G05G04G27G02
  -5584322.56647  -4341334.99645  22667676.4924                   22667677.1914
   1623042.11346   1271972.81642  23967706.7034                   23967707.7974
 -16338063.30948 -12721944.94146  21203443.0004                   21203441.7544
  -7517390.25847  -5847321.44145  22431246.0234                   22431244.7424
 -11408807.40247  -8881277.12945  22349442.7664                   22349441.0904
  -6982314.41847  -5431367.17244  23408458.9774                   23408460.2974
 -17776141.18448 -13840211.68746  20611159.8754                   20611158.6724
  -8085582.75047  -6291313.80144  23044126.8674                   23044127.9654
 -18917462.29748 -14730734.32847  20707094.7584                   20707091.3554
 11  8  1  1  1 30.0000000  0  9G09G28G10G17G12G05G04G27G02
  -5506280.00847  -4280522.64844  22682527.5704                   22682528.2894
   1741191.25046   1364036.98842  23990189.5394                   23990191.0084
 -16366869.50048 -12744391.28146  21197961.2734                   21197959.8554
  -7453709.06247  -5797699.71145  22443364.1484                   22443363.1334
 -11473373.60947  -8931588.44545  22337156.6024                   22337154.2074
  -7068322.52347  -5498386.22744  23392092.1884                   23392093.3914
 -17698161.31248 -13779448.16446  20625998.7734                   20625998.0084
  -8014604.62147  -6236006.25044  23057634.1954                   23057634.8674
 -18923906.43448 -14735755.72346  20705868.6724                   20705865.4774
 11  8  1  1  2  0.0000000  0  9G09G28G10G17G12G05G04G27G02
  -5427792.43047  -4219363.54745  22697463.4454                   22697463.7704
   1859597.51646   1456301.53143  24012721.8674                   24012722.6374
 -16395111.04748 -12766397.63746  21192586.7974                   21192586.0314
  -7389872.39847  -5747956.86345  22455511.9454                   22455510.4774
 -11537645.96547  -8981670.78545  22324925.6334                   22324923.4774
  -7154214.24247  -5565314.59044  23375747.0234                   23375748.8444
 -17619827.06248 -13718408.50446  20640905.6174                   20640904.8054
  -7943322.70747  -6180461.99244  23071197.7194                   23071198.9024
 -18929953.46948 -14740467.68046  20704717.9924                   20704714.2194
 11  8  1  1  2 30.0000000  0  9G09G28G10G17G12G05G04G27G02
  -5348852.02047  -4157851.58644  22712485.3674                   22712485.7234
   1978269.32846   1548772.96543  24035303.9384                   24035306.0514
 -16422775.18048 -12787954.05546  21187322.5944                   21187321.7034
  -7325868.97347  -5698084.06245  22467691.2194                   22467690.2384
 -11601611.75047  -9031514.23445  22312753.3134                   22312751.4964
  -7239976.04747  -5632141.72744  23359426.2194                   23359428.0314
 -17541130.32048 -13657086.38346  20655881.1564                   20655879.9614
  -7871729.09847  -6124674.83644  23084822.4924                   23084822.5984
 -18935593.64148 -14744862.59846  20703644.5004                   20703640.8324
 11  8  1  1  3  0.0000000  0  9G09G28G10G17G12G05G04G27G02
  -5269470.26247  -4095995.72345  22727591.5944                   22727591.2234
   2097196.66046   1641443.51243  24057935.6884                   24057938.1604
 -16449867.61748 -12809064.99646  21182167.2894                   21182166.1414
  -7261706.54347  -5648087.35945  22479900.6644                   22479899.9694
 -11665276.45347  -9081123.07045  22300638.5314                   22300636.6604
  -7325612.94947  -5698871.53144  23343130.4844                   23343131.8164
 -17462081.51648 -13595489.92646  20670923.3594                   20670922.1684
  -7799834.48847  -6068653.13344  23098503.4384                   23098504.2114
 -18940835.32848 -14748947.00846  20702646.9224                   20702643.4184
 11  8  1  1  3 30.0000000  0  9G09G28G10G17G12G05G04G27G02
  -5189653.05147  -4033800.52744  22742780.0084                   22742780.2934
   2216374.95346   1734309.66043  24080614.0314                   24080615.8754
 -16476388.69148 -12829730.71946  21177120.3674                   21177119.0434
  -7197387.23447  -5597968.42245  22492140.5084                   22492139.6054
 -11728639.78547  -9130497.05945  22288580.6804                   22288578.9694
  -7411125.07047  -5765504.12544  23326857.8134                   23326859.0044
 -17382685.71948 -13533623.07846  20686032.2344                   20686030.6844
  -7727644.07447  -6012400.95344  23112240.7974                   23112241.8324
 -18945681.91048 -14752723.55146  20701724.7894                   20701720.8444
 11  8  1  1  4  0.0000000  0  9G09G28G10G17G12G05G04G27G02
  -5109401.61347  -3971266.99245  22758051.4064                   22758051.9184
   2335803.98046   1827371.13343  24103341.4144                   24103342.4844
 -16502334.36748 -12849948.07846  21172183.0164                   21172181.3244
  -7132908.31247  -5547725.10545  22504410.8674                   22504410.1804
 -11791697.87547  -9179633.19546  22276581.2584                   22276579.7194
  -7496507.49247  -5832035.64144  23310609.4844                   23310610.7154
 -17302943.43748 -13471486.23446  20701206.5164                   20701205.5704
  -7655158.66047  -5955918.89144  23126034.4064                   23126035.4574
 -18950132.18448 -14756191.28146  20700878.0394                   20700874.5864
 11  8  1  1  4 30.0000000  0  9G09G28G10G17G12G05G04G27G02
  -5028712.84447  -3908392.67244  22773405.9144                   22773406.6844
   2455488.12546   1920631.43044  24126116.1804                   24126118.5124
 -16527696.19548 -12869710.50046  21167356.5944                   21167355.1914
  -7068263.26247  -5497352.34445  22516712.2664                   22516711.2814
 -11854441.62947  -9228524.39545  22264640.9694                   22264639.6334
  -7581750.96947  -5898458.92645  23294388.4224                   23294389.3014
 -17222850.66048 -13409076.28946  20716447.8674                   20716446.5164
  -7582374.51647  -5899204.05144  23139884.5784                   23139885.3204
 -18954180.27048 -14759345.62146  20700107.5554                   20700103.9384
 11  8  1  1  5  0.0000000  0  9G09G28G10G17G12G05G04G27G02
  -4947603.51647  -3845190.64545  22788840.3204                   22788840.7424
   2575411.89146   2014078.42643  24148937.3134                   24148939.4064
 -16552485.56248 -12889026.84046  21162639.3284                   21162637.9384
  -7003465.36747  -5446860.48445  22529042.9384                   22529042.0664
 -11916881.77747  -9277179.00845  22252759.5234                   22252757.8794
  -7666866.36747  -5964782.38345  23278191.3524                   23278192.5164
 -17142423.29748 -13346405.63746  20731752.4844                   20731751.4104
  -7509307.86747  -5842269.07444  23153789.1174                   23153790.1524
 -18957840.31248 -14762197.58646  20699410.9454                   20699407.2274
 11  8  1  1  5 30.0000000  0  9G09G28G10G17G12G05G04G27G02
  -4866069.45347  -3781657.66045  22804355.8134                   22804356.1294
   2695580.79346   2107716.43043  24171804.4924                   24171806.7504
 -16576692.59848 -12907889.41846  21158032.9064                   21158031.2624
  -6938506.52747  -5396243.23045  22541404.2814                   22541402.8874
 -11979008.93047  -9325589.74245  22240937.2274                   22240935.3054
  -7751843.12547  -6030997.82445  23262020.3054                   23262022.4304
 -17061656.46948 -13283470.44946  20747121.8834                   20747120.8984
  -7435953.97747  -5785110.28144  23167747.4924                   23167749.1334
 -18961105.42648 -14764741.82447  20698789.4924                   20698786.2424
 11  8  1  1  6  0.0000000  0  9G09G28G10G17G12G05G04G27G02
  -4784115.86747  -3717797.78545  22819951.2424                   22819951.4344
   2815990.62946   2201542.19543  24194718.1954                   24194719.7584
 -16600317.08648 -12926298.05946  21153536.9454                   21153536.0514
  -6873387.61347  -5345501.23845  22553795.9694                   22553794.4734
 -12040822.23447  -9373755.90645  22229174.3754                   22229172.4024
  -7836680.41847  -6097104.59845  23245876.1094                   23245877.6254
 -16980554.52348 -13220274.13346  20762554.9534                   20762554.2734
  -7362317.28547  -5727731.13744  23181760.3524                   23181761.5904
 -18963978.36348 -14766980.45746  20698242.9924                   20698239.8284
 11  8  1  1  6 30.0000000  0  9G09G28G10G17G12G05G04G27G02
  -4701744.19547  -3653612.11745  22835626.1174                   22835626.6684
   2936641.07046   2295555.40643  24217677.3134                   24217678.7304
 -16623355.51648 -12944250.03146  21149153.3284                   21149152.0234
  -6808107.37947  -5294633.53545  22566218.6884                   22566217.0824
 -12102317.17247  -9421673.98846  22217471.6724                   22217470.5784
  -7921373.73447  -6163099.19145  23229759.3134                   23229761.2344
 -16899118.10948 -13156817.18446  20778051.9534                   20778051.0514
  -7288398.82847  -5670132.41844  23195826.3524                   23195828.1454
 -18966457.95748 -14768912.57846  20697770.9304                   20697767.2664
 11  8  1  1  7  0.0000000  0  9G09G28G10G17G12G05G04G27G02
  -4618951.56647  -3589098.43044  22851380.8444                   22851380.9734
   3057536.44946   2389759.56342  24240682.8284                   24240683.9734
 -16645799.68448 -12961738.95346  21144882.1174                   21144881.3204
  -6742658.68047  -5243634.55145  22578672.5784                   22578671.6844
 -12163485.60548  -9469337.65246  22205831.7974                   22205830.3914
  -8005913.84047  -6228974.40245  23213672.3284                   23213672.9384
 -16817343.48048 -13093096.69146  20793613.1254                   20793612.3484
  -7214195.14847  -5612311.45344  23209947.2344                   23209948.3914
 -18968539.04748 -14770534.18446  20697375.1094                   20697371.6484
 11  8  1  1  7 30.0000000  0  9G09G28G10G17G12G05G04G27G02
  -4535748.45347  -3524264.89544  22867214.5164                   22867215.0354
   3178667.46145   2484147.17242  24263732.8754                   24263734.3874
 -16667654.30948 -12978768.47746  21140723.3754                   21140721.9804
  -6677048.18747  -5192509.51245  22591158.3134                   22591156.6914
 -12224332.02747  -9516750.39546  22194253.4844                   22194251.2154
  -8090304.96147  -6294733.52345  23197612.8754                   23197614.0634
 -16735240.03948 -13029119.98446  20809236.9534                   20809235.8244
  -7139716.08647  -5554275.87544  23224119.9614                   23224121.2384
 -18970229.24248 -14771851.20746  20697053.3984                   20697049.8834
 11  8  1  1  8  0.0000000  0  9G09G28G10G17G12G05G04G27G02
  -4452138.34447  -3459114.23445  22883125.1484                   22883125.0744
   3300031.84846   2578716.74642  24286828.3914                   24286829.9104
 -16688917.84448 -12995337.42246  21136677.1334                   21136676.0434
  -6611275.51647  -5141258.09445  22603673.7274                   22603672.5664
 -12284853.61747  -9563910.02046  22182736.4144                   22182734.6134
  -8174544.68047  -6360374.68445  23181582.5554                   23181583.9414
 -16652810.65248 -12964889.28546  20824922.5634                   20824922.1024
  -7064964.35947  -5496027.85944  23238345.2664                   23238346.2814
 -18971529.32848 -14772864.24647  20696806.1954                   20696802.7624
 11  8  1  1  8 30.0000000  0  9G09G28G10G17G12G05G04G27G02
  -4368120.95347  -3393646.19545  22899112.7814                   22899113.5234
   3421630.77745   2673469.02342  24309967.3834                   24309969.6094
 -16709584.83648 -13011441.52746  21132744.3984                   21132743.1174
  -6545336.62147  -5089877.14545  22616221.4144                   22616220.6294
 -12345044.84047  -9610812.23046  22171282.4534                   22171280.6994
  -8258626.36347  -6425892.69545  23165582.3364                   23165583.1604
 -16570054.10248 -12900403.65646  20840671.0394                   20840669.6484
  -6989939.33647  -5437566.86344  23252621.7114                   23252623.1524
 -18972436.73448 -14773571.30147  20696633.1024                   20696629.8554
 11  8  1  1  9  0.0000000  0  8G09G10G17G12G05G04G27G02
  -4283703.58647  -3327866.49244  22915177.0394                   22915177.7974
 -16729657.11348 -13027082.21146  21128924.7034                   21128923.0314
  -6479235.14147  -5038369.50045  22628800.7504                   22628799.2814
 -12404907.16847  -9657458.16046  22159890.9774                   22159889.5044
  -8342551.12547  -6491288.43045  23149611.4774                   23149612.7424
 -16486976.80548 -12835668.09446  20856480.0554                   20856478.6334
  -6914647.59447  -5378898.03544  23266949.5084                   23266950.3204
 -18972955.91448 -14773975.84046  20696534.6954                   20696531.0474
 11  8  1  1  9 30.0000000  0  8G09G10G17G12G05G04G27G02
  -4198881.82047  -3261771.65245  22931317.7974                   22931318.5084
 -16749125.13748 -13042252.07046  21125219.9304                   21125218.6334
  -6412963.15647  -4986729.00445  22641411.4304                   22641410.2584
 -12464430.43747  -9703839.88746  22148564.0314                   22148562.8054
  -8426308.54747  -6556553.77745  23133672.4224                   23133673.9024
 -16403573.55548 -12770678.53146  20872351.2274                   20872350.0314
  -6839084.51647  -5320017.76644  23281328.4384                   23281329.8834
 -18973080.36348 -14774072.80146  20696511.0474                   20696507.6214
 11  8  1  1 10  0.0000000  0  8G09G10G17G12G05G04G27G02
  -4113663.53547  -3195367.85245  22947534.3754                   22947535.2584
 -16767991.21548 -13056952.87146  21121629.3754                   21121627.9774
  -6346524.12947  -4934958.33245  22654054.7194                   22654053.2194
 -12523616.14547  -9749958.57445  22137301.1644                   22137299.3794
  -8509899.93047  -6621689.74245  23117765.4454                   23117766.8874
 -16319850.90248 -12705440.09046  20888282.8914                   20888281.5984
  -6763256.87947  -5260931.37144  23295758.2814                   23295759.3714
 -18972814.53148 -14773865.62947  20696561.5634                   20696557.7854
 11  8  1  1 10 30.0000000  0  8G09G10G17G12G05G04G27G02
  -4028047.90247  -3128654.43044  22963826.4844                   22963827.4064
 -16786249.31248 -13071179.92246  21118155.5004                   21118154.1024
  -6279913.10247  -4883053.62945  22666729.9534                   22666728.4184
 -12582457.59847  -9795809.01646  22126103.9144                   22126102.5204
  -8593318.10547  -6686690.72345  23101891.8284                   23101892.5274
 -16235807.04348 -12639951.36346  20904276.0164                   20904274.6884
  -6687163.24647  -5201637.69944  23310238.6804                   23310239.5664
 -18972155.16448 -14773351.81646  20696687.2034                   20696683.5434
 11  8  1  1 11  0.0000000  0  8G09G10G17G12G05G04G27G02
  -3942038.79347  -3061634.43044  22980194.2974                   22980194.4104
 -16803898.14548 -13084932.21546  21114796.5944                   21114795.5824
  -6213130.96147  -4831015.59845  22679437.8134                   22679436.8244
 -12640953.23047  -9841389.99645  22114972.7424                   22114970.8794
  -8676561.07447  -6751555.19945  23086051.3444                   23086052.4104
 -16151445.21948 -12574214.86746  20920329.2974                   20920328.3014
  -6610807.15647  -5142139.52744  23324768.3914                   23324769.8484
 -18971103.82848 -14772532.56646  20696887.0164                   20696883.7854
 11  8  1  1 11 30.0000000  0  8G09G10G17G12G05G04G27G02
  -3855642.53947  -2994312.74644  22996634.6884                   22996634.8364
 -16820938.91048 -13098210.69946  21111553.9384                   21111552.7384
  -6146179.84447  -4778845.89845  22692178.6254                   22692177.3594
 -12699103.26647  -9886701.68446  22103907.0084                   22103905.5234
  -8759628.79747  -6816283.11345  23070243.1804                   23070244.6604
 -16066770.58648 -12508234.62546  20936442.3984                   20936441.1954
  -6534194.26247  -5082441.23844  23339347.4534                   23339348.9024
 -18969664.17648 -14771410.74647  20697160.9844                   20697157.5044
 11  8  1  1 12  0.0000000  0  8G09G10G17G12G05G04G27G02
  -3768860.19147  -2926690.21544  23013148.4144                   23013149.4804
 -16837367.36748 -13111012.05146  21108427.4844                   21108426.3794
  -6079056.72747  -4726542.16445  22704951.5704                   22704950.0164
 -12756902.83247  -9931740.28946  22092907.9304                   22092906.7114
  -8842515.96947  -6880870.34845  23054470.8204                   23054471.5394
 -15981783.55148 -12442010.95746  20952615.3914                   20952613.8954
  -6457324.87547  -5022543.10244  23353975.0474                   23353976.7544
 -18967834.70348 -14769985.16846  20697509.3054                   20697505.6884
 11  8  1  1 12 30.0000000  0  8G09G10G17G12G05G04G27G02
  -3681697.21947  -2858771.09044  23029735.3914                   23029735.9964
 -16853183.76648 -13123336.48846  21105417.6564                   21105416.9024
  -6011763.34447  -4674105.74645  22717758.1024                   22717756.0634
 -12814351.51247  -9976505.47346  22081975.8524                   22081974.2034
  -8925221.98447  -6945316.41045  23038732.4384                   23038733.1254
 -15896488.04348 -12375546.90646  20968845.9844                   20968845.2274
  -6380203.73047  -4962448.77744  23368651.1884                   23368652.1254
 -18965618.11348 -14768257.93747  20697931.0164                   20697927.1764
 11  8  1  1 13  0.0000000  0  8G09G10G17G12G05G04G27G02
  -3594161.20747  -2790561.28145  23046392.6954                   23046393.8794
 -16868390.60248 -13135185.93746  21102524.0784                   21102522.8014
  -5944303.51647  -4621539.64145  22730595.2584                   22730593.5354
 -12871451.37948 -10020998.84846  22071110.2424                   22071108.3134
  -9007747.79347  -7009622.06645  23023027.9064                   23023028.5594
 -15810891.23848 -12308848.09446  20985134.7424                   20985133.3364
  -6302838.04747  -4902163.90644  23383373.5394                   23383374.8984
 -18963019.59048 -14766233.08647  20698425.4774                   20698421.9654
 11  8  1  1 13 30.0000000  0  8G09G10G17G12G05G04G27G02
  -3506256.63347  -2722064.27344  23063120.7664                   23063121.0354
 -16882987.26648 -13146559.92646  21099746.1954                   21099745.4804
  -5876677.78147  -4568844.25445  22743463.6644                   22743461.9734
 -12928200.93447 -10065219.27046  22060311.1724                   22060309.8484
  -9090091.73447  -7073786.00045  23007358.1724                   23007358.5664
 -15724996.23448 -12241916.90646  21001479.8444                   21001478.7344
  -6225231.50847  -4841691.36344  23398141.0944                   23398142.8954
 -18960041.15648 -14763912.20747  20698992.2424                   20698988.2854
 11  8  1  1 14  0.0000000  0  8G09G10G17G12G05G04G27G02
  -3417991.67247  -2653286.43744  23079917.3364                   23079917.3554
 -16896976.91448 -13157460.90646  21097084.2664                   21097082.9534
  -5808890.58247  -4516023.05145  22756362.7664                   22756361.4574
 -12984602.10547 -10109168.21546  22049578.4614                   22049576.6484
  -9172255.85247  -7137809.81645  22991722.5314                   22991723.4024
 -15638810.55948 -12174759.23846  21017880.4924                   21017879.4654
  -6147391.77347  -4781037.12544  23412953.7194                   23412955.3794
 -18956688.18048 -14761299.46947  20699630.2034                   20699626.8444
 11  8  1  1 14 30.0000000  0  8G09G10G17G12G05G04G27G02
  -3329365.35247  -2584227.02344  23096781.8754                   23096782.6764
 -16910353.27748 -13167884.00846  21094539.0234                   21094537.3754
  -5740937.08247  -4463072.27045  22769294.0394                   22769292.8324
 -13040648.42248 -10152840.64546  22038913.0314                   22038911.2894
  -9254232.88347  -7201687.84845  22976122.5394                   22976123.0164
 -15552332.24648 -12107373.54346  21034336.8284                   21034335.6024
  -6069317.28547  -4720199.95344  23427810.7894                   23427812.6134
 -18952957.38748 -14758392.33646  20700339.8204                   20700336.6214
 11  8  1  1 15  0.0000000  0  8G09G10G17G12G05G04G27G02
  -3240380.18047  -2514888.00044  23113715.1724                   23113716.2624
 -16923113.91848 -13177827.31246  21092110.3364                   21092109.3554
  -5672815.72347  -4409990.67645  22782257.3284                   22782256.3134
 -13096336.49648 -10196233.93746  22028316.1954                   22028314.4804
  -9336019.14147  -7265417.21145  22960558.8364                   22960559.5434
 -15465562.53948 -12039760.77746  21050848.3364                   21050847.5314
  -5991009.88346  -4659181.30544  23442712.1564                   23442714.3754
 -18948848.46148 -14755190.54747  20701121.9224                   20701118.5864
 11  8  1  1 15 30.0000000  0  8G09G10G17G12G05G04G27G02
  -3151039.01247  -2445271.55544  23130716.6174                   23130717.6844
 -16935256.25448 -13187288.83246  21089800.1254                   21089798.2424
  -5604525.18047  -4356777.26245  22795252.2424                   22795251.0314
 -13151663.01247 -10239345.49646  22017787.9534                   22017786.0474
  -9417610.87547  -7328994.98845  22945032.6254                   22945033.6454
 -15378503.24248 -11971922.36346  21067415.5314                   21067414.0594
  -5912471.74246  -4597982.83644  23457657.7114                   23457659.6254
 -18944361.62948 -14751694.28546  20701975.7814                   20701972.0824
 11  8  1  1 16  0.0000000  0  8G09G10G17G12G05G04G27G02
  -3061349.18047  -2375383.43444  23147783.5474                   23147784.4144
 -16946782.68748 -13196270.43446  21087606.6254                   21087605.1844
  -5536069.14847  -4303434.89145  22808278.7034                   22808278.2114
 -13206629.14548 -10282176.23446  22007328.0634                   22007326.1844
  -9499009.10547  -7392422.00445  22929543.0314                   22929543.4534
 -15291160.47748 -11903863.07046  21084036.2034                   21084034.9384
  -5833709.39546  -4536609.69544  23472645.6954                   23472647.7114
 -18939501.98848 -14747907.52347  20702900.4924                   20702897.1804
 11  8  1  1 16 30.0000000  0  8G09G10G17G12G05G04G27G02
  -2971306.70747  -2305220.54344  23164918.2894                   23164919.5904
 -16957683.94548 -13204764.87146  21085532.1094                   21085530.5784
  -5467439.62947  -4249957.34845  22821338.5704                   22821337.8324
 -13261225.07848 -10324718.51246  21996938.7274                   21996936.7274
  -9580203.28947  -7455690.01645  22914092.1644                   22914092.6254
 -15203529.48448 -11835579.17246  21100711.8284                   21100710.4844
  -5754718.27047  -4475058.25844  23487677.8754                   23487678.6374
 -18934262.74248 -14743824.95347  20703897.3054                   20703893.7344
 11  8  1  1 17  0.0000000  0  8G09G10G17G12G05G04G27G02
  -2880921.89847  -2234790.88744  23182118.6254                   23182119.1294
 -16967965.97748 -13212776.78946  21083575.3524                   21083574.0164
  -5398643.06647  -4196349.63345  22834430.2974                   22834428.6294
 -13315455.55947 -10366976.00846  21986619.1954                   21986617.2544
  -9661197.76247  -7518802.41045  22898679.4064                   22898679.6914
 -15115619.27748 -11767077.72346  21117440.7894                   21117439.5274
  -5675508.22746  -4413336.27344  23502750.5784                   23502752.2774
 -18928651.35548 -14739452.41846  20704965.2894                   20704961.8364
 11  8  1  1 17 30.0000000  0  8G09G10G17G12G05G04G27G02
  -2790199.44147  -2164098.11745  23199381.8834                   23199382.9694
 -16977628.50048 -13220305.98046  21081736.9304                   21081735.1174
  -5329680.14847  -4142612.30545  22847553.8284                   22847552.5944
 -13369319.33648 -10408947.77046  21976369.1174                   21976367.1604
  -9741990.54347  -7581757.63745  22883304.7974                   22883305.0514
 -15027433.56648 -11698361.60246  21134221.6334                   21134220.5434
  -5596083.30146  -4351446.83244  23517864.4614                   23517866.4804
 -18922670.37948 -14734791.88747  20706103.3444                   20706099.8014
 11  8  1  1 18  0.0000000  0  8G09G10G17G12G05G04G27G02
  -2699145.12947  -2093146.74244  23216709.2664                   23216710.5164
 -16986671.97748 -13227352.79346  21080015.7194                   21080014.4454
  -5260552.84847  -4088746.87145  22860707.8204                   22860706.7344
 -13422816.05148 -10450633.50846  21966188.8834                   21966187.4574
  -9822581.22347  -7644555.40245  22867968.8284                   22867968.9844
 -14938977.20348 -11629434.57846  21151054.4384                   21151053.1564
  -5516448.63746  -4289393.96944  23533018.7194                   23533020.3244
 -18916322.74248 -14729845.64147  20707311.0944                   20707307.6054
 11  8  1  1 18 30.0000000  0  8G09G10G17G12G05G04G27G02
  -2607756.95347  -2021935.22744  23234099.1644                   23234101.3054
 -16995089.55148 -13233911.89546  21078413.5164                   21078412.4414
  -5191255.37147  -4034748.81645  22873895.0314                   22873893.9774
 -13475937.50047 -10492026.84446  21956080.1564                   21956078.5394
  -9902961.70747  -7707189.37545  22852672.7344                   22852673.2734
 -14850246.81648 -11560294.02746  21167939.5394                   21167938.3094
  -5436601.39546  -4227175.44544  23548213.1254                   23548215.8134
 -18909604.01248 -14724610.23847  20708589.8134                   20708585.8954
 11  8  1  1 19  0.0000000  0  8G09G10G17G12G05G04G27G02
  -2516041.61747  -1950468.79344  23251552.8524                   23251553.5904
 -17002882.89548 -13239984.58646  21076930.6644                   21076929.2854
  -5121790.26247  -3980620.15245  22887114.0394                   22887112.5984
 -13528685.21548 -10533128.95346  21946042.2894                   21946040.6054
  -9983132.19947  -7769659.70345  22837416.5004                   22837416.8094
 -14761248.30548 -11490944.55146  21184874.8984                   21184874.2034
  -5356547.80946  -4164796.15244  23563447.0084                   23563449.2194
 -18902518.72748 -14719089.21546  20709938.0784                   20709934.4024
 11  8  1  1 19 30.0000000  0  8G09G10G17G12G05G04G27G02
  -2424003.16447  -1878750.57844  23269067.2114                   23269068.0434
 -17010050.82848 -13245569.94146  21075566.8984                   21075564.9734
  -5052157.54347  -3926360.86345  22900364.2584                   22900363.1644
 -13581056.84848 -10573938.01646  21936076.8834                   21936074.8484
 -10063090.05147  -7831964.35245  22822201.2664                   22822201.0704
 -14671984.15248 -11421388.07846  21201861.6644                   21201860.5314
  -5276291.02346  -4102258.52744  23578719.9224                   23578721.6524
 -18895067.79348 -14713283.25447  20711356.0004                   20711352.3524
 11  8  1  1 20  0.0000000  0  8G09G10G17G12G05G04G27G02
  -2331643.41047  -1806781.99644  23286642.8364                   23286643.6644
 -17016590.85948 -13250666.02046  21074322.2424                   21074321.0314
  -4982354.94547  -3871969.21545  22913647.1414                   22913646.1334
 -13633048.45347 -10614450.95746  21926182.7274                   21926181.3164
 -10142831.24647  -7894100.18445  22807026.4774                   22807027.0084
 -14582455.63348 -11351625.60946  21218898.1564                   21218896.7854
  -5195832.55147  -4039563.75444  23594031.0474                   23594032.3954
 -18887250.93048 -14707192.16847  20712843.2344                   20712839.4454
 11  8  1  1 20 30.0000000  0  8G09G10G17G12G05G04G27G02
  -2238971.02047  -1734569.81244  23304277.6564                   23304278.9774
 -17022506.84448 -13255275.82446  21073196.6564                   21073194.8754
  -4912388.04747  -3817449.53945  22926961.8524                   22926960.0864
 -13684662.76248 -10654669.89146  21916360.8284                   21916359.4414
 -10222357.93447  -7956068.86745  22791893.1804                   22791893.3754
 -14492670.18748 -11281662.92646  21235983.6804                   21235982.1374
  -5115180.45747  -3976718.09044  23609378.2194                   23609379.4304
 -18879074.23848 -14700820.69147  20714399.2114                   20714395.8954
 11  8  1  1 21  0.0000000  0  8G09G10G17G12G05G04G27G02
  -2145981.40647  -1662110.44144  23321972.8204                   23321974.1334
 -17027789.14148 -13259391.85946  21072190.9144                   21072189.7274
  -4842247.71147  -3762794.70345  22940309.1644                   22940307.1174
 -13735889.30147 -10694586.66046  21906613.1724                   21906611.5234
 -10301659.19947  -8017861.89145  22776802.3834                   22776802.9224
 -14402622.02348 -11211495.53946  21253119.5634                   21253118.4224
  -5034329.43447  -3913717.41444  23624764.3444                   23624765.6294
 -18870530.37948 -14694163.10947  20716025.0944                   20716021.1564
 11  8  1  1 21 30.0000000  0  8G09G10G17G12G05G04G27G02
  -2052686.05547  -1589412.81644  23339726.7344                   23339727.6884
 -17032444.37948 -13263019.27746  21071305.1094                   21071303.4534
  -4771941.38747  -3708010.52045  22953687.8754                   22953686.3984
 -13786733.34847 -10734205.37946  21896937.5164                   21896935.8754
 -10380739.92247  -8079483.07445  22761753.6414                   22761753.9654
 -14312321.16848 -11141131.23846  21270303.0164                   21270301.8524
  -4953290.21147  -3850570.10544  23640185.2424                   23640186.7034
 -18861628.48848 -14687226.53947  20717718.7194                   20717715.6294
 11  8  1  1 22  0.0000000  0  8G09G10G17G12G05G04G27G02
  -1959086.16047  -1516477.89144  23357537.9844                   23357538.7384
 -17036469.11348 -13266155.39146  21070539.3914                   21070538.0084
  -4701466.28547  -3653094.81645  22967098.6644                   22967097.1804
 -13837190.49247 -10773522.59846  21887335.9844                   21887334.4844
 -10459595.09047  -8140928.48445  22746747.7664                   22746748.1134
 -14221767.97748 -11070570.30546  21287534.7194                   21287534.0394
  -4872063.52347  -3787276.71144  23655642.3134                   23655644.1524
 -18852367.00848 -14680009.76647  20719481.3834                   20719477.8524
 11  8  1  1 22 30.0000000  0  8G09G10G17G12G05G04G27G02
  -1865187.54747  -1443310.22744  23375406.5864                   23375407.3164
 -17039864.32848 -13268800.96546  21069893.2114                   21069891.7894
  -4630824.18747  -3598048.99645  22980541.6484                   22980539.8244
 -13887260.47347 -10812538.11746  21877807.7894                   21877806.1334
 -10538223.98847  -8202197.58245  22731785.4924                   22731785.3284
 -14130967.09048 -10999816.36346  21304813.5554                   21304812.6254
  -4790654.56246  -3723841.28544  23671135.2814                   23671135.9534
 -18842749.41448 -14672515.50847  20721311.3524                   20721307.9614
 11  8  1  1 23  0.0000000  0  8G09G10G17G12G05G04G27G02
  -1770988.60247  -1369908.52044  23393331.9694                   23393332.5204
 -17042623.58248 -13270950.98446  21069367.9844                   21069366.6024
  -4560009.87547  -3542868.98845  22994017.0474                   22994014.9024
 -13936935.83648 -10851246.13746  21868355.0554                   21868353.2384
 -10616618.62547  -8263284.16045  22716866.9144                   22716867.0704
 -14039915.74248 -10928867.25446  21322140.2814                   21322139.5204
  -4709061.00447  -3660262.03144  23686660.4534                   23686663.2664
 -18832771.84048 -14664740.73446  20723210.0314                   20723206.2934
 11  8  1  1 23 30.0000000  0  8G09G10G17G12G05G04G27G02
  -1676497.85947  -1296279.44144  23411312.6334                   23411314.1764
 -17044750.74248 -13272608.46946  21068963.6094                   21068962.0864
  -4489027.99647  -3487558.39145  23007524.4384                   23007522.4454
 -13986218.84848 -10889648.42646  21858976.7034                   21858975.1994
 -10694781.30547  -8324189.99245  22701993.2344                   22701993.2424
 -13948621.10548 -10857728.56646  21339512.9144                   21339512.0474
  -4627290.53547  -3596544.91044  23702221.3204                   23702223.0704
 -18822439.92648 -14656689.86747  20725176.1484                   20725172.7304
 11  8  1  1 24  0.0000000  0  9G09G25G10G17G12G05G04G27G02
  -1581722.44147  -1222428.53544  23429347.9614                   23429349.6294
  -1695932.82056  -1312701.79753  24775484.8594                   24775487.4734
 -17046248.16848 -13273775.24246  21068678.5004                   21068676.8554
  -4417881.31247  -3432119.39145  23021063.0004                   23021061.4414
 -14035111.17248 -10927746.27346  21849672.9304                   21849671.1764
 -10772712.67247  -8384915.57845  22687163.6484                   22687163.6524
 -13857089.50448 -10786405.23046  21356930.9064                   21356929.7854
  -4545349.82846  -3532695.15244  23717813.8054                   23717816.1684
 -18811758.53148 -14648366.66847  20727208.8364                   20727205.1254
 11  8  1  1 24 30.0000000  0  9G09G25G10G17G12G05G04G27G02
  -1486664.91847  -1148357.83244  23447436.9384                   23447438.2034
  -1778493.09446  -1377034.47343  24759773.9924                   24759776.2664
 -17047113.87948 -13274449.78146  21068513.5234                   21068512.0594
  -4346568.46947  -3376550.93045  23034633.2424                   23034631.7384
 -14083609.12948 -10965536.81246  21840443.9924                   21840442.1764
 -10850408.94147  -8445457.97745  22672377.6564                   22672378.2464
 -13765321.71948 -10714897.84846  21374393.6644                   21374392.4574
  -4463240.60246  -3468714.08644  23733438.9064                   23733440.6604
 -18800727.57848 -14639771.09047  20729308.1724                   20729304.5274
 11  8  1  1 25  0.0000000  0  9G09G25G10G17G12G05G04G27G02
  -1391328.25447  -1074069.60944  23465578.6564                   23465580.0274
  -1860920.48447  -1441263.52744  24744088.7504                   24744091.0554
 -17047346.32048 -13274630.85946  21068469.1094                   21068468.1294
  -4275088.92647  -3320852.56645  23048234.7504                   23048234.1954
 -14131710.08248 -11003018.00446  21831290.4694                   21831288.7894
 -10927866.72347  -8505814.55945  22657638.2734                   22657638.1414
 -13673319.80548 -10643208.02046  21391901.4384                   21391900.2624
  -4380965.19546  -3404603.50444  23749095.5944                   23749097.8674
 -18789347.54348 -14630903.50047  20731473.2814                   20731469.7974
 11  8  1  1 25 30.0000000  0  9G09G25G10G17G12G05G04G27G02
  -1295720.78947   -999570.36744  23483772.8984                   23483774.0944
  -1943217.53147  -1505391.05944  24728427.6724                   24728430.3134
 -17046949.25448 -13274321.40246  21068544.6174                   21068543.5204
  -4203446.33647  -3265027.16045  23061868.5084                   23061867.7544
 -14179416.52347 -11040191.78946  21822212.5634                   21822210.9144
 -11005087.97347  -8565986.81245  22642943.3054                   22642943.0164
 -13581091.15648 -10571341.52046  21409451.6334                   21409450.6334
  -4298531.60946  -3340369.67243  23764782.3754                   23764784.7194
 -18777624.40648 -14621768.56247  20733704.2114                   20733700.8954
 11  8  1  1 26  0.0000000  0  9G09G25G10G17G12G05G04G27G02
  -1199849.12547   -924865.28144  23502016.4064                   23502017.8404
  -2025384.72347  -1569417.37544  24712792.1484                   24712794.3134
 -17045924.24648 -13273522.65646  21068739.7734                   21068738.8634
  -4131643.95347  -3209077.23445  23075531.9454                   23075530.5824
 -14226728.85248 -11077058.48046  21813209.0314                   21813207.3134
 -11082072.56647  -8625974.66845  22628293.5474                   22628293.1524
 -13488640.70748 -10499302.18446  21427044.3364                   21427043.2304
  -4215945.40646  -3276016.91844  23780497.7664                   23780500.0274
 -18765561.98848 -14612369.24647  20735999.8594                   20735996.1054
 11  8  1  1 26 30.0000000  0  9G09G25G10G17G12G05G04G27G02
  -1103711.71547   -849953.09444  23520310.9454                   23520312.3674
  -2107414.91047  -1633336.92644  24697182.7114                   24697184.2344
 -17044265.54748 -13272230.11346  21069055.3914                   21069054.3444
  -4059675.90647  -3152998.23845  23089226.9304                   23089225.9184
 -14273639.71147 -11113612.33646  21804282.6024                   21804280.4264
 -11158812.89847  -8685772.19545  22613690.0314                   22613689.8484
 -13395965.98048 -10427088.09446  21444679.7894                   21444678.1054
  -4133204.64146  -3211543.73444  23796243.3914                   23796245.8134
 -18753156.58248 -14602702.66447  20738360.2894                   20738356.4384
 11  8  1  1 27  0.0000000  0  9G09G25G10G17G12G05G04G27G02
  -1007310.34447   -774835.25844  23538655.5474                   23538656.6414
  -2189303.62147  -1697146.28144  24681599.3204                   24681601.3554
 -17041970.28948 -13270441.55546  21069492.2034                   21069490.7274
  -3987539.66847  -3096788.17245  23102954.0164                   23102952.6054
 -14320144.93047 -11149850.11346  21795432.2974                   21795430.6414
 -11235304.27347  -8745375.72345  22599134.5554                   22599133.9734
 -13303067.28948 -10354699.47746  21462357.8134                   21462356.9384
  -4050310.09846  -3146950.69543  23812017.6414                   23812019.7464
 -18740407.35248 -14592768.17247  20740786.8594                   20740782.7274
 11  8  1  1 27 30.0000000  0  9G09G25G10G17G12G05G04G27G02
   -910649.15247   -699514.93044  23557050.0164                   23557051.1294
  -2271049.25847  -1760844.12544  24666043.7974                   24666045.8324
 -17039038.27748 -13268156.82046  21070050.2894                   21070048.4304
  -3915236.18447  -3040447.79745  23116713.5164                   23116711.8634
 -14366242.98047 -11185770.63346  21786660.1334                   21786658.3594
 -11311544.30147  -8804783.40645  22584626.2664                   22584625.8324
 -13209947.53148 -10282138.59846  21480077.5314                   21480076.4804
  -3967265.36746  -3082240.64544  23827820.7114                   23827822.6764
 -18727315.70348 -14582566.85547  20743277.8984                   20743274.1214
 11  8  1  1 28  0.0000000  0  9G09G25G10G17G12G05G04G27G02
  -2389154.75447  -1851597.30944  23275700.0164                   23275700.7624
  -3928078.50047  -3052035.70744  24350721.4064                   24350723.5044
 -18610894.73448 -14492979.98846  20770935.4384                   20770934.3164
  -5418188.59847  -4211579.53545  22830711.1024                   22830709.6804
 -15987358.93748 -12448977.83246  21478172.1484                   21478170.2854
 -12962958.84447 -10091599.81645  22270372.5784                   22270371.9654
 -14692032.39148 -11437009.89846  21198046.2894                   21198045.3794
  -5459496.84046  -4245018.53944  23543858.7344                   23543860.7034
 -20289308.80948 -15799704.32447  20446040.6254                   20446036.9224
 11  8  1  1 28 30.0000000  0  9G09G25G10G17G12G05G04G27G02
  -2291987.28547  -1775882.48044  23294189.8134                   23294191.4534
  -4009533.66847  -3115507.24244  24335221.2894                   24335223.1134
 -18606689.04748 -14489702.78946  20771735.9144                   20771734.1914
  -5345551.44547  -4154979.14845  22844533.3204                   22844531.9224
 -16032637.92647 -12484260.12946  21469555.4924                   21469553.8524
 -13038690.55547 -10150611.41845  22255961.1644                   22255960.5634
 -14598480.57048 -11364112.36346  21215848.6954                   21215847.7894
  -5376163.30547  -4180083.45744  23559716.8984                   23559718.9024
 -20275538.90648 -15788974.50447  20448660.7584                   20448656.9104
 11  8  1  1 29  0.0000000  0  9G09G25G10G17G12G05G04G27G02
  -2194568.48447  -1699971.83244  23312728.0704                   23312729.7584
  -4090836.78547  -3178860.32043  24319749.2894                   24319751.6454
 -18601841.85548 -14485925.70746  20772658.6414                   20772656.9774
  -5272743.33647  -4098245.52745  22858387.7344                   22858386.8554
 -16077500.71148 -12519218.11746  21461018.5704                   21461016.0084
 -13114160.88747 -10209419.33645  22241599.6724                   22241599.0084
 -14504712.68048 -11291046.46146  21233692.0704                   21233691.2194
  -5292686.46147  -4115036.71144  23575601.3134                   23575604.2664
 -20261428.21148 -15777979.13747  20451345.8054                   20451342.0514
 11  8  1  1 29 30.0000000  0  9G09G25G10G17G12G05G04G27G02
  -2096902.43447  -1623868.50844  23331313.3594                   23331315.5044
  -4171985.55547  -3242093.14143  24304307.2974                   24304308.9454
 -18596352.23048 -14481648.03546  20773702.7034                   20773701.3404
  -5199764.00447  -4041378.50845  22872275.4224                   22872274.5514
 -16121944.96947 -12553849.98846  21452560.8594                   21452559.4574
 -13189366.75047 -10268021.18445  22227288.4924                   22227288.1764
 -14410731.39148 -11217814.28146  21251576.0704                   21251575.0514
  -5209069.46146  -4049880.72343  23591513.4304                   23591515.8204
 -20246978.05148 -15766719.24647  20454095.2974                   20454091.5944
 11  8  1  1 30  0.0000000  0  9G09G25G10G17G12G05G04G27G02
  -1998986.48047  -1547570.46544  23349945.8754                   23349948.0044
  -4252971.42247  -3305198.98443  24288895.7274                   24288898.1724
 -18590213.53948 -14476864.59846  20774871.0634                   20774869.4344
  -5126607.25847  -3984373.23045  22886197.1094                   22886195.3014
 -16165962.13347 -12588149.05546  21444184.8054                   21444183.1954
 -13264299.14547 -10326409.94145  22213029.4614                   22213028.6484
 -14316532.44948 -11144412.49246  21269501.6804                   21269500.4064
  -5125308.92246  -3984612.89544  23607452.7734                   23607455.4304
 -20232183.19548 -15755190.76647  20456911.0634                   20456907.1454
 11  8  1  1 30 30.0000000  0  9G09G25G10G17G12G05G04G27G02
  -1900827.44547  -1471083.01644  23368626.0234                   23368626.7734
  -4333795.22747  -3368178.56243  24273516.4224                   24273518.0164
 -18583428.22348 -14471577.29746  20776162.0314                   20776160.7664
  -5053276.02747  -3927232.02045  22900150.9064                   22900149.4344
 -16209553.52747 -12622116.35246  21435889.8674                   21435888.1844
 -13338958.82047 -10384586.18045  22198821.3444                   22198821.4304
 -14222121.66048 -11070845.61746  21287467.5234                   21287466.1094
  -5041411.09446  -3919238.08643  23623418.0164                   23623420.3404
 -20217048.17648 -15743397.21947  20459790.8204                   20459787.2114
 11  8  1  1 31  0.0000000  0  9G09G25G10G17G12G05G04G27G02
  -1802433.41446  -1394412.45744  23387349.3284                   23387350.8444
  -4414459.39146  -3431033.74243  24258165.9844                   24258167.9734
 -18576000.46548 -14465789.39546  20777575.4304                   20777574.2584
  -4979774.29347  -3869957.94144  22914138.4774                   22914136.9304
 -16252721.81247 -12655753.94946  21427675.2424                   21427673.2194
 -13413347.45747 -10442551.21945  22184665.8524                   22184664.9804
 -14127506.04348 -10997119.13746  21305471.8914                   21305471.1414
  -4957383.59446  -3853762.22743  23639408.6724                   23639410.3754
 -20201578.92248 -15731343.23047  20462734.6884                   20462730.7664
 11  8  1  1 31 30.0000000  0  9G09G25G10G17G12G05G04G27G02
  -1703803.97746  -1317558.44144  23406118.2814                   23406119.5554
  -4494957.21146  -3493759.27743  24242847.7194                   24242849.6844
 -18567925.16848 -14459496.90646  20779112.2344                   20779110.7154
  -4906097.27347  -3812547.26245  22928158.5864                   22928156.8714
 -16295460.28547 -12689056.63346  21419542.1884                   21419540.4104
 -13487458.02047 -10500299.58245  22170562.2034                   22170562.3204
 -14032683.65248 -10923231.54746  21323516.2974                   21323514.8164
  -4873224.96947  -3788184.22744  23655423.2034                   23655425.9024
 -20185772.09848 -15719026.19947  20465742.4384                   20465738.6094
 11  8  1  1 32  0.0000000  0  9G09G25G10G17G12G05G04G27G02
  -1604947.86746  -1240527.78544  23424929.8594                   23424931.1844
  -4575291.61746  -3556357.47343  24227560.8444                   24227562.7734
 -18559206.84848 -14452703.35946  20780771.0634                   20780770.0274
  -4832249.96147  -3755003.87545  22942211.2034                   22942209.4264
 -16337771.72347 -12722026.55546  21411490.9614                   21411488.8404
 -13561292.90647 -10557833.13345  22156512.3984                   22156511.8094
 -13937661.95748 -10849188.65646  21341598.0634                   21341597.2234
  -4788943.59046  -3722510.57043  23671461.5704                   23671464.0984
 -20169634.13748 -15706451.14147  20468813.5634                   20468809.9414
 11  8  1  1 32 30.0000000  0  9G09G25G10G17G12G05G04G27G02
  -1505864.78547  -1163320.25844  23443784.2894                   23443786.0824
  -4655456.55146  -3618823.60243  24212304.8594                   24212307.2624
 -18549840.97748 -14445405.23046  20782553.5314                   20782552.2974
  -4758228.87147  -3697325.07045  22956296.8204                   22956295.0274
 -16379650.23447 -12754659.13346  21403521.1804                   21403519.2504
 -13634846.13347 -10615147.19146  22142515.9224                   22142515.1454
 -13842439.68048 -10774989.46946  21359718.3754                   21359717.2974
  -4704538.64546  -3656740.64144  23687523.1254                   23687525.9804
 -20153162.71948 -15693616.25047  20471947.6484                   20471944.0204
 11  8  1  1 33  0.0000000  0  9G09G25G10G17G12G05G04G27G02
  -1406558.85547  -1085939.12544  23462682.3594                   23462683.3324
  -4735449.85246  -3681155.95743  24197083.4534                   24197085.8554
 -18539827.40648 -14437602.39846  20784458.7034                   20784457.6024
  -4684033.58247  -3639510.54745  22970415.1564                   22970414.0164
 -16421093.91048 -12786952.87546  21395634.6884                   21395632.7854
 -13708114.75047 -10672239.49246  22128573.2114                   22128572.1374
 -13747019.15648 -10700635.80146  21377875.8594                   21377875.5474
  -4620013.34046  -3590876.92244  23703607.6254                   23703610.8404
 -20136359.52348 -15680522.83247  20475145.2034                   20475141.5234
 11  8  1  1 33 30.0000000  0  9G09G25G10G17G12G05G04G27G02
  -1307035.60247  -1008388.63344  23481620.7974                   23481622.4344
  -4815271.30146  -3743354.42244  24181893.9454                   24181896.0594
 -18529167.86348 -14429296.21546  20786487.2894                   20786485.7194
  -4609665.21147  -3581561.15244  22984567.3674                   22984565.8404
 -16462102.68048 -12818907.72346  21387831.2424                   21387829.7234
 -13781098.28147 -10729109.63345  22114685.1094                   22114684.1024
 -13651404.80948 -10626131.09446  21396070.7974                   21396069.5434
  -4535372.55946  -3524923.23844  23719714.6024                   23719717.6524
 -20119227.86748 -15667173.47347  20478405.4774                   20478401.5744
 11  8  1  1 34  0.0000000  0  9G09G25G10G17G12G05G04G27G02
  -1207299.27746   -930672.12544  23500600.2504                   23500601.8244
  -4894918.85946  -3805417.41444  24166737.5394                   24166738.8754
 -18517862.03948 -14420486.43746  20788638.5944                   20788637.0394
  -4535124.79347  -3523477.71145  22998752.3754                   22998750.9104
 -16502674.68048 -12850522.23446  21380110.5084                   21380108.6094
 -13853794.27047 -10785755.73846  22100850.8444                   22100850.1764
 -13555599.27748 -10551477.42246  21414302.6174                   21414301.1844
  -4450619.80947  -3458882.30944  23735843.1954                   23735845.4574
 -20101768.64848 -15653568.85547  20481727.9454                   20481724.5084
 11  8  1  1 34 30.0000000  0  9G09G25G10G17G12G05G04G27G02
  -1107353.91047   -852792.71944  23519618.8914                   23519620.7154
  -4974390.76246  -3867343.51644  24151614.9304                   24151616.7584
 -18505909.93048 -14411173.06246  20790912.9844                   20790911.4264
  -4460411.99247  -3465259.92644  23012969.5234                   23012968.3794
 -16542808.40648 -12881795.23046  21372473.0164                   21372471.3094
 -13926200.39547 -10842175.97345  22087072.3594                   22087072.0394
 -13459605.49648 -10476677.05945  21432569.1024                   21432567.7154
  -4365758.66046  -3392756.90643  23751991.3524                   23751993.9844
 -20083983.88348 -15639710.57847  20485112.3204                   20485108.1134
 11  8  1  1 35  0.0000000  0  9G09G25G10G17G12G05G04G27G02
  -1007206.71947   -774756.06644  23538676.2814                   23538678.1644
  -5053688.34047  -3929133.76644  24136524.4224                   24136526.5984
 -18493314.68448 -14401358.53946  20793309.9454                   20793308.3284
  -4385530.09847  -3406910.37945  23027218.7894                   23027217.1884
 -16582505.26248 -12912727.81646  21364919.2114                   21364917.4184
 -13998317.70747 -10898371.16045  22073348.5394                   22073347.7774
 -13363429.27048 -10401734.52746  21450871.0634                   21450869.8244
  -4280795.70747  -3326552.17243  23768158.8054                   23768161.7114
 -20065878.95348 -15625602.81247  20488557.3204                   20488553.7304
 11  8  1  1 35 30.0000000  0  9G09G25G10G17G12G05G04G27G02
   -906853.59447   -696558.93444  23557773.1724                   23557774.7894
  -5132801.32047  -3990780.22344  24121469.9384                   24121471.8324
 -18480068.43048 -14391036.73446  20795830.4924                   20795829.1764
  -4310471.52347  -3348423.14845  23041501.7584                   23041501.0004
 -16621755.65648 -12943312.50046  21357450.1564                   21357448.3984
 -14070135.96947 -10954333.32446  22059682.2974                   22059681.5474
 -13267065.32048 -10326645.71946  21469208.3134                   21469206.7624
  -4195726.09447  -3260264.35943  23784348.1254                   23784350.3094
 -20047446.90248 -15611240.15247  20492064.9304                   20492061.1764
 11  8  1  1 36  0.0000000  0  9G09G25G10G17G12G05G04G27G02
   -806302.07447   -618207.20344  23576907.3524                   23576908.9224
  -5211731.37547  -4052284.11744  24106450.4534                   24106452.0784
 -18466174.58248 -14380210.31646  20798474.3984                   20798472.9734
  -4235239.35247  -3289800.65644  23055818.1954                   23055817.0744
 -16660561.09448 -12973550.47346  21350065.5944                   21350064.0664
 -14141656.21947 -11010063.28546  22046072.3444                   22046071.5234
 -13170519.74248 -10251415.37946  21487580.3444                   21487578.8164
  -4110556.71946  -3193898.77343  23800554.8754                   23800557.5044
 -20028693.02048 -15596626.70747  20495633.3984                   20495629.7704
 11  8  1  1 36 30.0000000  0  9G09G25G10G17G12G05G04G27G02
   -705560.22347   -539707.16044  23596078.5704                   23596080.0554
  -5290480.59847  -4113647.14144  24091464.7424                   24091466.7974
 -18451637.30948 -14368882.52046  20801240.6254                   20801239.3404
  -4159837.96547  -3231046.31245  23070167.1954                   23070165.4224
 -16698923.91448 -13003443.54746  21342765.4064                   21342762.8914
 -14212880.63747 -11065562.72346  22032518.3834                   22032518.1334
 -13073799.32048 -10176048.80546  21505985.9064                   21505983.9964
  -4025295.26647  -3127461.45343  23816780.3444                   23816783.2894
 -20009623.24648 -15581767.12147  20499262.4534                   20499259.0944
 11  8  1  1 37  0.0000000  0  9G09G25G10G17G12G05G04G27G02
   -604634.37547   -461063.73844  23615284.2894                   23615285.6524
  -5369049.26647  -4174869.43444  24076513.4924                   24076515.8594
 -18436458.70748 -14357054.98846  20804129.2034                   20804127.6024
  -4084269.82847  -3172162.02345  23084546.8444                   23084545.6684
 -16736844.78948 -13032992.25446  21335549.5944                   21335547.3754
 -14283808.57847 -11120831.14546  22019021.0634                   22019020.5634
 -12976908.90248 -10100549.76646  21524423.3364                   21524421.8484
  -3939947.18446  -3060956.64143  23833021.3754                   23833024.0984
 -19990241.40248 -15566664.34847  20502950.6094                   20502947.1684
 11  8  1  1 37 30.0000000  0  9G09G25G10G17G12G05G04G27G02
   -503527.05147   -382278.93744  23634524.3134                   23634525.7234
  -5447433.87947  -4235948.33644  24061597.2504                   24061599.2814
 -18420637.89848 -14344727.04746  20807139.7814                   20807138.0594
  -4008533.48047  -3113146.68745  23098959.0084                   23098957.5824
 -16774320.35548 -13062193.96146  21328417.9454                   21328416.2584
 -14354436.16047 -11175865.52346  22005581.2034                   22005580.4384
 -12879849.58648 -10024919.12146  21542893.1804                   21542892.0274
  -3854514.43746  -2994385.85243  23849278.5164                   23849282.5314
 -19970547.66048 -15551318.53947  20506698.2034                   20506694.6844
 11  8  1  1 38  0.0000000  0  9G09G25G10G17G12G05G04G27G02
   -402235.95747   -303350.91844  23653799.3834                   23653800.4264
  -5525625.91047  -4296877.10944  24046717.6024                   24046719.2704
 -18404168.32048 -14331893.56646  20810273.5864                   20810272.1644
  -3932622.58647  -3053995.34045  23113404.4384                   23113402.4964
 -16811342.84048 -13091042.61746  21321372.6884                   21321370.5634
 -14424754.85547 -11230659.20346  21992199.9844                   21992199.3244
 -12782617.63748  -9949153.94945  21561395.6484                   21561394.3324
  -3768993.72746  -2927746.51643  23865553.1094                   23865555.7034
 -19950536.95348 -15535725.74647  20510505.7584                   20510502.0354
 11  8  1  1 38 30.0000000  0  9G09G25G10G17G12G05G04G27G02
   -300770.20747   -224286.81644  23673107.5864                   23673109.3164
  -5603628.68047  -4357658.46144  24031873.8364                   24031876.0554
 -18387055.47348 -14318558.84446  20813530.1884                   20813528.5554
  -3856542.59847  -2994712.21945  23127881.9844                   23127880.5704
 -16847915.59848 -13119540.84046  21314413.3364                   21314411.1454
 -14494767.96947 -11285214.77746  21978876.5864                   21978876.1054
 -12685220.91448  -9873260.39145  21579929.8834                   21579928.2624
  -3683393.82846  -2861045.44943  23881842.1334                   23881845.1334
 -19930216.49648 -15519891.57847  20514373.0474                   20514369.2034
 11  8  1  1 39  0.0000000  0  9G09G25G10G17G12G05G04G27G02
   -199127.38747   -145084.72344  23692449.7344                   23692451.1994
  -5681433.69947  -4418285.68044  24017068.5784                   24017070.7034
 -18369292.89148 -14304717.81646  20816909.9144                   20816908.5044
  -3780287.03947  -2935292.29745  23142392.6024                   23142391.4224
 -16884030.57448 -13147682.35246  21307540.9694                   21307538.4654
 -14564466.35547 -11339525.11346  21965614.1804                   21965612.9064
 -12587655.57048  -9797235.43046  21598495.8284                   21598494.8484
  -3597711.62946  -2794280.30543  23898146.6564                   23898149.8284
 -19909581.55948 -15503812.35947  20518299.3594                   20518295.7424
 11  8  1  1 39 30.0000000  0  9G09G25G10G17G12G05G04G27G02
    -97314.80147    -65750.35243  23711824.0394                   23711825.4964
  -5759042.09447  -4478759.67243  24002299.9144                   24002302.0044
 -18350884.00448 -14290373.19146  20820413.2974                   20820411.3594
  -3703859.23047  -2875738.13745  23156936.7034                   23156935.2544
 -16919688.82048 -13175467.96946  21300754.8594                   21300752.6954
 -14633850.89147 -11393590.88346  21952410.1094                   21952409.4184
 -12489927.30148  -9721083.52346  21617092.8054                   21617091.7544
  -3511953.45346  -2727455.95343  23914466.5394                   23914469.4454
 -19888636.73448 -15487491.66447  20522284.9064                   20522280.9884
 11  8  1  1 40  0.0000000  0  9G09G25G10G17G12G05G04G27G02
      4667.93847     13716.59044  23731231.4384                   23731232.9224
  -5836447.54747  -4539075.53944  23987570.0084                   23987571.5084
 -18331824.76248 -14275521.79346  20824040.1094                   20824038.2664
  -3627254.88347  -2816046.41044  23171513.6804                   23171511.8984
 -16954884.76248 -13202893.35246  21294057.6024                   21294055.6414
 -14702915.17247 -11447407.10246  21939267.6024                   21939267.0744
 -12392034.39548  -9644803.32045  21635721.1954                   21635719.8594
  -3426118.48046  -2660571.75043  23930800.5554                   23930803.2304
 -19867379.55948 -15470927.58647  20526330.5084                   20526326.2664
 11  8  1  1 40 30.0000000  0  9G09G25G10G17G12G05G04G27G02
    106807.07847     93305.41444  23750666.8524                   23750668.9844
  -5913657.96947  -4599239.41444  23972877.3054                   23972879.5704
 -18312125.34847 -14260171.55146  20827788.6724                   20827787.2624
  -3550483.95747  -2756224.89845  23186122.7894                   23186121.5354
 -16989626.77748 -13229965.02346  21287446.2814                   21287444.3094
 -14771667.06247 -11500979.90246  21926184.2814                   21926183.7304
 -12293989.56248  -9568404.74245  21654378.0474                   21654377.5124
  -3340219.87946  -2593637.99243  23947146.1564                   23947149.8754
 -19845821.66048 -15454129.18447  20530432.8674                   20530428.3984
 11  8  1  1 41  0.0000000  0  9G09G25G10G17G12G05G04G27G02
    209106.58647    173019.19144  23770134.7424                   23770136.7814
  -5990663.21547  -4659243.41844  23958223.6414                   23958224.9184
 -18291778.19148 -14244316.58246  20831660.3754                   20831658.9454
  -3473538.57047  -2696267.43744  23200764.7664                   23200763.6374
 -17023904.87548 -13256675.19146  21280923.3524                   21280921.3554
 -14840095.78547 -11554300.88746  21913162.5634                   21913161.6564
 -12195786.88348  -9491883.16045  21673065.7114                   21673064.9454
  -3254252.96146  -2526650.96143  23963505.5474                   23963509.6374
 -19823956.84048 -15437091.60947  20534593.0474                   20534589.2154
 11  8  1  1 41 30.0000000  0  9G09G25G10G17G12G05G04G27G02
    311565.10246    252856.83244  23789631.1954                   23789633.5984
  -6067458.81247  -4719084.03144  23943609.6024                   23943611.7274
 -18270780.86348 -14227954.99246  20835655.9144                   20835654.3244
  -3396416.39847  -2636172.23844  23215440.1094                   23215439.7234
 -17057714.97748 -13283020.68446  21274489.7344                   21274487.4614
 -14908196.74647 -11607366.46146  21900203.9694                   21900203.0514
 -12097426.64548  -9415238.81645  21691783.1804                   21691781.7894
  -3168218.67246  -2459611.46143  23979877.6094                   23979881.2234
 -19801783.99648 -15419814.03147  20538812.8134                   20538808.6094
 11  8  1  1 42  0.0000000  0  9G09G25G10G17G12G05G04G27G02
    414171.32447    332809.64544  23809157.4384                   23809159.0474
  -6144049.87547  -4778765.28944  23929035.2734                   23929036.9964
 -18249140.50848 -14211092.33646  20839774.1724                   20839772.5634
  -3319124.78547  -2575944.99244  23230148.9454                   23230147.0904
 -17091062.90648 -13309006.05146  21268143.5314                   21268141.5354
 -14975974.77747 -11660180.40646  21887305.8984                   21887304.7274
 -11998918.93748  -9338479.55945  21710528.5084                   21710527.3984
  -3082127.61346  -2392527.73443  23996260.9454                   23996263.7584
 -19779311.63348 -15402303.05947  20543088.7974                   20543084.8284
 11  8  1  1 42 30.0000000  0  9G09G25G10G17G12G05G04G27G02
    516928.84047    412880.29744  23828710.9224                   23828713.6294
  -6220426.98047  -4838279.83644  23914501.3594                   23914502.7274
 -18226850.75448 -14193723.66846  20844015.9774                   20844014.1024
  -3241656.18447  -2515579.84044  23244890.4144                   23244889.1884
 -17123939.27348 -13334623.96146  21261887.5394                   21261885.4414
 -15043420.32447 -11712735.27746  21874471.0944                   21874470.2274
 -11900258.34048  -9261601.16045  21729302.7894                   21729301.9924
  -2995975.54346  -2325396.46943  24012655.0164                   24012658.0124
 -19756534.65648 -15384554.72347  20547423.2114                   20547419.2544
 11  8  1  1 43  0.0000000  0  9G09G25G10G17G12G05G04G27G02
    619831.71947    493064.22344  23848293.3054                   23848295.0904
  -6296589.87147  -4897627.42644  23900007.5864                   23900009.2384
 -18203913.71548 -14175850.61346  20848380.4144                   20848378.5554
  -3164012.57047  -2455078.29344  23259665.8364                   23259664.5394
 -17156344.39148 -13359874.67246  21255720.7344                   21255718.9534
 -15110532.87147 -11765030.66846  21861700.1334                   21861699.0394
 -11801449.26648  -9184607.07445  21748105.9224                   21748104.4104
  -2909767.40646  -2258221.51243  24029060.2974                   24029063.7814
 -19733456.59048 -15366571.77347  20551814.7114                   20551810.9734
 11  8  1  1 43 30.0000000  0  9G09G25G10G17G12G05G04G27G02
    722876.84447    573358.99644  23867902.1564                   23867904.4384
  -6372535.77747  -4956805.96944  23885555.8204                   23885557.3164
 -18180328.91448 -14157472.81246  20852868.3754                   20852866.8524
  -3086193.48047  -2394440.03144  23274474.1724                   23274473.0514
 -17188276.18048 -13384756.54346  21249644.3364                   21249642.1884
 -15177309.50847 -11817064.31246  21848992.7194                   21848991.9184
 -11702493.83248  -9107498.94145  21766936.4384                   21766934.9844
  -2823506.12546  -2191005.13344  24045475.1884                   24045479.0044
 -19710078.28948 -15348354.89547  20556263.4614                   20556259.5434
 11  8  1  1 44  0.0000000  0  9G09G25G10G17G12G05G04G27G02
    826057.59047    653759.44143  23887536.6954                   23887538.8794
  -6448265.16447  -5015815.78944  23871144.7034                   23871146.7274
 -18156099.23848 -14138592.50846  20857479.2114                   20857477.5314
  -3008201.74647  -2333667.23844  23289315.7114                   23289313.6334
 -17219735.54348 -13409270.28146  21243658.1094                   21243655.9344
 -15243750.64547 -11868836.52746  21836349.7734                   21836348.1954
 -11603396.75848  -9030280.43445  21785793.6804                   21785792.6374
  -2737197.25046  -2123751.67243  24061899.2194                   24061902.8554
 -19686403.71148 -15329907.13347  20560768.6254                   20560764.5274
 11  8  1  1 44 30.0000000  0  9G09G25G10G17G12G05G04G27G02
    929367.22747    734260.32444  23907196.9144                   23907198.6724
  -6523778.86747  -5074657.55944  23856774.6254                   23856776.1414
 -18131228.41048 -14119212.60946  20862212.0164                   20862210.1054
  -2930040.20747  -2272762.10944  23304189.2734                   23304187.4884
 -17250723.87948 -13433416.99246  21237761.0784                   21237759.0084
 -15309856.82047 -11920347.72746  21823769.4454                   21823768.6094
 -11504163.71148  -8952955.97345  21804677.4844                   21804676.3794
  -2650847.01246  -2056465.99243  24078331.4694                   24078335.1804
 -19662437.66448 -15311232.25847  20565329.3054                   20565325.3484
 11  8  1  1 45  0.0000000  0  9G09G25G10G17G12G05G04G27G02
   1032805.35247    814861.34044  23926880.2034                   23926881.9964
  -6599071.03547  -5133326.69544  23842447.1564                   23842448.5394
 -18105713.18748 -14099330.58246  20867067.6094                   20867065.7934
  -2851705.22347  -2211721.84044  23319096.1024                   23319094.2034
 -17281235.09048 -13457191.90646  21231954.9064                   21231952.7504
 -15375621.66447 -11971592.95746  21811254.8204                   21811253.5744
 -11404793.21948  -8875524.41845  21823586.8914                   21823585.5824
  -2564455.23846  -1989147.94543  24094771.2974                   24094775.0664
 -19638178.02748 -15292328.60947  20569945.6804                   20569941.7544
 11  8  1  1 45 30.0000000  0  9G09G25G10G17G12G05G04G27G02
   1136372.96147    895563.23444  23946588.1484                   23946590.5394
  -6674134.89147  -5191817.94144  23828162.8984                   23828164.3914
 -18079549.28148 -14078943.09446  20872046.6174                   20872044.3014
  -2773191.89547  -2150542.61744  23334036.7344                   23334035.4454
 -17311263.76648 -13480590.82846  21226240.6954                   21226238.4694
 -15441038.82047 -12022567.26646  21798806.5164                   21798805.4414
 -11305283.23848  -8797984.16845  21842522.9384                   21842521.4024
  -2478020.43046  -1921796.42243  24111219.5634                   24111223.1054
 -19613621.69948 -15273193.78147  20574618.4454                   20574614.5944
 11  8  1  1 46  0.0000000  0  9G09G25G10G17G12G05G04G27G02
   1240065.91047    976362.78944  23966320.7274                   23966322.2154
  -6748968.39147  -5250129.68044  23813922.8914                   23813924.3984
 -18052737.48848 -14058050.75046  20877148.0554                   20877146.5594
  -2694500.88347  -2089224.93444  23349011.2274                   23349009.3954
 -17340808.27748 -13503612.47346  21220618.4454                   21220616.3794
 -15506105.76647 -12073268.68446  21786424.7974                   21786423.1174
 -11205636.05148  -8720336.99645  21861485.1414                   21861483.8134
  -2391546.07446  -1854414.05144  24127674.8054                   24127678.8834
 -19588770.46548 -15253829.16047  20579347.3594                   20579343.6914
 11  8  1  1 46 30.0000000  0  9G09G25G10G17G12G05G04G27G02
   1343872.03147   1057250.55944  23986074.3204                   23986076.7234
  -6823577.91447  -5308266.89144  23799724.8594                   23799726.3014
 -18025286.65248 -14036660.45746  20882371.8204                   20882370.2194
  -2615640.55947  -2027775.27345  23364017.2504                   23364016.5124
 -17369875.16848 -13526261.94946  21215086.9924                   21215084.5664
 -15570828.84047 -12123702.14546  21774108.0864                   21774107.4024
 -11105862.68748  -8642591.50045  21880471.6254                   21880469.7074
  -2305043.62446  -1787009.81044  24144136.0634                   24144139.7814
 -19563634.54348 -15234242.69147  20584130.6954                   20584127.0084
 11  8  1  1 47  0.0000000  0  9G09G25G10G17G12G05G04G27G02
   1447789.60247   1138225.14144  24005849.4924                   24005851.3324
  -6897958.98847  -5366226.10244  23785570.0314                   23785572.5044
 -17997195.07448 -14014770.88746  20887717.5234                   20887715.7274
  -2536608.64147  -1966191.95745  23379056.9924                   23379055.5944
 -17398460.96148 -13548536.53946  21209647.3204                   21209645.0354
 -15635203.32447 -12173863.98446  21761858.2034                   21761856.3914
 -11005963.12148  -8564747.66445  21899481.7424                   21899480.8524
  -2218514.02046  -1719584.36743  24160602.3204                   24160606.5394
 -19538213.38348 -15214433.97347  20588967.7974                   20588964.3594
 11  8  1  1 47 30.0000000  0  9G09G25G10G17G12G05G04G27G02
   1551813.61347   1219282.66443  24025644.1954                   24025646.5634
  -6972110.64547  -5424006.54344  23771459.6564                   23771461.7624
 -17968464.44948 -13992383.35546  20893185.0784                   20893182.7154
  -2457406.30947  -1904475.82844  23394128.0164                   23394127.2584
 -17426565.16848 -13570435.87546  21204299.0864                   21204297.5594
 -15699228.28548 -12223753.47346  21749674.4064                   21749672.9454
 -10905940.82848  -8486808.18745  21918515.5004                   21918513.9494
  -2131961.64846  -1652141.19943  24177072.7974                   24177076.9384
 -19512509.43048 -15194404.88747  20593859.3594                   20593855.3714
 11  8  1  1 48  0.0000000  0  9G09G25G10G17G12G05G04G27G02
   1655944.60246   1300423.55944  24045459.4064                   24045462.6914
  -7046026.14547  -5481602.94944  23757393.9144                   23757395.6954
 -17939090.77048 -13969494.73846  20898774.3594                   20898772.5744
  -2378029.24647  -1842623.56644  23409233.2584                   23409231.7814
 -17454181.67648 -13591955.18446  21199044.0704                   21199041.7464
 -15762896.74248 -12273365.16846  21737558.2424                   21737557.2734
 -10805793.87548  -8408771.59445  21937572.8524                   21937571.6804
  -2045385.16446  -1584679.25443  24193548.8594                   24193552.9344
 -19486520.03948 -15174153.37947  20598804.9844                   20598801.1174
 11  8  1  1 48 30.0000000  0  9G09G25G10G17G12G05G04G27G02
   1760177.62547   1381643.94944  24065294.5944                   24065298.1134
  -7119704.69547  -5539014.72744  23743373.1254                   23743374.7034
 -17909076.50848 -13946106.97346  20904485.9384                   20904484.1254
  -2298478.95347  -1780636.31244  23424371.5704                   23424369.9884
 -17481310.17248 -13613094.22746  21193881.5944                   21193879.1804
 -15826208.00848 -12322698.52046  21725511.0234                   21725509.5204
 -10705525.99648  -8330640.74645  21956653.0554                   21956651.6024
  -1958789.32846  -1517202.22743  24210027.6094                   24210031.4924
 -19460248.24248 -15153681.82047  20603804.2344                   20603800.2114
 11  8  1  1 49  0.0000000  0  9G09G25G10G17G12G05G04G27G02
   1864506.18446   1462938.75844  24085148.8134                   24085150.5084
  -7193146.83247  -5596242.30544  23729397.7814                   23729399.4104
 -17878424.93448 -13922222.60246  20910318.6644                   20910316.6334
  -2218758.03147  -1718516.10944  23439541.3984                   23439540.7894
 -17507952.01648 -13633854.05946  21188811.6174                   21188809.4304
 -15889162.21548 -12371753.66046  21713530.6884                   21713529.2234
 -10605142.00848  -8252419.44545  21975755.5394                   21975754.5554
  -1872179.84846  -1449714.56243  24226508.6564                   24226512.7194
 -19433698.44548 -15132993.64147  20608856.4384                   20608852.4774
 11  8  1  1 49 30.0000000  0  9G09G25G10G17G12G05G04G27G02
   1968931.53947   1544309.01244  24105019.3444                   24105022.0864
  -7266345.43747  -5653280.10944  23715468.0394                   23715470.5554
 -17847131.49248 -13897838.06246  20916273.7194                   20916271.6764
  -2138861.69147  -1656259.20344  23454745.5234                   23454743.8204
 -17534100.73848 -13654229.64546  21183835.6804                   21183833.3954
 -15951752.50047 -12420525.22346  21701620.4064                   21701619.1994
 -10504639.28948  -8174105.60945  21994880.5474                   21994878.5744
  -1785555.04346  -1382214.95343  24242993.1564                   24242997.2894
 -19406867.21148 -15112086.16447  20613962.0314                   20613958.1724
 11  8  1  1 50  0.0000000  0  9G09G25G10G17G12G05G04G27G02
   2073447.44947   1625749.81344  24124907.9064                   24124911.0044
  -7339300.52047  -5710128.14844  23701585.6644                   23701586.2734
 -17815199.50048 -13872955.94546  20922350.1884                   20922348.2114
  -2058792.19547  -1593867.38744  23469981.4844                   23469980.7734
 -17559756.90648 -13674221.43046  21178953.5554                   21178951.2344
 -16013979.08247 -12469013.37946  21689778.8134                   21689777.5314
 -10404022.46547  -8095702.87145  22014027.3524                   22014025.7814
  -1698920.40246  -1314707.71143  24259478.0164                   24259483.2504
 -19379758.32848 -15090962.32847  20619120.7814                   20619116.7854
 11  8  1  1 50 30.0000000  0  9G09G25G10G17G12G05G04G27G02
   2178047.98846   1707256.55143  24144813.8204                   24144815.9224
  -7412011.98847  -5766786.34844  23687748.7894                   23687750.2934
 -17782631.49648 -13847578.24646  20928547.4144                   20928545.3984
  -1978551.55146  -1531342.21144  23485251.6564                   23485249.4734
 -17584921.31648 -13693830.02346  21174164.8284                   21174162.8754
 -16075841.44547 -12517217.73446  21678007.0784                   21678005.6024
 -10303295.82448  -8017214.57045  22033194.5004                   22033193.0594
  -1612281.04346  -1247196.78943  24275965.8754                   24275970.3634
 -19352375.37948 -15069624.93746  20624331.7584                   20624327.7344
 11  8  1  1 51  0.0000000  0  9G09G25G10G17G12G05G04G27G02
   2282733.24246   1788829.30544  24164735.0474                   24164736.9224
  -7484473.99647  -5823250.18744  23673959.5234                   23673961.7934
 -17749424.53148 -13821702.65246  20934866.3984                   20934864.7774
  -1898136.43447  -1468681.06244  23500554.0164                   23500552.5704
 -17609588.32448 -13713051.03546  21169470.7584                   21169468.7934
 -16137333.49647 -12565133.53946  21666305.3914                   21666303.7584
 -10202457.90648  -7938639.55545  22052383.5944                   22052382.0824
  -1525636.59846  -1179681.87943  24292454.2974                   24292458.6094
 -19324716.74648 -15048072.72347  20629594.6484                   20629590.8874
 11  8  1  1 51 30.0000000  0  9G09G25G10G17G12G05G04G27G02
   2387497.96146   1870463.97344  24184670.7274                   24184673.5124
  -7556685.69147  -5879518.97744  23660218.4144                   23660219.9614
 -17715580.91448 -13795330.97346  20941307.0004                   20941304.7234
  -1817548.01647  -1405884.90644  23515889.2974                   23515887.5354
 -17633758.19948 -13731884.67246  21164871.5234                   21164869.0204
 -16198454.57847 -12612760.27746  21654674.0394                   21654672.8634
 -10101512.43748  -7859980.71945  22071592.9774                   22071591.1644
  -1438991.41846  -1112166.42642  24308942.7894                   24308946.4844
 -19296785.12148 -15026307.79347  20634910.2274                   20634906.1914
 11  8  1  1 52  0.0000000  0  9G09G25G10G17G12G05G04G27G02
   2492342.23847   1952160.62943  24204621.9924                   24204624.9534
  -7628641.12947  -5935588.05544  23646525.3754                   23646526.8594
 -17681097.88747 -13768461.04746  20947868.4694                   20947866.4964
  -1736782.74246  -1342950.89544  23531258.5944                   23531256.8244
 -17657425.78548 -13750326.91446  21160367.4774                   21160365.4614
 -16259198.51247 -12660093.12946  21643115.2894                   21643113.6484
 -10000458.12947  -7781237.07445  22090822.7974                   22090821.4804
  -1352344.82446  -1044649.86343  24325431.2894                   24325435.5784
 -19268578.35548 -15004328.46947  20640277.9144                   20640273.4304
 11  8  1  1 52 30.0000000  0  9G09G25G10G17G12G05G04G27G02
   2597259.43047   2033914.13343  24224587.3594                   24224589.9924
  -7700340.63747  -5991457.73044  23632880.9614                   23632883.0474
 -17645978.73848 -13741095.43746  20954551.5084                   20954549.9384
  -1655843.46147  -1279881.32044  23546660.2974                   23546658.7664
 -17680591.91448 -13768378.41846  21155959.1484                   21155956.7894
 -16319566.11348 -12707132.74646  21631627.2114                   21631625.5044
  -9899299.29748  -7702411.98445  22110072.6954                   22110071.3634
  -1265702.57046   -977136.64543  24341918.3984                   24341923.0704
 -19240101.03148 -14982138.32047  20645696.7664                   20645692.8204
 11  8  1  1 53  0.0000000  0  9G09G25G10G17G12G05G04G27G02
   2702252.53546   2115726.75843  24244566.9454                   24244569.9614
  -7771775.52747  -6047121.22344  23619288.2734                   23619289.1094
 -17610217.68748 -13713229.64846  20961356.7584                   20961355.3204
  -1574723.48447  -1216670.93444  23562097.0004                   23562095.3554
 -17703249.13348 -13786033.36346  21151647.6484                   21151645.5274
 -16379548.18748 -12753871.94146  21620213.1174                   21620211.5514
  -9798032.05548  -7623502.43045  22129342.7114                   22129342.1454
  -1179061.37546   -909624.29343  24358405.7584                   24358410.9884
 -19211347.94148 -14959733.29347  20651168.3914                   20651164.1644
 11  8  1  1 53 30.0000000  0  9G09G25G10G17G12G05G04G27G02
   2807316.60946   2197594.66043  24264560.7424                   24264563.1454
  -7842944.81647  -6102577.75044  23605744.5704                   23605745.9304
 -17573817.12948 -13684865.54346  20968283.3834                   20968281.6844
  -1493424.29747  -1153320.91044  23577567.6724                   23577566.3594
 -17725396.80948 -13803291.26246  21147432.9454                   21147430.8674
 -16439143.98048 -12800310.14846  21608872.5084                   21608870.9144
  -9696659.68047  -7544510.94945  22148633.9144                   22148632.6094
  -1092425.58646   -842116.15643  24374892.8054                   24374897.0514
 -19182321.80148 -14937115.48847  20656692.0864                   20656687.6954
 11  8  1  1 54  0.0000000  0  9G09G25G10G17G12G05G04G27G02
   2912452.10946   2279518.23843  24284566.9614                   24284569.0514
  -7913841.82847  -6157822.12144  23592253.6024                   23592254.9264
 -17536773.50448 -13656000.34846  20975332.7424                   20975330.7234
  -1411941.02347  -1089827.42244  23593074.0554                   23593071.7234
 -17747029.21948 -13820147.64546  21143316.7114                   21143314.7544
 -16498346.80148 -12846442.14146  21597606.5944                   21597604.5594
  -9595180.03147  -7465435.87145  22167944.1724                   22167943.5124
  -1005794.05146   -774611.27743  24391377.7424                   24391382.9264
 -19153019.90648 -14914282.81247  20662267.4064                   20662263.6764
 11  8  1  1 54 30.0000000  0  9G09G25G10G17G12G05G04G27G02
   3017645.72746   2361487.08643  24304585.0864                   24304587.4774
  -7984474.06247  -6212860.17244  23578812.6254                   23578814.3444
 -17499097.57448 -13626642.43746  20982502.4064                   20982500.3984
  -1330284.01247  -1026198.55144  23608612.6094                   23608610.4654
 -17768154.62948 -13836608.97746  21139296.1884                   21139294.0594
 -16557164.30548 -12892273.89546  21586413.4454                   21586411.9774
  -9493604.84047  -7386286.35245  22187273.7194                   22187272.5744
   -919179.35946   -707119.58643  24407860.5864                   24407865.2894
 -19123453.58248 -14891244.09047  20667894.2194                   20667889.7934
 11  8  1  1 55  0.0000000  0  9G09G25G10G17G12G05G04G27G02
   3122896.50847   2443500.46543  24324613.5784                   24324616.4304
  -8054836.77347  -6267688.19544  23565423.1094                   23565423.6564
 -17460787.25447 -13596790.21546  20989792.2274                   20989789.8164
  -1248450.94147   -962432.49244  23624184.7504                   23624183.0354
 -17788769.21948 -13852672.25846  21135373.8914                   21135371.7034
 -16615591.60248 -12937801.59446  21575295.3524                   21575293.7074
  -9391933.92647  -7307062.23445  22206620.8594                   22206619.9224
   -832582.22346   -639641.58243  24424339.8674                   24424344.4264
 -19093621.62948 -14867998.39147  20673570.7894                   20673566.6024
 11  8  1  1 55 30.0000000  0  9G09G25G10G17G12G05G04G27G02
   3228202.78147   2525557.07444  24344653.3284                   24344655.8594
  -8124925.42647  -6322302.68444  23552085.6094                   23552086.8244
 -17421841.54347 -13566442.88346  20997203.4224                   20997200.9924
  -1166439.25847   -898527.25444  23639791.0474                   23639789.1994
 -17808869.14148 -13868334.50046  21131548.9304                   21131546.5784
 -16673624.52048 -12983021.97746  21564252.1804                   21564250.5354
  -9290167.08247  -7227763.37145  22225986.7734                   22225985.2704
   -746003.39846   -572177.82043  24440815.7974                   24440819.5594
 -19063523.79348 -14844545.50447  20679298.3984                   20679294.0474
 11  8  1  1 56  0.0000000  0  9G09G25G10G17G12G05G04G27G02
   3333551.09046   2607646.44144  24364700.6804                   24364703.2624
  -8194747.73447  -6376709.63344  23538798.7114                   23538800.5704
 -17382271.73448 -13535609.23846  21004733.2194                   21004731.3404
  -1084259.04747   -834490.71144  23655429.3284                   23655428.6724
 -17828462.94948 -13883602.35946  21127820.2034                   21127818.2234
 -16731270.64847 -13027940.96946  21553282.2034                   21553280.6454
  -9188316.43447  -7148399.19145  22245367.7814                   22245367.5354
   -659455.82046   -504738.40643  24457285.2974                   24457289.3204
 -19033172.18048 -14820894.86347  20685074.0314                   20685069.7074
 11  8  1  1 56 30.0000000  0  9G09G25G10G17G12G05G04G27G02
   3438944.89146   2689771.24243  24384755.8914                   24384759.0354
  -8264294.30947  -6430901.71544  23525564.5164                   23525565.6054
 -17342071.73448 -13504284.53546  21012383.1174                   21012380.8794
  -1001903.06247   -770317.18044  23671101.7274                   23671099.9654
 -17847542.34848 -13898469.39546  21124189.6644                   21124187.1684
 -16788520.52048 -13072551.17646  21542387.5084                   21542386.2274
  -9086376.98447  -7068965.82845  22264766.3524                   22264765.5004
   -572935.41046   -437320.17243  24473749.8364                   24473754.6334
 -19002560.40648 -14797041.52047  20690899.0944                   20690895.0044
 11  8  1  1 57  0.0000000  0  9G09G25G10G17G12G05G04G27G02
   3544388.20347   2771934.64543  24404821.1334                   24404824.5474
  -8333554.98047  -6484871.00844  23512384.2034                   23512385.7974
 -17301234.53148 -13472463.30146  21020154.0164                   21020152.0904
   -919363.93447   -706000.94544  23686808.0234                   23686806.1914
 -17866098.05548 -13912928.34846  21120658.4924                   21120656.1094
 -16845364.45748 -13116845.08646  21531570.7114                   21531569.1914
  -8984342.96147  -6989458.77745  22284182.6954                   22284181.7384
   -486437.28946   -369919.32843  24490209.0554                   24490215.3954
 -18971682.03548 -14772980.41847  20696775.1724                   20696770.9654
 11  8  1  1 57 30.0000000  0  9G09G25G10G17G12G05G04G27G02
   3649865.82447   2854124.71944  24424893.7584                   24424896.5824
  -8402539.04347  -6538624.75044  23499257.1414                   23499258.3404
 -17259772.74648 -13440155.39146  21028043.7424                   21028041.6524
   -836653.05147   -641550.87144  23702547.1884                   23702544.9144
 -17884140.53948 -13926987.39546  21117225.4384                   21117222.6994
 -16901811.32448 -13160829.59046  21520829.1564                   21520827.1844
  -8882227.87547  -6909888.54745  22303614.3284                   22303613.3634
   -399976.12946   -302547.26243  24506662.9614                   24506668.2774
 -18940550.61348 -14748722.14147  20702698.9694                   20702694.7664
 11  8  1  1 58  0.0000000  0  9G09G25G10G17G12G05G04G27G02
   3755382.73447   2936345.45343  24444973.1024                   24444975.6684
  -8471235.58647  -6592154.46144  23486184.6334                   23486185.8204
 -17217678.94948 -13407354.99646  21036054.2424                   21036051.7814
   -753761.50847   -576960.04344  23718320.7734                   23718319.1024
 -17901659.31248 -13940638.34846  21113891.4304                   21113889.1724
 -16957850.52348 -13204496.43046  21510165.1484                   21510163.4774
  -8780025.19547  -6830250.08245  22323063.6174                   22323062.4774
   -313546.35946   -235199.67243  24523109.9844                   24523115.1644
 -18909158.82048 -14724260.99247  20708672.7814                   20708668.4964
 11  8  1  1 58 30.0000000  0  9G09G25G10G17G12G05G04G27G02
   3860933.03546   3018592.21544  24465058.4144                   24465061.7734
  -8539644.96147  -6645460.39144  23473166.7274                   23473168.4384
 -17174956.74248 -13374064.93446  21044183.8364                   21044181.8524
   -670692.61347   -512230.99244  23734128.4924                   23734127.3094
 -17918656.00448 -13953882.48046  21110657.0084                   21110654.6334
 -17013482.67248 -13247846.09046  21499579.0084                   21499576.9384
  -8677739.53547  -6750546.93745  22342527.1804                   22342526.1764
   -227153.64146   -167880.96943  24539550.1804                   24539555.4064
 -18877511.02348 -14699600.34447  20714695.3134                   20714691.1254
 11  8  1  1 59  0.0000000  0  9G09G25G10G17G12G05G04G27G02
   3966513.44947   3100862.42244  24485149.8754                   24485153.4534
  -8607764.28947  -6698540.28945  23460203.8444                   23460204.6214
 -17131606.73048 -13340285.67646  21052433.1334                   21052431.0234
   -587445.75846   -447363.30144  23749969.8674                   23749969.2234
 -17935128.41448 -13966718.09446  21107522.4694                   21107519.8554
 -17068704.89148 -13290876.32046  21489070.4614                   21489068.7304
  -8575372.55147  -6670780.44145  22362007.0474                   22362006.1254
   -140800.37546   -100593.00443  24555982.4844                   24555988.6174
 -18845608.39848 -14674741.13346  20720766.0164                   20720761.9144
 11  8  1  1 59 30.0000000  0  9G09G25G10G17G12G05G04G27G02
   4072117.64846   3183151.15644  24505245.5084                   24505249.5704
  -8675594.19547  -6751394.65245  23447296.5004                   23447297.7114
 -17087633.25048 -13306020.60246  21060800.9924                   21060798.7974
   -504023.60547   -382358.99644  23765844.3914                   23765842.3284
 -17951078.35248 -13979146.59046  21104487.4924                   21104484.5434
 -17123518.09848 -13333587.83646  21478639.8134                   21478638.1414
  -8472928.85947  -6590954.18045  22381501.7664                   22381500.5474
    -54492.36746    -33340.32443  24572407.7584                   24572412.8094
 -18813455.19948 -14649686.67247  20726884.4774                   20726880.6804
 11  8  1  2  0  0.0000000  0  9G09G25G10G17G12G05G04G27G02
   4177742.50046   3265455.98844  24525346.4454                   24525349.4654
  -8743131.78147  -6804021.23445  23434443.9614                   23434445.3834
 -17043036.68748 -13271270.01246  21069287.4224                   21069285.3284
   -420425.71946   -317217.76644  23781753.0944                   23781750.7774
 -17966504.16048 -13991166.66846  21101551.6564                   21101549.2894
 -17177919.59448 -13375978.54746  21468287.3594                   21468285.6254
  -8370409.98447  -6511069.32045  22401010.5084                   22401008.9384
     31768.14146     33875.37943  24588822.6334                   24588827.8874
 -18781052.25448 -14624437.60246  20733050.5474                   20733046.3954
 11  8  1  2  0 30.0000000  0  9G09G25G10G17G12G05G04G27G02
   4283387.96446   3347776.88043  24545449.4924                   24545453.4924
  -8810371.41047  -6856415.62945  23421649.1954                   23421650.4734
 -16997814.78548 -13236032.14146  21077892.5864                   21077890.5904
   -336648.74646   -251936.98444  23797695.0164                   23797693.4614
 -17981400.83248 -14002774.43046  21098716.9304                   21098714.2304
 -17231903.42648 -13418043.80146  21458014.5944                   21458012.9964
  -8267814.60547  -6431124.86345  22420533.5314                   22420531.9964
    117981.29746    101054.19943  24605227.8754                   24605233.4654
 -18748397.89548 -14598992.61747  20739264.5474                   20739260.1804
 11  8  1  2  1  0.0000000  0  8G09G25G10G17G12G05G04G02
   4389052.34046   3430112.50443  24565557.0944                   24565561.1884
  -8877308.92247  -6908574.62545  23408910.7114                   23408911.9224
 -16951967.27048 -13200306.77346  21086617.0234                   21086615.1684
   -252691.15646   -186515.46544  23813671.5164                   23813670.0664
 -17995765.53948 -14013967.68046  21095983.6484                   21095981.1134
 -17285466.12548 -13459780.90246  21447821.8444                   21447819.8444
  -8165143.21947  -6351121.16845  22440071.7814                   22440069.6294
 -18715491.70348 -14573351.40247  20745526.4844                   20745522.3204
 11  8  1  2  1 30.0000000  0  8G09G25G10G17G12G05G04G02
   4494730.71146   3512459.02043  24585667.2344                   24585671.0864
  -8943943.43047  -6960497.50845  23396230.3984                   23396231.7504
 -16905496.34048 -13164095.62946  21095460.1484                   21095458.2974
   -168554.22746   -120954.21544  23829681.9694                   23829680.6214
 -18009598.30548 -14024746.43746  21093351.0084                   21093348.5634
 -17338606.75848 -13501189.12546  21437709.5634                   21437708.2344
  -8062398.67647  -6271060.46945  22459623.2114                   22459621.3554
 -18682336.84448 -14547516.41847  20751835.5084                   20751831.4144
 11  8  1  2  2  0.0000000  0  8G09G25G10G17G12G05G04G02
   4600420.87546   3594814.73443  24605780.1024                   24605783.5474
  -9010271.21947  -7012181.38345  23383608.9384                   23383610.5124
 -16858402.23048 -13127398.89546  21104421.8754                   21104420.3484
    -84236.56646    -55252.12544  23845726.5864                   23845725.4144
 -18022896.63348 -14035108.74646  21090820.4064                   21090817.7814
 -17391321.73048 -13542265.65646  21427677.9304                   21427676.6174
  -7959581.55547  -6190943.21945  22479188.7734                   22479187.1414
 -18648933.14148 -14521487.53547  20758192.1174                   20758187.6644
 11  8  1  2  2 30.0000000  0  8G09G25G10G17G12G05G04G02
   4706116.51646   3677174.75443  24625892.8444                   24625896.8674
  -9076292.91047  -7063626.75845  23371045.4454                   23371046.2584
 -16810688.97748 -13090219.70746  21113501.6174                   21113499.4344
       258.75046     10588.39544  23861806.1174                   23861805.2624
 -18035661.83648 -14045055.63346  21088391.2424                   21088388.6954
 -17443611.99248 -13583011.24646  21417727.5704                   21417725.8594
  -7856696.79347  -6110773.26245  22498766.6334                   22498764.8554
 -18615285.21148 -14495268.34847  20764594.9844                   20764590.6914
 11  8  1  2  3  0.0000000  0  8G09G25G10G17G12G05G04G02
   4811821.49646   3759541.98043  24646008.5864                   24646012.3054
  -9141998.60547  -7114825.92645  23358542.1884                   23358542.7734
 -16762350.41448 -13052553.27046  21122700.1644                   21122698.0944
     84939.05546     76573.06644  23877920.2274                   23877918.3404
 -18047885.59848 -14054580.62546  21086065.1564                   21086062.6844
 -17495468.04748 -13623418.50046  21407859.3204                   21407857.5204
  -7753738.68047  -6030546.13345  22518359.0234                   22518357.2154
 -18581386.95748 -14468854.08647  20771045.6414                   20771041.4494
 11  8  1  2  3 30.0000000  0  8G09G25G10G17G12G05G04G02
   4917527.43046   3841909.95343  24666123.8204                   24666128.0204
  -9207390.87947  -7165780.85245  23346098.3284                   23346098.9654
 -16713392.85247 -13014404.50446  21132016.2114                   21132013.8794
    169799.73046    142698.31644  23894068.7664                   23894066.3014
 -18059571.34448 -14063686.38346  21083841.3674                   21083838.7464
 -17546892.45348 -13663489.39546  21398073.7894                   21398072.0434
  -7650714.15647  -5950267.27345  22537963.7424                   22537961.9454
 -18547244.69148 -14442249.69147  20777542.4144                   20777538.6454
 11  8  1  2  4  0.0000000  0  8G09G25G10G17G12G05G04G02
   5023232.05946   3924276.96543  24686238.7424                   24686241.9104
  -9272466.19547  -7216488.82845  23333714.8524                   23333715.5274
 -16663816.42648 -12975773.48846  21141450.3984                   21141448.4064
    254841.87147    208964.93044  23910251.4614                   23910249.7974
 -18070716.75848 -14072371.09846  21081720.6954                   21081718.5784
 -17597882.04348 -13703221.47746  21388370.6564                   21388368.7704
  -7547623.63747  -5869936.98445  22557580.9774                   22557579.1954
 -18512858.78148 -14415455.45347  20784086.0234                   20784081.8404
 11  8  1  2  4 30.0000000  0  8G09G25G10G17G12G05G04G02
   5128928.68046   4006637.77043  24706351.5394                   24706356.3164
  -9337225.62547  -7266950.66445  23321391.4924                   23321392.4494
 -16613625.96947 -12936664.01646  21151001.5314                   21150999.0704
    340061.72347    275370.02044  23926467.9534                   23926466.9924
 -18081323.86348 -14080636.35246  21079702.0004                   21079699.7664
 -17648438.02748 -13742615.68746  21378750.0394                   21378748.5594
  -7444472.62147  -5789559.55145  22577210.1954                   22577208.7704
 -18478234.16448 -14388475.20346  20790674.7344                   20790670.4734
 11  8  1  2  5  0.0000000  0  8G09G25G10G17G12G05G04G02
   3659203.36746   2861397.01243  24426672.0864                   24426677.1024
 -10977082.93747  -8544761.48845  23009336.8984                   23009338.0474
 -18138234.99247 -14124671.02046  20860877.5704                   20860875.4574
  -1149951.54347   -885679.25844  23642928.3914                   23642926.0084
 -19666806.11348 -15316077.04746  20777994.5864                   20777992.2704
 -19273973.94148 -15009266.98446  21069421.0004                   21069418.9924
  -8916673.18447  -6936728.81645  22297059.4064                   22297058.1804
 -20018785.02348 -15588904.40647  20497517.8204                   20497513.7154
 11  8  1  2  5 30.0000000  0  8G09G25G10G17G12G05G04G02
   3764884.99646   2943746.06243  24446783.5634                   24446788.0314
 -11041192.21147  -8594716.71145  22997137.1484                   22997137.8914
 -18086808.99647 -14084598.78546  20870664.0234                   20870661.7504
  -1064364.68847   -818988.18044  23659215.7664                   23659211.9734
 -19676322.44948 -15323492.34846  20776183.7734                   20776181.6884
 -19323645.24648 -15047971.83646  21059968.5944                   21059966.8794
  -8813394.93047  -6856252.23845  22316712.4454                   22316711.2464
 -19983676.19548 -15561546.85546  20504198.9064                   20504194.6214
 11  8  1  2  6  0.0000000  0  8G09G25G10G17G12G05G04G02
   3870549.75446   3026081.98443  24466891.1334                   24466895.5554
 -11104977.28547  -8644419.30945  22984998.9064                   22985000.2234
 -18034771.57047 -14044050.11346  20880566.2034                   20880564.2154
   -978598.74647   -752157.55944  23675535.6804                   23675533.7934
 -19685295.85248 -15330484.59046  20774476.1484                   20774473.7814
 -19372875.14148 -15086332.73046  21050600.7504                   21050598.6994
  -8710060.18447  -6775731.64545  22336376.9304                   22336375.6294
 -19948331.67248 -15534005.62947  20510924.4064                   20510920.1884
 11  8  1  2  6 30.0000000  0  8G09G25G10G17G12G05G04G02
   3976199.92246   3108406.52343  24486995.8984                   24487000.5554
 -11168429.88347  -8693862.85245  22972924.2734                   22972925.8284
 -17982118.49647 -14003021.71946  20890585.9384                   20890583.6094
   -892647.82047   -685182.78544  23691891.7814                   23691889.8524
 -19693719.34448 -15337048.32446  20772873.3524                   20772870.9924
 -19421656.14548 -15124343.84046  21041318.2424                   21041316.1954
  -8606665.02347  -6695163.96545  22356052.0394                   22356050.5704
 -19912746.89848 -15506277.21147  20517695.8674                   20517691.7504
 11  8  1  2  7  0.0000000  0  8G09G25G10G17G12G05G04G02
   4081826.55146   3190712.73443  24507096.3834                   24507100.2034
 -11231553.54347  -8743050.07445  22960912.4614                   22960912.9384
 -17928857.29347 -13961519.45746  20900721.0314                   20900718.8364
   -806518.00047   -618068.56644  23708281.3364                   23708279.9024
 -19701597.69948 -15343187.27746  20771374.0784                   20771371.9144
 -19469992.13348 -15162008.18446  21032119.7664                   21032117.8484
  -8503216.66447  -6614554.84445  22375737.8834                   22375736.5594
 -19876929.50448 -15478367.52046  20524511.6484                   20524507.4734
 11  8  1  2  7 30.0000000  0  8G09G25G10G17G12G05G04G02
   4187423.92647   3272996.13343  24527190.8284                   24527195.2664
 -11294348.00447  -8791980.76645  22948962.8834                   22948964.3404
 -17874991.64547 -13919546.19546  20910971.4384                   20910969.0704
   -720211.44146   -550816.68443  23724705.6024                   23724703.4884
 -19708931.86348 -15348902.18446  20769978.3594                   20769976.2704
 -19517883.10548 -15199325.76646  21023006.3674                   21023004.2854
  -8399719.38747  -6533907.59845  22395432.6024                   22395431.3014
 -19840882.73448 -15450279.09446  20531371.0314                   20531367.0164
 11  8  1  2  8  0.0000000  0  8G09G25G10G17G12G05G04G02
   4292992.10247   3355256.82043  24547281.0634                   24547284.8204
 -11356807.67247  -8840650.60545  22937077.2734                   22937078.2544
 -17820519.77347 -13877100.56646  20921336.9694                   20921334.7584
   -633724.81346   -483424.46543  23741162.8134                   23741161.0274
 -19715717.73848 -15354189.84846  20768687.1644                   20768684.8284
 -19565323.60248 -15236292.32446  21013978.6564                   21013976.6054
  -8296171.52347  -6453220.94145  22415137.1414                   22415135.5044
 -19804605.01648 -15422010.71146  20538274.6804                   20538270.4304
 11  8  1  2  8 30.0000000  0  8G09G25G10G17G12G05G04G02
   4398529.36747   3437493.38743  24567364.3204                   24567368.2074
 -11418928.64547  -8889056.53145  22925256.1254                   22925257.4574
 -17765441.77047 -13834182.62546  20931817.7194                   20931815.6454
   -547056.74646   -415890.91444  23757655.1724                   23757653.4454
 -19721952.77048 -15359048.27746  20767500.7034                   20767498.2194
 -19612310.19148 -15272905.19146  21005037.4224                   21005035.2074
  -8192573.13747  -6372494.92645  22434851.2974                   22434850.0744
 -19768096.26648 -15393562.29746  20545221.9384                   20545218.1094
 11  8  1  2  9  0.0000000  0  8G09G25G10G17G12G05G04G02
   4504024.35547   3519697.00043  24587438.9774                   24587443.4654
 -11480716.41447  -8937202.81645  22913498.1884                   22913499.2854
 -17709766.87147 -13790799.57046  20942412.6644                   20942410.6294
   -460215.00846   -348222.00444  23774181.1094                   23774179.0984
 -19727643.69548 -15363482.73446  20766417.6254                   20766415.2854
 -19658848.75448 -15309168.95346  20996181.3284                   20996179.6604
  -8088934.01647  -6291737.16045  22454573.2894                   22454571.4304
 -19731365.75848 -15364941.09046  20552211.2974                   20552207.5434
 11  8  1  2  9 30.0000000  0  8G09G25G10G17G12G05G04G02
   4609483.21147   3601872.48843  24607506.9064                   24607511.9924
 -11542159.14847  -8985080.22345  22901806.3914                   22901806.9844
 -17653486.94147 -13746945.06246  20953122.2344                   20953119.9924
   -373190.60546   -280410.78544  23790740.5474                   23790739.5354
 -19732779.78148 -15367484.84846  20765440.3364                   20765437.6334
 -19704927.66448 -15345074.52746  20987412.6094                   20987410.6054
  -7985246.32047  -6210941.53145  22474304.7034                   22474302.6564
 -19694405.21548 -15336140.63747  20559244.7584                   20559240.3134
 11  8  1  2 10  0.0000000  0  8G09G25G10G17G12G05G04G02
   4714894.12546   3684010.60543  24627565.6724                   24627571.3244
 -11603263.03547  -9032693.59845  22890178.2344                   22890179.2424
 -17596612.57847 -13702627.35546  20963945.1094                   20963942.6524
   -285991.80946   -212463.66844  23807335.2344                   23807332.8634
 -19737368.41448 -15371060.37946  20764566.9774                   20764564.3984
 -19750553.50848 -15380627.07846  20978730.3834                   20978728.3714
  -7881520.13747  -6130115.92245  22494042.8674                   22494041.3594
 -19657224.96148 -15307168.98447  20566319.9694                   20566315.2464
 11  8  1  2 10 30.0000000  0  8G09G25G10G17G12G05G04G02
   4820268.36746   3766120.14843  24647618.1954                   24647622.9144
 -11664011.09847  -9080029.70345  22878618.2894                   22878619.6054
 -17539130.50047 -13657836.10246  20974883.7194                   20974881.4024
   -198604.16846   -144369.41044  23823963.2504                   23823961.9804
 -19741394.69148 -15374197.70346  20763800.9144                   20763798.2624
 -19795709.92248 -15415813.82846  20970137.4144                   20970135.1804
  -7777742.43047  -6049250.16045  22513790.8524                   22513789.1454
 -19619811.56248 -15278015.66446  20573439.7194                   20573435.2664
 11  8  1  2 11  0.0000000  0  8G09G25G10G17G12G05G04G02
   4925594.67246   3848192.27743  24667661.1954                   24667666.6764
 -11724409.14847  -9127093.06245  22867124.6254                   22867126.0314
 -17481050.60947 -13612579.02746  20985935.7584                   20985933.7304
   -111035.66446    -76134.20744  23840626.9384                   23840625.8674
 -19744865.23048 -15376901.98446  20763140.0784                   20763137.8164
 -19840402.90248 -15450639.46946  20961632.5944                   20961630.0274
  -7673923.08647  -5968351.94945  22533547.3524                   22533545.7234
 -19582174.53548 -15248688.07846  20580601.7894                   20580597.5084
 11  8  1  2 11 30.0000000  0  8G09G25G10G17G12G05G04G02
   5030872.10946   3930226.39843  24687695.1024                   24687700.2304
 -11784452.56247  -9173880.08645  22855699.2664                   22855700.2464
 -17422372.21147 -13566855.59046  20997101.5944                   20997099.5234
    -23284.30146     -7756.53944  23857325.8134                   23857325.2034
 -19747776.91048 -15379170.79346  20762586.2504                   20762583.8874
 -19884628.43048 -15485100.85946  20953216.6804                   20953214.8674
  -7570061.68047  -5887420.97745  22553310.9924                   22553310.2114
 -19544312.98848 -15219185.54346  20587806.4774                   20587802.4774
 11  8  1  2 12  0.0000000  0  8G09G25G10G17G12G05G04G02
   5136094.76646   4012217.82443  24707718.7974                   24707724.3674
 -11844141.80947  -9220391.11745  22844340.5084                   22844341.4774
 -17363099.86347 -13520669.32446  21008380.9694                   21008378.7734
     64647.25046     60761.57844  23874058.3984                   23874056.7774
 -19750132.03148 -15381005.91846  20762138.0234                   20762135.5554
 -19928387.28548 -15519198.60546  20944889.7114                   20944887.3834
  -7466162.49247  -5806460.55545  22573082.5784                   22573081.5204
 -19506231.39148 -15189511.54746  20595052.9844                   20595048.4184
 11  8  1  2 12 30.0000000  0  8G09G25G10G17G12G05G04G02
   5241261.62546   4094165.73843  24727732.5944                   24727737.0784
 -11903472.09447  -9266622.45345  22833050.0864                   22833050.7704
 -17303232.96548 -13474019.77046  21019773.3524                   21019771.4144
    152760.83646    129421.51644  23890826.2274                   23890824.6174
 -19751926.68048 -15382404.31647  20761796.6024                   20761794.0514
 -19971674.89148 -15552929.15646  20936652.2274                   20936650.0554
  -7362224.62147  -5725469.99245  22592861.4454                   22592860.0434
 -19467928.53948 -15159665.14546  20602341.6884                   20602337.6174
 11  8  1  2 13  0.0000000  0  8G09G25G10G17G12G05G04G02
   5346364.51646   4176063.84443  24747731.6414                   24747737.5704
 -11962445.91047  -9312576.02045  22821827.8054                   22821828.5044
 -17242778.15648 -13426912.11346  21031277.4304                   21031275.6134
    241051.77346    198219.63344  23907627.4454                   23907625.3134
 -19753165.09048 -15383369.28146  20761560.4924                   20761558.2894
 -20014494.53148 -15586295.04746  20928503.8134                   20928501.6414
  -7258254.60247  -5644454.37545  22612646.1334                   22612644.6134
 -19429410.51248 -15129651.07446  20609671.5084                   20609667.5314
 11  8  1  2 13 30.0000000  0  8G09G25G10G17G12G05G04G02
   5451404.09446   4257912.55543  24767720.9384                   24767726.1604
 -12021057.22347  -9358247.10945  22810674.4064                   22810674.8874
 -17181733.29747 -13379344.66046  21042893.3204                   21042891.4304
    329523.94146    267158.97744  23924463.5944                   23924461.6564
 -19753842.57048 -15383897.15646  20761431.8984                   20761429.2734
 -20056840.46548 -15619291.82446  20920445.4844                   20920443.3954
  -7154250.22347  -5563411.99244  22632437.2274                   22632436.1024
 -19390675.17248 -15099467.67646  20617042.6644                   20617038.4144
 11  8  1  2 14  0.0000000  0  7G25G10G17G12G05G04G02
 -12079307.00047  -9403636.49245  22799589.7814                   22799590.0044
 -17120103.60948 -13331321.50846  21054621.4454                   21054619.6644
    418173.59047    336236.65244  23941332.6644                   23941330.9224
 -19753961.67648 -15383989.94146  20761409.2584                   20761406.9924
 -20098714.37948 -15651920.78546  20912477.4304                   20912475.2854
  -7050216.52747  -5482346.75045  22652233.9924                   22652233.4144
 -19351727.28548 -15069118.65246  20624454.2814                   20624449.7194
 11  8  1  2 14 30.0000000  0  7G25G10G17G12G05G04G02
 -12137191.76247  -9448741.44145  22788574.5164                   22788575.0554
 -17057889.61748 -13282843.05946  21066460.4384                   21066458.2384
    507001.85247    405453.48044  23958235.7734                   23958235.1914
 -19753520.34048 -15383646.02046  20761493.0084                   20761490.6604
 -20140112.85948 -15684179.28946  20904599.5164                   20904597.3834
  -6946153.73847  -5401258.84844  22672037.2274                   22672035.2894
 -19312566.76648 -15038603.94146  20631906.3364                   20631901.4884
 11  8  1  2 15  0.0000000  0  7G25G10G17G12G05G04G02
 -12194704.38347  -9493556.41445  22777630.3054                   22777630.9844
 -16995088.41847 -13233907.03946  21078411.1094                   21078409.2734
    596013.58647    474813.27744  23975174.1484                   23975172.5004
 -19752512.93048 -15382861.00047  20761684.4924                   20761682.5004
 -20181029.53948 -15716062.35946  20896813.1564                   20896810.8524
  -6842058.59847  -5320145.71544  22691845.7194                   22691844.9304
 -19273190.37548 -15007921.01246  20639399.3754                   20639394.9264
 11  8  1  2 15 30.0000000  0  7G25G10G17G12G05G04G02
 -12251842.80547  -9538079.78545  22766757.1884                   22766758.0744
 -16931702.01247 -13184515.02046  21090473.6094                   21090471.0474
    685208.20347    544315.57844  23992147.4144                   23992145.4844
 -19750938.68748 -15381634.28946  20761984.2584                   20761982.0634
 -20221462.74248 -15747568.69146  20889119.1484                   20889116.6954
  -6737933.02047  -5239008.89544  22711660.2424                   22711658.5004
 -19233599.83648 -14977071.22747  20646933.3444                   20646929.0664
 11  8  1  2 16  0.0000000  0  7G25G10G17G12G05G04G02
 -12308599.10247  -9582305.39845  22755956.7734                   22755957.4024
 -16867726.53548 -13134663.97346  21102647.1174                   21102644.7734
    774591.50047    613964.91444  24009156.4534                   24009155.3634
 -19748791.92248 -15379961.46146  20762392.9384                   20762390.2934
 -20261405.15248 -15778692.59446  20881518.0704                   20881515.7344
  -6633772.89547  -5157845.13344  22731480.6024                   22731479.0394
 -19193790.73048 -14946051.11346  20654508.5084                   20654504.0474
 11  8  1  2 16 30.0000000  0  7G25G10G17G12G05G04G02
 -12364975.47747  -9626234.98445  22745228.7504                   22745229.6454
 -16803168.60947 -13084359.07446  21114931.8674                   21114929.4304
    864158.64847    683757.52744  24026200.6174                   24026198.2274
 -19746075.89848 -15377845.05946  20762909.4924                   20762907.0824
 -20300859.42248 -15809436.13346  20874010.0314                   20874007.9414
  -6529584.25047  -5076659.16044  22751307.3054                   22751305.0784
 -19153769.14548 -14914865.44946  20662124.1884                   20662119.9534
 11  8  1  2 17  0.0000000  0  7G25G10G17G12G05G04G02
 -12420966.43447  -9669864.23445  22734573.7814                   22734574.7934
 -16738027.05947 -13033599.41046  21127327.9384                   21127326.0904
    953912.62147    753695.68443  24043279.9924                   24043278.1994
 -19742786.95348 -15375282.21147  20763535.4224                   20763532.9534
 -20339820.53148 -15839795.38746  20866595.9534                   20866593.5354
  -6425365.43447  -4995449.65644  22771139.7664                   22771137.6914
 -19113533.00848 -14883512.58646  20669780.6804                   20669776.5554
 11  8  1  2 17 30.0000000  0  7G25G10G17G12G05G04G02
 -12476571.75047  -9713192.99245  22723992.9144                   22723993.3874
 -16672305.71147 -12982387.95746  21139834.5084                   21139832.4224
   1043851.10947    823777.63743  24060395.2584                   24060393.3914
 -19738926.24648 -15372273.84447  20764270.4924                   20764267.5514
 -20378288.96548 -15869770.73446  20859275.6174                   20859273.4344
  -6321119.97747  -4914219.41844  22790976.6724                   22790974.7234
 -19073085.77748 -14851995.24246  20677477.7344                   20677473.2664
 11  8  1  2 18  0.0000000  0  7G25G10G17G12G05G04G02
 -12531795.29747  -9756224.27345  22713484.1884                   22713484.6024
 -16606012.90247 -12930731.21146  21152449.1564                   21152447.0164
   1133967.89846    893998.55943  24077543.6804                   24077542.4144
 -19734499.28948 -15368824.24246  20765112.6564                   20765110.0704
 -20416268.95748 -15899365.48046  20852048.4774                   20852046.3554
  -6216855.46547  -4832974.33644  22810817.8364                   22810815.7734
 -19032434.95348 -14820319.25046  20685213.3444                   20685209.0984
 11  8  1  2 18 30.0000000  0  7G25G10G17G12G05G04G02
 -12586637.88347  -9798958.69145  22703047.9384                   22703048.5944
 -16539153.39847 -12878632.87946  21165172.3444                   21165170.3094
   1224259.93046    964356.01643  24094725.9224                   24094723.2384
 -19729508.65248 -15364935.41047  20766062.1334                   20766059.5004
 -20453761.88348 -15928580.69946  20844913.5234                   20844911.2344
  -6112576.46947  -4751717.95344  22830661.5004                   22830659.2504
 -18991585.19548 -14788488.24646  20692986.9224                   20692982.4844
 11  8  1  2 19  0.0000000  0  7G25G10G17G12G05G04G02
 -12641091.98447  -9841390.41045  22692685.1564                   22692685.9734
 -16471724.21547 -12826090.64846  21178003.8834                   21178001.2304
   1314732.23046   1034853.92643  24111941.5554                   24111939.0944
 -19723948.23848 -15360602.59446  20767120.5234                   20767118.1804
 -20490761.07448 -15957411.18746  20837872.6644                   20837870.4884
  -6008279.35247  -4670447.43444  22850508.3674                   22850506.9104
 -18950532.39548 -14756499.02046  20700798.7974                   20700794.4534
 11  8  1  2 19 30.0000000  0  7G25G10G17G12G05G04G02
 -12695159.26247  -9883520.69545  22682396.7034                   22682397.3834
 -16403731.09847 -12773108.97746  21190942.4774                   21190940.2034
   1405380.70346   1105489.10243  24129191.6954                   24129189.3594
 -19717821.61748 -15355828.57046  20768285.9384                   20768283.7624
 -20527268.58648 -15985858.55546  20830925.7504                   20830923.1804
  -5903969.27047  -4589166.83244  22870358.0234                   22870356.1564
 -18909281.90648 -14724355.75846  20708648.6334                   20708644.3714
 11  8  1  2 20  0.0000000  0  7G25G10G17G12G05G04G02
 -12748830.56647  -9925342.42645  22672183.1254                   22672183.5314
 -16335169.13347 -12719684.05946  21203989.6334                   21203987.2584
   1496211.94146   1176266.70743  24146476.0164                   24146474.6564
 -19711121.24248 -15350607.47746  20769560.9064                   20769558.5124
 -20563276.09848 -16013916.30946  20824073.4774                   20824071.4064
  -5799640.85547  -4507871.93044  22890211.1254                   22890209.4774
 -18867828.16848 -14692054.11346  20716536.8834                   20716532.6214
 11  8  1  2 20 30.0000000  0  7G25G10G17G12G05G04G02
 -12802107.56247  -9966856.90645  22662044.5634                   22662046.0164
 -16266044.72347 -12665820.86746  21217143.1174                   21217141.2894
   1587221.88346   1247183.53143  24163795.9774                   24163792.8204
 -19703850.25848 -15344941.74646  20770945.0084                   20770942.4734
 -20598785.79748 -16041586.15246  20817316.3054                   20817313.8324
  -5695299.46147  -4426566.93744  22910066.2734                   22910064.8364
 -18826176.43048 -14659598.18746  20724462.9064                   20724458.5824
 11  8  1  2 21  0.0000000  0  7G25G10G17G12G05G04G02
 -12854993.73847 -10008066.84045  22651980.6174                   22651982.1644
 -16196365.20747 -12611525.12946  21230402.7424                   21230400.3404
   1678404.44946   1318234.90243  24181146.5784                   24181144.0984
 -19696014.20348 -15338835.70346  20772435.8914                   20772433.4844
 -20633801.39148 -16068870.98046  20810652.9304                   20810650.8324
  -5590952.12947  -4345257.31644  22929922.7424                   22929921.7234
 -18784333.54748 -14626993.31246  20732425.4384                   20732421.1024
 11  8  1  2 21 30.0000000  0  7G25G10G17G12G05G04G02
 -12907475.92647 -10048961.99245  22641993.7974                   22641994.5234
 -16126122.00847 -12556790.16046  21243769.7194                   21243767.4224
   1769770.64546   1389429.30943  24198532.7344                   24198530.9844
 -19687601.70348 -15332280.47746  20774037.1724                   20774034.3524
 -20668310.68448 -16095761.30146  20804085.9924                   20804084.0394
  -5486589.54347  -4263935.79744  22949782.6804                   22949781.2894
 -18742290.33248 -14594232.34446  20740425.7664                   20740421.5944
 11  8  1  2 22  0.0000000  0  7G25G10G17G12G05G04G02
 -12959550.35547 -10089539.40245  22632083.9454                   22632084.8554
 -16055315.78947 -12501616.46146  21257243.8984                   21257241.4734
   1861321.91046   1460767.93443  24215953.3444                   24215952.3324
 -19678610.64148 -15325274.42647  20775747.5234                   20775745.2464
 -20702310.51648 -16122254.62546  20797615.9454                   20797613.6054
  -5382211.37147  -4182602.13344  22969645.2424                   22969643.7854
 -18700046.29748 -14561314.88346  20748464.3524                   20748459.7464
 11  8  1  2 22 30.0000000  0  7G25G10G17G12G05G04G02
 -13011216.62147 -10129798.76645  22622252.4844                   22622253.3954
 -15983950.44147 -12446007.08646  21270824.1254                   21270821.9144
   1953055.98047   1532249.02744  24233411.1724                   24233409.3834
 -19669041.54748 -15317817.96546  20777568.7814                   20777566.4024
 -20735801.09848 -16148351.14546  20791242.7584                   20791240.5164
  -5277820.94947  -4101258.94944  22989509.4144                   22989508.6564
 -18657604.75848 -14528243.52346  20756541.2894                   20756536.7464
 11  8  1  2 23  0.0000000  0  7G25G10G17G12G05G04G02
 -13062474.01247 -10169739.51645  22612498.4384                   22612499.1024
 -15912029.50847 -12389964.79346  21284510.1334                   21284507.9964
   2044971.50847   1603871.50044  24250902.3984                   24250900.5904
 -19658896.46148 -15309912.67247  20779498.9614                   20779496.5944
 -20768782.50048 -16174050.89146  20784966.8204                   20784964.6914
  -5173421.10546  -4019908.42644  23009376.4694                   23009375.2704
 -18614968.35948 -14495020.33646  20764654.3834                   20764649.9104
 11  8  1  2 23 30.0000000  0  7G25G10G17G12G05G04G02
 -13113322.84447 -10209361.92245  22602821.8444                   22602822.4964
 -15839557.69947 -12333493.23446  21298301.2664                   21298299.1174
   2137065.23847   1675632.85544  24268426.3364                   24268424.7974
 -19648177.60248 -15301560.28546  20781539.1884                   20781536.0984
 -20801255.43748 -16199354.43746  20778787.4774                   20778785.1054
  -5069015.73447  -3938553.59044  23029244.4384                   23029242.6214
 -18572141.15248 -14461648.44946  20772804.1334                   20772800.0664
 11  8  1  2 24  0.0000000  0  8G29G25G10G17G12G05G04G02
  -4810966.69956  -3742512.21553  24648755.9844                   24648757.1414
 -13163753.12547 -10248658.19145  22593225.5234                   22593226.6214
 -15766529.48447 -12276588.12146  21312197.7114                   21312195.7034
   2229344.97347   1747539.13344  24285987.0474                   24285985.7934
 -19636876.41448 -15292754.13746  20783689.1724                   20783686.6454
 -20833210.80148 -16224254.68046  20772706.3204                   20772703.9694
  -4964598.32846  -3857189.36344  23049113.7504                   23049112.6884
 -18529116.38348 -14428122.63346  20780991.5704                   20780987.2544
 11  8  1  2 24 30.0000000  0  8G29G25G10G17G12G05G04G02
  -4869285.66446  -3787955.43043  24637658.9614                   24637659.7034
 -13213768.51647 -10287631.15645  22583708.2034                   22583708.5664
 -15692952.90247 -12219255.71546  21326198.7424                   21326196.9774
   2321804.85247   1819585.79344  24303580.7584                   24303580.1524
 -19624998.27348 -15283498.41046  20785949.8284                   20785947.2664
 -20864653.00848 -16248755.05946  20766723.0704                   20766721.1644
  -4860176.15647  -3775821.44144  23068985.1024                   23068983.3164
 -18485901.18748 -14394448.42646  20789215.1094                   20789210.5274
 11  8  1  2 25  0.0000000  0  8G29G25G10G17G12G05G04G02
  -4927687.19546  -3833463.04343  24626545.0394                   24626545.8484
 -13263376.14848 -10326286.39845  22574268.0164                   22574268.5904
 -15618839.44147 -12161504.95746  21340302.0164                   21340299.8204
   2414434.92247   1891765.08244  24321208.9064                   24321206.6764
 -19612552.19948 -15273800.14547  20788318.0634                   20788315.2274
 -20895589.73848 -16272861.55946  20760836.2194                   20760834.0044
  -4755759.78547  -3694458.02344  23088855.6024                   23088853.4494
 -18442506.27748 -14360634.18446  20797472.4144                   20797468.1484
 11  8  1  2 25 30.0000000  0  8G29G25G10G17G12G05G04G02
  -4986165.60246  -3879030.58244  24615417.3914                   24615418.4694
 -13312568.51647 -10364618.04745  22564907.1644                   22564907.7114
 -15544186.25047 -12103333.62546  21354508.2664                   21354505.9454
   2507240.50847   1964081.10244  24338868.7974                   24338866.8914
 -19599532.52048 -15263654.91846  20790795.5554                   20790793.0274
 -20926014.39148 -16296569.03946  20755046.7974                   20755044.2424
  -4651345.30547  -3613096.08644  23108724.1954                   23108722.8984
 -18398927.65648 -14326676.79346  20805765.4224                   20805761.3594
 11  8  1  2 26  0.0000000  0  8G29G25G10G17G12G05G04G02
  -5044724.03146  -3924660.48844  24604274.1024                   24604274.5784
 -13361346.85547 -10402627.08245  22555624.9534                   22555625.1454
 -15468998.90647 -12044746.06646  21368815.9614                   21368814.0354
   2600217.72746   2036530.87543  24356560.9064                   24356559.4774
 -19585942.37148 -15253065.17246  20793381.5554                   20793379.4774
 -20955928.83648 -16319878.95347  20749353.6954                   20749351.6604
  -4546937.19147  -3531739.09044  23128592.7584                   23128591.2814
 -18355169.78148 -14292579.71146  20814092.4384                   20814087.6454
 11  8  1  2 26 30.0000000  0  8G29G25G10G17G12G05G04G02
  -5103356.36346  -3970347.97744  24593116.9924                   24593116.4454
 -13409703.27747 -10440307.34445  22546422.8754                   22546423.5474
 -15393273.88747 -11985739.54346  21383225.9384                   21383223.5164
   2693372.37546   2109118.91043  24374288.3444                   24374286.1764
 -19571775.74648 -15242026.21946  20796077.6024                   20796074.8014
 -20985325.88348 -16342785.70746  20743759.6564                   20743757.9104
  -4442531.05947  -3450383.65244  23148460.3524                   23148458.0864
 -18311228.52748 -14258339.75046  20822454.0864                   20822449.6414
 11  8  1  2 27  0.0000000  0  8G29G25G10G17G12G05G04G02
  -5162062.72746  -4016093.13744  24581945.4694                   24581945.5744
 -13457636.25447 -10477657.65245  22537301.4454                   22537301.8404
 -15317014.47747 -11926316.60545  21397737.7424                   21397735.5944
   2786703.47346   2181844.41843  24392048.6954                   24392047.5274
 -19557032.94148 -15230538.30146  20798882.8674                   20798880.3984
 -21014204.94148 -16365288.82446  20738264.4774                   20738262.1954
  -4338128.91447  -3369031.31644  23168327.3524                   23168324.9774
 -18267105.80548 -14223958.38746  20830850.2344                   20830845.7194
 11  8  1  2 27 30.0000000  0  8G29G25G10G17G12G05G04G02
  -5220836.03547  -4061890.49244  24570761.5084                   24570761.8364
 -13505136.83247 -10514671.03545  22528262.0864                   22528262.9264
 -15240215.75847 -11866473.44145  21412351.9304                   21412349.8634
   2880217.46946   2254712.43443  24409843.9774                   24409841.9574
 -19541707.23448 -15218596.16847  20801799.5084                   20801796.7034
 -21042557.82448 -16387381.93746  20732869.2034                   20732866.3834
  -4233725.23446  -3287677.78944  23188193.9614                   23188192.6954
 -18222795.90248 -14189431.16846  20839282.0004                   20839277.4454
 11  8  1  2 28  0.0000000  0  8G29G25G10G17G12G05G04G02
  -5279676.12946  -4107739.88744  24559564.6954                   24559565.0314
 -13552203.09847 -10551345.98045  22519305.5314                   22519306.1254
 -15162880.15647 -11806211.92246  21427068.2894                   21427066.2934
   2973914.34046   2327722.94943  24427674.0944                   24427672.4414
 -19525798.18748 -15206199.48047  20804826.6884                   20804823.8134
 -21070383.19948 -16409064.01646  20727573.6724                   20727571.5664
  -4129321.29746  -3206324.05944  23208061.9304                   23208060.3594
 -18178300.11748 -14154759.10546  20847749.4924                   20847744.9104
 11  8  1  2 28 30.0000000  0  8G29G25G10G17G12G05G04G02
  -5338586.47347  -4153643.99644  24548354.3284                   24548353.9884
 -13598836.93747 -10587683.97745  22510431.1884                   22510432.1214
 -15085014.39147 -11745537.28545  21441885.8364                   21441883.4184
   3067789.27046   2400872.19543  24445537.5314                   24445536.2704
 -19509310.10948 -15193351.60946  20807964.3914                   20807961.8164
 -21097683.68048 -16430337.07047  20722378.5474                   20722376.3554
  -4024922.45346  -3124974.28144  23227928.2274                   23227926.3954
 -18133624.08648 -14119946.59046  20856251.3674                   20856246.5394
 11  8  1  2 29  0.0000000  0  8G29G25G10G17G12G05G04G02
  -5397563.48047  -4199600.07044  24537131.6804                   24537131.4144
 -13645032.46547 -10623680.42245  22501640.8594                   22501641.3404
 -15006616.80947 -11684448.23845  21456804.1254                   21456802.0164
   3161845.68446   2474162.87143  24463435.6094                   24463434.2894
 -19492238.69148 -15180049.18446  20811212.9924                   20811210.3134
 -21124454.16448 -16451197.14846  20717284.4844                   20717281.8444
  -3920526.02746  -3043626.41444  23247794.5084                   23247792.7974
 -18088764.95748 -14084991.40246  20864787.2504                   20864782.6374
 11  8  1  2 29 30.0000000  0  8G29G25G10G17G12G05G04G02
  -5456608.85247  -4245609.41444  24525894.8674                   24525894.8244
 -13690789.92247 -10659335.51246  22492933.5084                   22492933.7664
 -14927692.15647 -11622948.49245  21471823.1954                   21471820.5004
   3256081.09546   2547593.08643  24481368.3134                   24481367.1844
 -19474586.38348 -15166294.12146  20814571.9694                   20814569.4414
 -21150695.79748 -16471645.13347  20712290.7734                   20712288.1374
  -3816135.83646  -2962283.37944  23267658.8754                   23267657.5124
 -18043726.44948 -14049896.44546  20873357.7664                   20873353.2344
 11  8  1  2 30  0.0000000  0  8G29G25G10G17G12G05G04G02
  -5515723.27747  -4291672.55144  24514646.2194                   24514645.9734
 -13736108.66847 -10694648.75445  22484309.4064                   22484310.2074
 -14848244.53947 -11561041.24646  21486941.7194                   21486939.0664
   3350493.88346   2621161.48843  24499334.6094                   24499332.2664
 -19456354.19548 -15152087.19546  20818041.2504                   20818038.9494
 -21176408.63348 -16491681.07847  20707397.4304                   20707395.3794
  -3711754.38747  -2880947.20344  23287522.5704                   23287521.2584
 -17998511.24248 -14014663.79346  20881962.0784                   20881957.6644
 11  8  1  2 30 30.0000000  0  8G29G25G10G17G12G05G04G02
  -5574906.38347  -4337789.16443  24503383.3444                   24503383.4494
 -13780986.41847 -10729618.35945  22475769.3674                   22475769.6724
 -14768275.98447 -11498728.06645  21502159.1094                   21502156.5704
   3445083.94146   2694867.98043  24517334.0164                   24517332.2814
 -19437541.93748 -15137428.27046  20821621.2664                   20821618.4614
 -21201591.16448 -16511303.79347  20702605.8134                   20702603.0704
  -3607382.70347  -2799618.60544  23307384.0084                   23307382.5084
 -17953120.38748 -13979294.27746  20890599.2584                   20890595.1684
 11  8  1  2 31  0.0000000  0  8G29G25G10G17G12G05G04G02
  -5634151.39146  -4383954.03143  24492109.1954                   24492109.0434
 -13825414.55147 -10764237.62145  22467315.0314                   22467315.6524
 -14687782.32847 -11436005.72745  21517476.5314                   21517474.3244
   3539857.34046   2768717.37943  24535369.6174                   24535367.8244
 -19418143.02048 -15122312.21946  20825313.0704                   20825309.9804
 -21226235.96948 -16530507.49247  20697915.6414                   20697913.6134
  -3503015.37146  -2718293.39544  23327244.2734                   23327243.0944
 -17907548.52748 -13943783.71946  20899271.6644                   20899267.2584
 11  8  1  2 31 30.0000000  0  8G29G25G10G17G12G05G04G02
  -5693462.26646  -4430170.16843  24480822.7814                   24480822.8094
 -13869395.60547 -10798508.50445  22458945.8674                   22458945.9614
 -14606770.46147 -11372879.57445  21532892.4774                   21532890.3444
   3634809.35946   2842705.98043  24553438.1254                   24553435.8484
 -19398162.17648 -15106742.70746  20829114.7734                   20829112.1684
 -21250346.37548 -16549294.78947  20693327.8444                   20693325.4344
  -3398658.14147  -2636976.07844  23347102.8524                   23347101.2584
 -17861801.54748 -13908136.70346  20907977.0234                   20907972.5314
 11  8  1  2 32  0.0000000  0  8G29G25G10G17G12G05G04G02
  -5752838.89146  -4476437.58243  24469523.5944                   24469523.9534
 -13912928.23047 -10832429.97345  22450661.7584                   22450662.2114
 -14525243.94947 -11309352.41045  21548406.1564                   21548404.3634
   3729939.01246   2916833.00443  24571540.8284                   24571537.8164
 -19377600.24648 -15090720.40647  20833027.3674                   20833024.6414
 -21273921.64148 -16567665.09047  20688841.5084                   20688839.0354
  -3294312.91047  -2555668.07844  23366959.0474                   23366956.9414
 -17815881.31248 -13872354.69146  20916715.2274                   20916710.5594
 11  8  1  2 32 30.0000000  0  8G29G25G10G17G12G05G04G02
  -5812279.11746  -4522754.53943  24458212.9774                   24458212.5984
 -13956008.33647 -10865998.82445  22442463.6414                   22442464.5944
 -14443202.94147 -11245424.33245  21564018.2814                   21564015.8984
   3825247.93046   2991099.68743  24589677.1564                   24589675.5634
 -19356454.98848 -15074243.55946  20837051.5944                   20837048.4454
 -21296958.56648 -16585615.90647  20684457.6564                   20684455.0004
  -3189978.63347  -2474368.64144  23386812.6334                   23386811.8594
 -17769787.00048 -13836437.01646  20925486.9144                   20925482.1684
 11  8  1  2 33  0.0000000  0  7G29G25G10G12G05G04G02
  -5871782.32446  -4569120.54343  24446890.0704                   24446889.0234
 -13998633.66447 -10899213.30945  22434352.1954                   22434352.8484
 -14360649.62547 -11181097.06645  21579727.6804                   21579725.3914
 -19334725.96948 -15057311.84046  20841186.5394                   20841183.6054
 -21319456.02048 -16603146.35547  20680176.5084                   20680174.1524
  -3085656.36747  -2393078.54744  23406665.2034                   23406662.9534
 -17723519.21948 -13800384.18446  20934291.2424                   20934286.9144
 11  8  1  2 33 30.0000000  0  7G29G25G10G12G05G04G02
  -5931348.71146  -4615535.79343  24435553.9064                   24435553.8364
 -14040803.11747 -10932072.56245  22426327.6254                   22426328.0554
 -14277587.33247 -11116373.18745  21595533.8444                   21595531.6844
 -19312414.27048 -15039926.08246  20845432.3674                   20845429.4804
 -21341413.41848 -16620255.98847  20675998.3364                   20675996.0784
  -2981348.03947  -2311799.31344  23426513.6804                   23426511.9734
 -17677080.51648 -13764198.16046  20943128.2424                   20943123.9024
 11  8  1  2 34  0.0000000  0  7G29G25G10G12G05G04G02
  -5990977.80146  -4661999.84843  24424207.3284                   24424206.8244
 -14082514.55147 -10964574.93445  22418390.3054                   22418390.5394
 -14194018.81247 -11051254.85545  21611436.5394                   21611434.4494
 -19289519.91448 -15022086.30146  20849788.8674                   20849786.0084
 -21362829.62148 -16636943.90247  20671922.7194                   20671920.3954
  -2877054.86347  -2230531.89544  23446360.2034                   23446358.4024
 -17630471.92648 -13727879.75846  20951997.4694                   20951993.2664
 11  8  1  2 34 30.0000000  0  7G29G25G10G12G05G04G02
  -6050661.41446  -4708506.43743  24412849.5394                   24412849.5434
 -14123758.46547 -10996712.98445  22410541.1564                   22410542.2194
 -14109939.00447 -10985738.11345  21627436.3914                   21627434.2624
 -19266035.25048 -15003786.55147  20854257.6024                   20854254.6484
 -21383696.32448 -16653203.64147  20667952.0004                   20667949.5864
  -2772770.21947  -2149271.14844  23466204.7894                   23466203.4384
 -17583686.85548 -13691423.84046  20960900.4844                   20960896.0084
 11  8  1  2 35  0.0000000  0  7G29G25G10G12G05G04G02
  -6110401.76647  -4755057.20343  24401482.0634                   24401480.6254
 -14164535.50847 -11028487.26245  22402782.1644                   22402782.4924
 -14025353.01647 -10919826.93745  21643532.5474                   21643530.4414
 -19241963.37148 -14985029.21547  20858838.8594                   20858835.6724
 -21404014.82448 -16669036.20347  20664085.6644                   20664082.8794
  -2668497.75047  -2068019.86343  23486047.0474                   23486045.5044
 -17536729.05548 -13654833.32846  20969835.8444                   20969831.4534
 11  8  1  2 35 30.0000000  0  7G29G25G10G12G05G04G02
  -6170201.10546  -4801653.96544  24390102.2894                   24390101.3874
 -14204846.60548 -11059898.46545  22395111.0314                   22395111.4614
 -13940266.37547 -10853525.64145  21659723.8754                   21659721.8634
 -19217307.07048 -14965816.50046  20863530.3914                   20863527.9344
 -21423786.82448 -16684442.92247  20660322.8914                   20660320.6724
  -2564241.57447  -1986781.26643  23505886.3594                   23505885.0594
 -17489602.80548 -13618111.55146  20978804.1174                   20978799.5204
 11  8  1  2 36  0.0000000  0  7G29G25G10G12G05G04G02
  -6230061.52746  -4848298.33244  24378710.9694                   24378710.0984
 -14244692.20747 -11090946.94145  22387528.6884                   22387529.0474
 -13854684.13347 -10786838.17245  21676009.5864                   21676007.5274
 -19192069.33248 -14946150.71946  20868333.1094                   20868330.2894
 -21443013.78548 -16699424.93747  20656664.0164                   20656661.6174
  -2460005.02347  -1905557.98443  23525722.8284                   23525720.1254
 -17442311.89848 -13581261.47746  20987802.8914                   20987798.5514
 11  8  1  2 36 30.0000000  0  7G29G25G10G12G05G04G02
  -6289978.03947  -4894986.41444  24367309.3204                   24367309.0984
 -14284066.03947 -11121627.80146  22380035.9384                   22380036.1524
 -13768604.52047 -10719763.14845  21692390.2424                   21692388.2464
 -19166245.76648 -14926028.44546  20873246.7734                   20873244.6884
 -21461690.23848 -16713977.98447  20653110.2424                   20653107.7814
  -2355784.89547  -1824347.48043  23545554.9304                   23545552.7034
 -17394852.96148 -13544280.45746  20996834.0084                   20996829.6334
 11  8  1  2 37  0.0000000  0  7G29G25G10G12G05G04G02
  -6349951.29747  -4941718.71544  24355896.1024                   24355895.8054
 -14322967.48448 -11151940.57846  22372633.3134                   22372633.4384
 -13682031.31647 -10652303.50445  21708864.5314                   21708862.4224
 -19139837.97348 -14905450.92646  20878272.0634                   20878269.1914
 -21479816.81248 -16728102.54747  20649660.9064                   20649658.2544
  -2251583.59447  -1743151.65244  23565383.5234                   23565381.7624
 -17347228.25848 -13507170.28146  21005896.9694                   21005892.6414
 11  8  1  2 37 30.0000000  0  7G29G25G10G12G05G04G02
  -6409983.28947  -4988496.78944  24344472.6254                   24344472.2274
 -14361397.16447 -11181885.74646  22365320.2344                   22365320.7974
 -13594969.39548 -10584463.03145  21725431.6174                   21725429.5124
 -19112848.55548 -14884420.19946  20883408.3444                   20883405.2854
 -21497395.13348 -16741799.90647  20646315.6024                   20646313.2114
  -2147404.53547  -1661973.15644  23585208.5784                   23585206.0354
 -17299441.56248 -13469933.86346  21014990.1954                   21014985.9884
 11  8  1  2 38  0.0000000  0  7G29G25G10G12G05G04G02
  -6470075.91046  -5035322.10544  24333036.9614                   24333036.6484
 -14399355.62548 -11211463.72746  22358097.4384                   22358097.5594
 -13507423.94548 -10516245.79745  21742090.8594                   21742088.5124
 -19085280.51248 -14862938.59046  20888654.1954                   20888651.6564
 -21514426.68748 -16755071.21547  20643074.7974                   20643072.0864
  -2043251.29346  -1580814.78144  23605027.9304                   23605026.7974
 -17251496.45748 -13432574.02746  21024113.8364                   21024109.7704
 11  8  1  2 38 30.0000000  0  7G29G25G10G12G05G04G02
  -6530224.80946  -5082191.28544  24321590.8524                   24321590.6994
 -14436837.06648 -11240670.00446  22350964.4614                   22350964.8244
 -13419393.99647 -10447651.02345  21758842.7894                   21758840.4494
 -19057130.06648 -14841003.16846  20894010.9304                   20894008.2544
 -21530906.33648 -16767912.46947  20639938.4614                   20639936.1804
  -1939120.92646  -1499674.21944  23624843.1564                   23624841.5634
 -17203390.21948 -13395088.61746  21033268.1414                   21033263.3954
 11  8  1  2 39  0.0000000  0  7G29G25G10G12G05G04G02
  -6590425.43046  -5129100.80944  24310135.4924                   24310134.3984
 -14473835.75047 -11269500.09846  22343923.7974                   22343923.9494
 -13330878.39847 -10378677.81645  21775686.5164                   21775684.2234
 -19028393.64548 -14818611.13746  20899479.3134                   20899476.8094
 -21546829.35948 -16780319.98447  20636908.3754                   20636906.0314
  -1835010.66447  -1418549.32844  23644654.7664                   23644652.9964
 -17155120.04748 -13357475.48446  21042453.5004                   21042449.1054
 11  8  1  2 39 30.0000000  0  7G29G25G10G12G05G04G02
  -6650678.59446  -5176051.23044  24298669.4774                   24298668.5554
 -14510351.15648 -11297953.62146  22336975.1254                   22336975.2934
 -13241880.86747 -10309329.08645  21792622.0234                   21792620.0084
 -18999073.12548 -14795763.97346  20905058.8834                   20905056.1294
 -21562196.36348 -16792294.24247  20633984.2344                   20633981.8984
  -1730922.86346  -1337441.93044  23664461.7894                   23664460.5784
 -17106688.35248 -13319736.48046  21051669.9844                   21051665.3914
 11  8  1  2 40  0.0000000  0  7G29G25G10G12G05G04G02
  -6710980.12146  -5223039.35944  24287194.1644                   24287194.0864
 -14546378.18448 -11326026.57846  22330119.6094                   22330119.8524
 -13152400.89148 -10239604.41845  21809649.7504                   21809647.5594
 -18969165.48848 -14772459.31246  20910750.2424                   20910747.0594
 -21577003.28948 -16803832.07447  20631166.5004                   20631164.0164
  -1626854.94946  -1256350.05544  23684265.4774                   23684263.9844
 -17058093.18748 -13281870.10246  21060917.2584                   21060912.6644
 11  8  1  2 40 30.0000000  0  7G29G25G10G12G05G04G02
  -6771331.07446  -5270066.01644  24275709.8054                   24275709.8284
 -14581916.69148 -11353718.87946  22323356.8524                   22323357.2034
 -13062442.91047 -10169507.27745  21826768.1254                   21826765.8284
 -18938672.68448 -14748698.66846  20916552.5234                   20916550.0634
 -21591250.93048 -16814934.10247  20628455.3444                   20628452.8444
  -1522809.62947  -1175275.78944  23704064.7584                   23704063.0204
 -17009337.18448 -13243878.39146  21070195.4064                   21070190.9384
 11  8  1  2 41  0.0000000  0  7G29G25G10G12G05G04G02
  -6831736.73846  -5317135.31644  24264214.2504                   24264213.9964
 -14616970.73048 -11381033.66046  22316685.8444                   22316686.3324
 -12972015.28547 -10099044.18445  21843975.9844                   21843973.4884
 -18907600.92648 -14724486.90246  20922465.5634                   20922462.8914
 -21604944.26648 -16825604.20747  20625849.3754                   20625846.7934
  -1418793.96947  -1094224.62544  23723857.4774                   23723857.0234
 -16960427.40648 -13205766.85246  21079502.3914                   21079497.9844
 11  8  1  2 41 30.0000000  0  7G29G25G10G12G05G04G02
  -8467615.94146  -6591846.31644  23952917.3364                   23952917.3164
 -16226957.07048 -12635568.42246  22010315.8914                   22010316.3914
 -14456535.44947 -11255813.13345  21561480.8204                   21561479.1884
 -20451367.75048 -15927422.07846  20628696.4534                   20628694.0124
 -23193500.49248 -18063440.19947  20323557.1334                   20323554.6804
  -2890222.71147  -2240792.46543  23443853.7424                   23443853.4774
 -18486780.66448 -14395133.00846  20789046.8364                   20789042.2934
 11  8  1  2 42  0.0000000  0  7G29G25G10G12G05G04G02
  -8528121.91847  -6638993.75444  23941403.6024                   23941403.2774
 -16261029.59048 -12662118.39546  22003831.9924                   22003831.8594
 -14365169.81647 -11184619.12545  21578867.1804                   21578865.4344
 -20419133.11748 -15902304.18046  20634830.5004                   20634827.5784
 -23206075.95348 -18073239.23847  20321164.1024                   20321161.9184
  -2786261.76247  -2159783.92643  23463636.8914                   23463636.1334
 -18437559.12948 -14356778.54746  20798413.8284                   20798408.9964
 11  8  1  2 42 30.0000000  0  7G29G25G10G12G05G04G02
  -8588678.63746  -6686180.73844  23929879.5704                   23929879.4264
 -16294610.37148 -12688285.18746  21997441.8524                   21997441.9804
 -14273340.84847 -11113064.06645  21596342.0944                   21596339.8714
 -20386319.42248 -15876735.05946  20641074.5004                   20641071.6414
 -23218093.05948 -18082603.18447  20318877.7274                   20318874.9844
  -2682331.24247  -2078799.10243  23483415.2974                   23483413.7774
 -18388185.27048 -14318305.38746  20807809.2194                   20807804.5394
 11  8  1  2 43  0.0000000  0  7G29G25G10G12G05G04G02
  -8649287.64547  -6733408.46943  23918346.6334                   23918345.8364
 -16327699.76248 -12714069.07846  21991145.1094                   21991145.8914
 -14181053.43747 -11041151.79345  21613903.5394                   21613901.4614
 -20352928.81648 -15850716.39846  20647428.7194                   20647426.0554
 -23229553.20348 -18091533.14147  20316696.5784                   20316693.8754
  -2578434.25047  -1997840.39143  23503185.3444                   23503184.0474
 -18338662.16448 -14279715.94146  20817233.3364                   20817228.8674
 11  8  1  2 43 30.0000000  0  7G29G25G10G12G05G04G02
  -8709941.80546  -6780671.35944  23906804.3594                   23906803.0394
 -16360289.53548 -12739463.65646  21984943.4304                   21984943.7464
 -14088304.04747 -10968879.53145  21631553.3914                   21631550.8874
 -20318956.02348 -15824244.08246  20653892.8594                   20653890.9064
 -23240449.08648 -18100023.41047  20314623.3054                   20314620.9924
  -2474564.95747  -1916903.23843  23522951.8204                   23522949.4804
 -18288984.17248 -14241005.80546  20826686.3054                   20826681.6024
 11  8  1  2 44  0.0000000  0  7G29G25G10G12G05G04G02
  -8770647.32446  -6827974.28944  23895251.9454                   23895251.6804
 -16392385.30948 -12764473.29746  21978835.8914                   21978836.0904
 -13995102.70747 -10896255.09845  21649288.9064                   21649286.5394
 -20284408.66448 -15797324.05146  20660467.6334                   20660464.9384
 -23250787.21948 -18108079.07047  20312655.6334                   20312653.6414
  -2370731.78147  -1835994.27043  23542710.2814                   23542708.3524
 -18239159.69148 -14202181.51646  20836167.7814                   20836162.9694
 11  8  1  2 44 30.0000000  0  7G29G25G10G12G05G04G02
  -8831402.62946  -6875315.98044  23883691.4384                   23883690.1454
 -16423984.19548 -12789095.76646  21972822.9694                   21972822.5984
 -13901450.67247 -10823279.48045  21667110.2974                   21667108.2274
 -20249286.12948 -15769955.84846  20667151.1334                   20667148.7624
 -23260566.24248 -18115699.05947  20310794.9614                   20310792.4454
  -2266934.41847  -1755113.21543  23562462.8364                   23562460.5354
 -18189188.59048 -14163242.98046  20845677.1414                   20845672.6374
 11  8  1  2 45  0.0000000  0  7G29G25G10G12G05G04G02
  -8892200.93746  -6922691.16043  23872121.2424                   23872120.1134
 -16455078.55948 -12813325.09846  21966905.6174                   21966905.4064
 -13807345.06247 -10749950.44545  21685018.1024                   21685015.2774
 -20213583.27748 -15742135.43046  20673945.5784                   20673942.6024
 -23269779.33248 -18122878.06247  20309041.7194                   20309039.0434
  -2163167.88347  -1674256.15643  23582209.0554                   23582206.5004
 -18139066.31248 -14124186.64546  20855214.8134                   20855210.4774
 11  8  1  2 45 30.0000000  0  7G29G25G10G12G05G04G02
  -8953044.53146  -6970101.64143  23860542.2584                   23860542.3914
 -16485669.52748 -12837162.16846  21961084.3134                   21961083.9534
 -13712791.51647 -10676272.33645  21703011.1024                   21703008.7624
 -20177303.29348 -15713865.31246  20680848.8284                   20680846.2934
 -23278428.66048 -18129617.77347  20307395.9454                   20307393.6724
  -2059435.43447  -1593425.65643  23601947.7034                   23601946.2384
 -18088796.46148 -14085015.31646  20864780.8444                   20864776.1764
 11  8  1  2 46  0.0000000  0  7G29G25G10G12G05G04G02
  -9013928.70346  -7017543.74244  23848957.2664                   23848956.4304
 -16515751.75048 -12860602.82046  21955359.7974                   21955359.9264
 -13617789.14147 -10602244.50445  21721089.1954                   21721086.9534
 -20140443.42648 -15685143.32446  20687863.3284                   20687860.4224
 -23286509.99248 -18135914.88747  20305858.0554                   20305855.0234
  -1955734.50047  -1512619.72344  23621681.5314                   23621680.1604
 -18038376.31248 -14045726.87946  20874375.4534                   20874370.9224
 11  8  1  2 46 30.0000000  0  7G29G25G10G12G05G04G02
  -9074859.05946  -7065021.83644  23837362.3834                   23837360.6564
 -16545329.93448 -12883650.71946  21949731.1334                   21949731.4964
 -13522347.01647 -10527874.02045  21739251.0944                   21739248.9104
 -20103010.45748 -15655974.77747  20694986.7034                   20694983.8484
 -23294029.07848 -18141773.89547  20304426.7584                   20304424.4304
  -1852072.18447  -1431843.87544  23641407.7734                   23641406.4454
 -17987813.28948 -14006327.10946  20883997.4534                   20883993.0394
 11  8  1  2 47  0.0000000  0  7G29G25G10G12G05G04G02
  -9135826.60947  -7112528.90244  23825760.2664                   23825759.6454
 -16574393.97348 -12906297.98846  21944200.3754                   21944201.0124
 -13426459.39547 -10453156.38345  21757498.2974                   21757495.7774
 -20064996.51248 -15626353.51246  20702220.3284                   20702217.4224
 -23300977.12548 -18147187.93747  20303104.8444                   20303102.2544
  -1748441.01647  -1351092.30943  23661127.8594                   23661126.8054
 -17937099.90248 -13966810.17246  20893647.4304                   20893643.0744
 11  8  1  2 47 30.0000000  0  7G29G25G10G12G05G04G02
  -9196833.15246  -7160066.33244  23814150.6174                   23814150.1604
 -16602945.05548 -12928545.55546  21938767.3754                   21938767.3674
 -13330131.91447 -10378096.01245  21775828.3914                   21775826.2734
 -20026405.58248 -15596282.65246  20709563.7504                   20709561.3714
 -23307356.64848 -18152158.96947  20301891.0084                   20301888.1294
  -1644844.35246  -1270367.62144  23680842.4304                   23680840.4844
 -17886239.98848 -13927179.05146  20903326.2194                   20903320.9024
 11  8  1  2 48  0.0000000  0  7G29G25G10G12G05G04G02
  -9257879.85247  -7207635.08244  23802534.3054                   23802533.8054
 -16630984.00848 -12950394.05146  21933431.6884                   21933431.5554
 -13233369.69147 -10302696.86745  21794241.7194                   21794239.3094
 -19987240.78148 -15565764.61346  20717016.6174                   20717013.8054
 -23313169.07048 -18156688.10547  20300785.0234                   20300782.6094
  -1541285.62147  -1189672.52744  23700548.6724                   23700546.8524
 -17835237.07048 -13887436.51246  20913031.6724                   20913027.1094
 11  8  1  2 48 30.0000000  0  7G29G25G10G12G05G04G02
  -9318963.02347  -7255232.22744  23790910.5164                   23790910.1644
 -16658506.09448 -12971839.80146  21928194.2664                   21928194.4104
 -13136172.40647 -10226958.71145  21812737.8754                   21812735.8364
 -19947499.53148 -15534797.39546  20724579.1564                   20724576.4224
 -23318410.79748 -18160772.54747  20299787.2664                   20299784.5634
  -1437762.23047  -1109004.95343  23720247.8524                   23720246.9104
 -17784088.76248 -13847580.66846  20922764.5004                   20922760.0784
 11  8  1  2 49  0.0000000  0  7G29G25G10G12G05G04G02
  -9380084.80547  -7302859.48044  23779279.4694                   23779278.3524
 -16685512.61348 -12992883.80946  21923055.1024                   21923055.1954
 -13038545.89547 -10150886.11745  21831315.2664                   21831313.3834
 -19907185.38348 -15503383.76646  20732250.8674                   20732247.9574
 -23323084.47348 -18164414.34847  20298897.9774                   20298895.5904
  -1334277.88747  -1028367.83244  23739940.7504                   23739938.9064
 -17732798.59448 -13807614.30546  20932524.7114                   20932520.4614
 11  8  1  2 49 30.0000000  0  7G29G25G10G12G05G04G02
  -9441248.57047  -7350519.43444  23767639.8754                   23767638.9304
 -16712006.04348 -13013528.01646  21918013.4774                   21918013.8714
 -12940496.99647 -10074484.37545  21849973.7584                   21849970.8164
 -19866303.73048 -15471527.92646  20740030.2814                   20740027.6254
 -23327193.74248 -18167616.35947  20298116.2114                   20298113.7504
  -1230837.55947   -947764.96944  23759624.8524                   23759624.3484
 -17681372.34048 -13767541.88746  20942310.6804                   20942306.4184
 11  8  1  2 50  0.0000000  0  7G29G25G10G12G05G04G02
  -9502440.39547  -7398201.28544  23755995.6804                   23755994.2854
 -16737972.26248 -13033761.39146  21913072.2504                   21913072.0124
 -12842015.96547  -9997745.90245  21868713.7894                   21868711.3714
 -19824842.36348 -15439220.35546  20747920.2034                   20747917.3674
 -23330725.29348 -18170368.18747  20297443.8284                   20297441.4414
  -1127429.33246   -867187.11343  23779302.5394                   23779301.1054
 -17629797.94548 -13727354.03946  20952125.2034                   20952120.5904
 11  8  1  2 50 30.0000000  0  7G29G25G10G12G05G04G02
  -9563672.78546  -7445914.73044  23744343.3364                   23744342.5314
 -16763422.51248 -13053592.72746  21908229.3364                   21908229.5824
 -12743118.52747  -9920682.97345  21887533.7504                   21887531.1994
 -19782815.05548 -15406471.79346  20755917.5234                   20755914.7464
 -23333691.84048 -18172679.76647  20296879.3524                   20296876.8874
  -1024066.75446   -786644.84844  23798972.1414                   23798971.3714
 -17578089.40648 -13687061.66446  20961965.3204                   20961960.7194
 11  8  1  2 51  0.0000000  0  7G29G25G10G12G05G04G02
  -9624944.47347  -7493658.82044  23732684.1174                   23732682.3244
 -16788355.39848 -13073020.92246  21903484.6414                   21903484.7074
 -12643807.37547  -9843297.66445  21906431.9924                   21906429.4344
 -19740222.97348 -15373283.14146  20764022.5004                   20764019.7704
 -23336093.11748 -18174550.86747  20296422.6254                   20296420.1484
   -920750.50846   -706138.69543  23818633.0164                   23818631.4964
 -17526247.22348 -13646665.14846  20971830.2194                   20971825.5204
 11  8  1  2 51 30.0000000  0  7G29G25G10G12G05G04G02
  -9686248.37146  -7541427.99244  23721017.9844                   23721017.3094
 -16812763.07048 -13092039.85946  21898839.9224                   21898839.8984
 -12544079.45347  -9765587.60245  21925409.1954                   21925407.0554
 -19697060.70348 -15339650.19546  20772235.9694                   20772233.1524
 -23337922.08248 -18175976.01247  20296074.3984                   20296072.0474
   -817475.02346   -625664.28144  23838285.9774                   23838283.2774
 -17474266.29348 -13606160.52346  20981721.7424                   20981717.3634
 11  8  1  2 52  0.0000000  0  7G29G25G10G12G05G04G02
  -9747580.93046  -7589219.50444  23709346.5234                   23709346.1054
 -16836641.55148 -13110646.44146  21894296.2664                   21894296.3834
 -12443934.84047  -9687552.84045  21944466.1254                   21944463.5394
 -19653326.62948 -15305571.67646  20780558.2194                   20780555.6054
 -23339176.23848 -18176953.25447  20295835.5864                   20295833.0514
   -714238.26247   -545220.02743  23857931.2344                   23857928.0204
 -17422145.07048 -13565546.57846  20991640.1484                   20991635.6334
 11  8  1  2 52 30.0000000  0  7G29G25G10G12G05G04G02
  -9808948.00046  -7637037.93044  23697668.9304                   23697667.7034
 -16859996.16848 -13128844.80546  21889852.0084                   21889852.0744
 -12343383.34048  -9609201.02345  21963600.7424                   21963598.2074
 -19609028.36748 -15271053.53546  20788988.3524                   20788985.2584
 -23339862.00448 -18177487.59847  20295705.3834                   20295702.6484
   -611047.95346   -464811.98443  23877566.9454                   23877565.1334
 -17369891.08648 -13524829.18046  21001583.9304                   21001579.2734
 11  8  1  2 53  0.0000000  0  7G29G25G10G12G05G04G02
  -9870350.44547  -7684883.91044  23685984.2664                   23685982.8054
 -16882827.12948 -13146635.14146  21885507.1484                   21885507.4144
 -12242429.17247  -9530535.43745  21982811.6804                   21982809.1564
 -19564168.69548 -15236097.93746  20797524.3284                   20797521.8984
 -23339980.98048 -18177580.28547  20295682.3834                   20295680.1564
   -507906.34847   -384441.90644  23897195.0704                   23897192.3364
 -17317507.05148 -13484010.44146  21011552.1804                   21011547.5984
 11  8  1  2 53 30.0000000  0  7G29G25G10G12G05G04G02
  -9931780.61347  -7732751.48444  23674294.4844                   23674293.0084
 -16905126.55948 -13164011.29346  21881263.5394                   21881263.8444
 -12141068.96947  -9451553.46145  22002099.8914                   22002097.5314
 -19518741.89848 -15200700.41846  20806169.0634                   20806166.0514
 -23339526.25048 -18177225.92647  20295769.0394                   20295766.9414
   -404807.64847   -304105.23843  23916812.9924                   23916811.7074
 -17264987.26648 -13443085.92646  21021546.3284                   21021541.6564
 11  8  1  2 54  0.0000000  0  7G29G25G10G12G05G04G02
  -9993237.66847  -7780640.03144  23662599.5234                   23662598.1294
 -16926893.14148 -13180972.24246  21877121.7114                   21877121.9574
 -12039305.61347  -9372257.35245  22021464.3054                   22021461.9654
 -19472749.39148 -15164862.09846  20814921.0634                   20814918.0434
 -23338497.44148 -18176424.23847  20295965.0314                   20295962.2734
   -301752.46947   -223802.49643  23936423.8444                   23936421.6094
 -17212332.56648 -13402056.28146  21031566.2344                   21031561.5124
 11  8  1  2 54 30.0000000  0  7G29G25G10G12G05G04G02
 -10054726.74247  -7828553.53944  23650898.0704                   23650897.6334
 -16948131.34848 -13197521.46946  21873079.9064                   21873080.7304
 -11937147.75047  -9292653.82845  22040904.5944                   22040901.9654
 -19426198.06248 -15128588.32046  20823779.7584                   20823776.5314
 -23336900.50848 -18175179.85247  20296268.7114                   20296266.3554
   -198747.48446   -143538.85943  23956024.5864                   23956023.2304
 -17159549.83648 -13360926.86746  21041610.6414                   21041605.4694
 11  8  1  2 55  0.0000000  0  7G29G25G10G12G05G04G02
 -10116243.00047  -7876488.21144  23639192.2894                   23639190.8554
 -16968836.04748 -13213654.97346  21869140.2504                   21869140.6414
 -11834594.51247  -9212742.20345  22060419.9844                   22060416.7584
 -19379084.75848 -15091876.64846  20832744.7974                   20832741.8364
 -23334731.41848 -18173489.62547  20296681.5634                   20296678.8984
    -95789.39147    -63311.78943  23975617.6644                   23975616.0434
 -17106636.21548 -13319695.46546  21051679.5944                   21051675.0664
 11  8  1  2 55 30.0000000  0  7G29G25G10G12G05G04G02
 -10177785.66047  -7924443.44544  23627481.1094                   23627479.7584
 -16989006.33248 -13229372.05146  21865301.9064                   21865302.1414
 -11731649.53147  -9132525.33645  22080009.7114                   22080007.5234
 -19331411.84048 -15054728.91846  20841817.1094                   20841813.7114
 -23331990.80948 -18171354.05947  20297203.2034                   20297200.3364
      7120.41046     16877.69543  23995200.8284                   23995198.6334
 -17053593.00448 -13278363.07446  21061773.4224                   21061769.1564
 11  8  1  2 56  0.0000000  0  7G29G25G10G12G05G04G02
 -10239342.92247  -7972410.07444  23615767.2194                   23615765.9694
 -17008629.86348 -13244663.08246  21861567.4694                   21861568.0634
 -11628304.50847  -9051996.75045  22099675.5554                   22099673.1844
 -19283168.96548 -15017137.05946  20850996.8524                   20850994.3324
 -23328667.02348 -18168764.07847  20297835.2424                   20297832.6214
    109992.76646     97037.97343  24014776.6414                   24014775.3554
 -17000409.87948 -13236921.67646  21071893.8134                   21071889.2074
 11  8  1  2 56 30.0000000  0  7G29G25G10G12G05G04G02
 -10300921.84047  -8020393.59444  23604048.6564                   23604047.6804
 -17027713.85948 -13259533.70746  21857936.0704                   21857936.4064
 -11524570.75047  -8971165.24245  22119415.4844                   22119412.5824
 -19234365.90648 -14979108.69946  20860283.9774                   20860281.0944
 -23324768.61748 -18165726.33647  20298577.2894                   20298574.9304
    212818.44146    177161.87943  24034344.1484                   24034342.2704
 -16947096.23848 -13195378.56246  21082038.8204                   21082034.5044
 11  8  1  2 57  0.0000000  0  7G29G25G10G12G05G04G02
 -10362524.67247  -8068395.71944  23592326.5314                   23592324.8874
 -17046259.82048 -13273985.07846  21854407.1884                   21854407.2464
 -11420454.09847  -8890035.38745  22139228.8524                   22139225.7424
 -19185006.72348 -14940646.99246  20869676.7504                   20869673.9774
 -23320298.40248 -18162243.03147  20299427.7894                   20299425.7584
    315593.87646    257246.63943  24053901.4454                   24053899.9654
 -16893655.69548 -13153736.56246  21092208.2734                   21092203.8794
 11  8  1  2 57 30.0000000  0  7G29G25G10G12G05G04G02
 -10424146.42647  -8116412.59444  23580599.7504                   23580598.0944
 -17064262.85548 -13288013.39846  21850981.0864                   21850981.1134
 -11315953.92647  -8808606.67645  22159114.0554                   22159111.8714
 -19135088.77748 -14901749.89846  20879175.5394                   20879172.9804
 -23315252.72748 -18158311.31647  20300388.1174                   20300385.5434
    418322.16446    337294.60243  24073450.1804                   24073448.1134
 -16840085.45748 -13111993.50446  21102402.3444                   21102397.8014
 11  8  1  2 58  0.0000000  0  7G29G25G10G12G05G04G02
 -10485786.70747  -8164443.92644  23568869.7814                   23568869.0204
 -17081722.30548 -13301618.14146  21847658.4454                   21847658.8364
 -11211073.43747  -8726881.62145  22179071.9534                   22179069.6804
 -19084613.44948 -14862418.47346  20888780.8754                   20888778.1764
 -23309631.93448 -18153931.45347  20301457.5554                   20301455.0394
    521002.36346    417305.16843  24092989.1024                   24092987.2154
 -16786386.89548 -13070150.44546  21112620.5084                   21112616.7814
 11  8  1  2 58 30.0000000  0  7G29G25G10G12G05G04G02
 -10547441.00047  -8212486.16844  23557137.3134                   23557136.1294
 -17098633.48048 -13314795.66446  21844440.2344                   21844440.7894
 -11105812.09847  -8644859.79345  22199102.3444                   22199100.3404
 -19033579.39548 -14822651.67646  20898492.3524                   20898489.9414
 -23303433.05548 -18149101.14147  20302637.0554                   20302634.7464
    623637.21546    497280.38743  24112520.0554                   24112517.8914
 -16732557.84448 -13028205.72346  21122864.2894                   21122859.8984
 11  8  1  2 59  0.0000000  0  7G29G25G10G12G05G04G02
 -10609109.89847  -8260539.80144  23545402.3284                   23545400.7194
 -17114997.02748 -13327546.46546  21841326.7814                   21841326.6024
 -11000175.03147  -8562545.19545  22219204.3204                   22219202.2774
 -18981989.50048 -14782451.75846  20908309.4844                   20908306.6454
 -23296657.47748 -18143821.44547  20303926.4384                   20303924.2624
    726224.32846    577218.41843  24132040.4924                   24132039.4224
 -16678600.33648 -12986160.89546  21133131.9384                   21133127.5784
 11  8  1  2 59 30.0000000  0  7G29G25G10G12G05G04G02
 -10670795.38747  -8308606.36744  23533664.3834                   23533662.8554
 -17130814.62948 -13339871.85246  21838316.6724                   21838316.5474
 -10894167.87147  -8479942.21545  22239377.5864                   22239375.0744
 -18929847.85248 -14741821.90646  20918231.6644                   20918229.0394
 -23289308.17648 -18138094.69547  20305325.2034                   20305322.5704
    828760.26246    657116.55943  24151552.8674                   24151551.5634
 -16624517.92248 -12944018.73846  21143423.4774                   21143419.3094
 11  8  1  3  0  0.0000000  0  7G29G25G10G12G05G04G02
 -10732494.90647  -8356683.84444  23521923.2034                   23521921.6604
 -17146083.82048 -13351769.89146  21835411.0004                   21835411.1604
 -10787792.01247  -8397051.93445  22259620.2584                   22259617.4734
 -18877154.35248 -14700762.03546  20928259.1094                   20928256.7894
 -23281384.00848 -18131920.00047  20306832.8984                   20306830.5634
    931245.80947    736975.41844  24171055.5234                   24171054.6524
 -16570310.53548 -12901779.20346  21153738.6644                   21153733.9494
 11  8  1  3  0 30.0000000  0  7G29G25G10G12G05G04G02
 -10794208.85247  -8404772.58644  23510179.0234                   23510177.8554
 -17160804.84048 -13363240.80146  21832609.5394                   21832609.8134
 -10681052.01247  -8313877.90645  22279932.0784                   22279929.9184
 -18823911.30548 -14659273.94546  20938391.0084                   20938387.8874
 -23272886.25448 -18125298.35247  20308449.7974                   20308447.4494
   1033679.09847    816793.57044  24190548.4534                   24190546.6094
 -16515980.24647 -12859443.90246  21164077.6884                   21164073.1724
 11  8  1  3  1  0.0000000  0  7G29G25G10G12G05G04G02
 -10855934.20347  -8452870.20744  23498433.2664                   23498432.1094
 -17174974.68748 -13374282.22346  21829913.5234                   21829913.2464
 -10573948.96147  -8230420.97345  22300313.0944                   22300310.4304
 -18770118.76248 -14617357.67646  20948627.1484                   20948624.5164
 -23263813.24248 -18118228.45347  20310176.2814                   20310174.1684
   1136061.64547    896572.18443  24210030.8754                   24210029.1914
 -16461525.72348 -12817011.79346  21174440.0084                   21174435.0474
 11  8  1  3  1 30.0000000  0  7G29G25G10G12G05G04G02
 -10917671.01647  -8500976.76244  23486684.8834                   23486684.5124
 -17188593.64848 -13384894.39846  21827321.6724                   21827321.4494
 -10466487.06247  -8146684.43045  22320762.0474                   22320759.6994
 -18715779.42248 -14575015.34046  20958967.3594                   20958965.0204
 -23254166.67248 -18110711.62547  20312012.2664                   20312009.7194
   1238391.35546    976309.60243  24229503.3914                   24229501.2774
 -16406949.27348 -12774484.66446  21184825.9064                   21184820.7624
 11  8  1  3  2  0.0000000  0  7G29G25G10G12G05G04G02
 -10979418.89847  -8549091.94544  23474935.0004                   23474933.7154
 -17201661.31648 -13395076.97746  21824835.0784                   21824835.2704
 -10358669.89847  -8062671.05145  22341278.9384                   22341276.4574
 -18660895.50848 -14532248.64146  20969411.6254                   20969409.1764
 -23243947.41848 -18102748.56247  20313956.8284                   20313954.3134
   1340667.15646   1056005.06643  24248965.4144                   24248963.9964
 -16352252.31648 -12731863.65246  21195233.5474                   21195229.1024
 11  8  1  3  2 30.0000000  0  7G29G25G10G12G05G04G02
 -11041175.07447  -8597213.59444  23463183.1254                   23463181.3794
 -17214174.96148 -13404827.85246  21822453.4224                   21822453.5234
 -10250498.93747  -7978381.98445  22361863.3674                   22361860.5274
 -18605466.44148 -14489057.16046  20979959.3754                   20979956.5664
 -23233153.85948 -18094337.97747  20316010.6254                   20316008.1844
   1442890.16046   1135659.35943  24268418.6254                   24268416.1254
 -16297433.80147 -12689147.92246  21205665.6724                   21205660.5204
 11  8  1  3  3  0.0000000  0  7G29G25G10G12G05G04G02
 -11102934.98447  -8645338.11344  23451430.4694                   23451429.0234
 -17226130.20348 -13414143.61346  21820178.8594                   21820179.0864
 -10141973.67647  -7893816.83645  22382515.1724                   22382512.3554
 -18549490.52348 -14445439.56646  20990611.2504                   20990608.3324
 -23221782.72348 -18085477.33647  20318174.6094                   20318171.9694
   1545063.42946   1215274.87143  24287860.9534                   24287859.1484
 -16242491.05148 -12646335.38746  21216120.7344                   21216116.0124
 11  8  1  3  3 30.0000000  0  7G29G25G10G12G05G04G02
 -11164703.34447  -8693469.24644  23439675.5554                   23439674.4384
 -17237532.02048 -13423028.12946  21818008.7424                   21818008.5514
 -10033103.07447  -7808982.60245  22403232.3754                   22403229.8164
 -18492975.09448 -14401401.56246  21001366.0234                   21001363.2114
 -23209840.34448 -18076171.57047  20320447.0634                   20320444.2934
   1647180.47746   1294846.58243  24307293.3364                   24307291.7464
 -16187430.90648 -12603431.36746  21226598.3204                   21226593.4224
 11  8  1  3  4  0.0000000  0  7G29G25G10G12G05G04G02
 -11226472.07447  -8741600.64844  23427921.5234                   23427920.5164
 -17248372.41048 -13431475.16446  21815945.8984                   21815946.2584
  -9923882.97747  -7723876.02744  22424015.8524                   22424013.9454
 -18435914.75448 -14356938.94946  21012224.0634                   21012221.3284
 -23197320.04748 -18066415.47347  20322829.8444                   20322827.0704
   1749247.76246   1374379.50443  24326716.5314                   24326713.9844
 -16132247.10248 -12560430.98846  21237099.4614                   21237095.0824
 11  8  1  3  4 30.0000000  0  7G29G25G10G12G05G04G02
 -11288238.17247  -8789729.98844  23416168.1414                   23416165.9574
 -17258648.71948 -13439482.66046  21813990.4144                   21813990.8634
  -9814314.64847  -7638498.13744  22444866.4064                   22444864.2304
 -18378309.13748 -14312051.46146  21023186.2894                   21023183.3794
 -23184220.25048 -18056207.82447  20325322.4844                   20325319.6454
   1851266.46946   1453874.55943  24346130.2974                   24346128.1214
 -16076938.85248 -12517333.64546  21247624.2974                   21247619.6294
 11  8  1  3  5  0.0000000  0  7G29G25G10G12G05G04G02
 -11350004.97347  -8837859.87144  23404414.0864                   23404413.3014
 -17268364.57848 -13447053.43446  21812141.7114                   21812142.0864
  -9704405.75047  -7552854.84044  22465781.1024                   22465778.6094
 -18320164.12148 -14266743.64546  21034250.6024                   21034248.0274
 -23170546.09048 -18045552.61747  20327924.5004                   20327921.8284
   1953231.69146   1533327.97743  24365533.2974                   24365531.6994
 -16021510.95748 -12474143.07446  21258171.9224                   21258167.0904
 11  8  1  3  5 30.0000000  0  8G29G25G10G26G12G05G04G02
 -11411773.80947  -8885991.32844  23392659.6414                   23392658.6994
 -17277521.46948 -13454188.65246  21810398.8204                   21810398.8794
  -9594161.43047  -7466950.16044  22486759.8444                   22486758.0944
  -6407342.77015                  24846492.125
 -18261484.67648 -14221019.39846  21045417.1174                   21045414.3674
 -23156300.00848 -18034451.76647  20330635.5474                   20330632.9064
   2055140.45346   1612737.39543  24384925.6254                   24384923.8284
 -15965966.95348 -12430862.02746  21268741.6024                   21268736.8634
 11  8  1  3  6  0.0000000  0  8G29G25G10G26G12G05G04G02
 -11473544.32047  -8934124.10945  23380905.4144                   23380904.1374
 -17286119.56648 -13460888.44546  21808762.5634                   21808762.5904
  -9483585.59847  -7380787.19145  22507802.3594                   22507799.3834
  -6480194.910 6                  24832628.414
 -18202272.75048 -14174880.23446  21056684.8524                   21056681.6994
 -23141483.44948 -18022906.37147  20333455.0004                   20333452.6454
   2156991.35246   1692101.71943  24404307.3054                   24404305.9734
 -15910308.55948 -12387491.84446  21279332.7894                   21279328.3364
 11  8  1  3  6 30.0000000  0  8G29G25G10G26G12G05G04G02
 -11535320.85247  -8982261.55545  23369149.3524                   23369148.4104
 -17294163.73048 -13467156.59846  21807231.8984                   21807232.1604
  -9372687.10247  -7294372.77745  22528905.3284                   22528902.6374
  -6553179.46946  -5087641.64553  24818740.8284                   24818738.0944
 -18142535.66448 -14128331.85546  21068052.1484                   21068049.3364
 -23126102.78548 -18010921.43447  20336381.8444                   20336379.4304
   2258778.26247   1771416.18843  24423677.2194                   24423675.2774
 -15854541.80548 -12344037.22746  21289944.8364                   21289940.8794
 11  8  1  3  7  0.0000000  0  8G29G25G10G26G12G05G04G02
 -11597096.20747  -9030398.10544  23357393.8524                   23357392.9264
 -17301646.89148 -13472987.59846  21805807.8594                   21805808.2584
  -9261462.77047  -7207704.46545  22550070.8674                   22550068.0004
  -6626287.55146  -5144608.84043  24804828.3674                   24804827.8524
 -18082268.57048 -14081370.48046  21079520.7734                   21079517.5044
 -23110151.98048 -17998492.21547  20339417.0554                   20339414.7114
   2360507.10247   1850685.40643  24443035.7814                   24443033.4414
 -15798661.35548 -12300494.01246  21300578.8054                   21300574.4264
 11  8  1  3  7 30.0000000  0  8G29G25G10G26G12G05G04G02
 -11658872.12147  -9078535.08245  23345638.2974                   23345636.6334
 -17308571.38348 -13478383.28546  21804490.4924                   21804489.9304
  -9149918.79347  -7120787.07045  22571297.0554                   22571294.6524
  -6699519.46546  -5201672.48043  24790892.8204                   24790892.1804
 -18021476.95348 -14034000.39546  21091089.2734                   21091086.0784
 -23093634.82848 -17985621.68447  20342560.4064                   20342557.6484
   2462174.25847   1929906.56643  24462381.6884                   24462379.6484
 -15742670.88348 -12256865.07046  21311233.4534                   21311228.6644
 11  8  1  3  8  0.0000000  0  8G29G25G10G26G12G05G04G02
 -11720637.43747  -9126663.80145  23333884.7974                   23333883.7114
 -17314926.43448 -13483335.25046  21803281.2194                   21803281.1334
  -9038048.22747  -7033615.21545  22592585.1804                   22592582.3244
  -6772862.36746  -5258822.63743  24776934.7894                   24776935.4654
 -17960151.95748 -13986214.68446  21102758.7664                   21102756.0984
 -23076541.42248 -17972302.14147  20345813.2034                   20345810.5274
   2563789.35947   2009087.16043  24481718.7664                   24481716.9964
 -15686561.46148 -12213143.43746  21321910.7344                   21321905.7624
 11  8  1  3  8 30.0000000  0  8G29G25G10G26G12G05G04G02
 -11782400.58247  -9174790.82445  23322131.6174                   23322130.4964
 -17320720.98848 -13487850.45746  21802178.3524                   21802178.2774
  -8925863.80947  -6946198.78145  22613933.2034                   22613930.7154
  -6846323.30546  -5316064.77743  24762956.0234                   24762956.4654
 -17898305.54348 -13938022.68046  21114527.5004                   21114524.8954
 -23058882.59048 -17958541.99647  20349173.2274                   20349170.7304
   2665342.27047   2088219.29344  24501043.4844                   24501042.5864
 -15630343.32848 -12169337.09446  21332608.5864                   21332604.0664
 11  8  1  3  9  0.0000000  0  8G29G25G10G26G12G05G04G02
 -11844154.03147  -9222910.30545  23310380.7504                   23310378.6134
 -17325948.05148 -13491923.47346  21801183.5634                   21801183.5944
  -8813361.98047  -6858535.02044  22635340.9384                   22635338.9534
  -6919892.92646  -5373391.60244  24748956.1884                   24748956.0944
 -17835932.77348 -13889420.51246  21126396.7504                   21126394.2304
 -23040652.05548 -17944336.36747  20352642.6174                   20352639.7034
   2766838.73846   2167307.43043  24520357.4224                   24520356.1174
 -15574010.72747 -12125441.55946  21343328.3284                   21343323.7304
 11  8  1  3  9 30.0000000  0  8G29G25G10G26G12G05G04G02
 -11905889.01247  -9271015.40645  23298632.2814                   23298630.2734
 -17330599.54348 -13495547.98846  21800298.3834                   21800298.3984
  -8700538.19947  -6770620.39845  22656811.0164                   22656808.5394
  -6993561.24246  -5430795.35943  24734937.6414                   24734937.8244
 -17773028.26248 -13840404.01246  21138367.2344                   21138364.5984
 -23021843.06248 -17929679.99247  20356221.5554                   20356219.0904
   2868286.03146   2246357.23043  24539662.5234                   24539660.7814
 -15517557.11348 -12081451.72746  21354071.4144                   21354066.6994
 11  8  1  3 10  0.0000000  0  8G29G25G10G26G12G05G04G02
 -11967616.20747  -9319114.43445  23286885.5634                   23286884.5314
 -17334686.83248 -13498732.86346  21799520.8364                   21799520.6524
  -8587407.78947  -6682466.80544  22678339.0314                   22678336.2974
  -7067337.14847  -5488282.93043  24720898.4924                   24720898.3444
 -17709605.45348 -13790983.65646  21150436.4454                   21150433.6054
 -23002468.29348 -17914582.75447  20359908.7664                   20359905.5944
   2969671.39146   2325358.78543  24558955.5164                   24558953.2074
 -15460995.21548 -12037377.52346  21364834.5314                   21364829.6764
 11  8  1  3 10 30.0000000  0  8G29G25G10G26G12G05G04G02
 -12029323.94947  -9367198.31244  23275143.3134                   23275141.8754
 -17338198.69948 -13501469.35946  21798852.5084                   21798852.2424
  -8473962.88747  -6594068.18444  22699926.4774                   22699924.6604
  -7141207.33646  -5545843.95343  24706841.5164                   24706841.0664
 -17645656.03148 -13741152.93446  21162605.4844                   21162602.5984
 -22982517.84448 -17899036.93047  20363704.9844                   20363702.1884
   3071005.18046   2404320.17243  24578238.3524                   24578236.7074
 -15404314.87548 -11993211.02046  21375620.5004                   21375615.5594
 11  8  1  3 11  0.0000000  0  8G29G25G10G26G12G05G04G02
 -12091019.44947  -9415272.65245  23263403.0234                   23263401.4414
 -17341143.09848 -13503763.68046  21798292.2194                   21798291.9694
  -8360215.16447  -6505433.60244  22721572.0084                   22721570.3794
  -7215177.41446  -5603482.84043  24692764.9844                   24692765.3834
 -17581189.85548 -13690919.56246  21174872.9534                   21174869.9494
 -22962001.00048 -17883049.76247  20367609.1724                   20367606.5864
   3172278.39846   2483234.31643  24597510.3444                   24597508.6454
 -15347525.44948 -11948959.51246  21386427.0944                   21386422.2194
 11  8  1  3 11 30.0000000  0  8G29G25G10G26G12G05G04G02
 -12152698.06647  -9463333.84045  23251665.7814                   23251664.1094
 -17343516.35248 -13505612.95346  21797840.3204                   21797840.4224
  -8246164.66047  -6416563.08644  22743275.3204                   22743273.3444
  -7289241.65646  -5661195.10243  24678670.3054                   24678670.8094
 -17516206.27748 -13640283.00846  21187238.7814                   21187235.8204
 -22940915.27748 -17866619.31647  20371621.7974                   20371619.1884
   3273493.94546   2562103.57043  24616771.2424                   24616768.5904
 -15290624.33248 -11904620.97746  21397255.1644                   21397250.0944
 11  8  1  3 12  0.0000000  0  8G29G25G10G26G12G05G04G02
 -12214354.95347  -9511378.08645  23239932.7814                   23239931.8794
 -17345314.10548 -13507013.78546  21797498.2114                   21797498.2194
  -8131810.61347  -6327456.04344  22765036.0634                   22765034.2304
  -7363393.09846  -5718975.28543  24664560.1954                   24664560.2304
 -17450703.28548 -13589241.71946  21199703.6024                   21199700.6214
 -22919257.50448 -17849743.10547  20375743.0474                   20375740.4064
   3374654.94546   2640930.30543  24636021.3754                   24636019.1254
 -15233608.57448 -11860193.11346  21408104.6954                   21408099.8794
 11  8  1  3 12 30.0000000  0  8G29G25G10G26G12G05G04G02
 -12275991.66447  -9559406.61345  23228203.7814                   23228202.3484
 -17346538.70348 -13507967.99646  21797265.3674                   21797265.0634
  -8017158.71947  -6238116.92644  22786853.9614                   22786851.5864
  -7437631.81246  -5776823.45743  24650433.5164                   24650432.0634
 -17384685.24248 -13537799.09846  21212266.8524                   21212263.7854
 -22897031.29348 -17832423.96147  20379972.2504                   20379969.6214
   3475758.27346   2719712.13742  24655260.5164                   24655258.1214
 -15176481.48048 -11815678.49646  21418975.7814                   21418970.8554
 11  8  1  3 13  0.0000000  0  8G29G25G10G26G12G05G04G02
 -12337608.16047  -9607419.39845  23216478.6334                   23216476.8524
 -17347191.04748 -13508476.29346  21797141.4304                   21797141.1454
  -7902213.66447  -6148549.36344  22808726.7734                   22808725.2304
  -7511956.39146  -5834738.57842  24636290.1024                   24636288.8984
 -17318156.28148 -13485958.35246  21224926.6484                   21224923.8094
 -22874238.56248 -17814663.37947  20384310.0164                   20384307.4534
   3576802.25446   2798447.68842  24674488.2734                   24674486.2114
 -15119245.35548 -11771078.90646  21429867.2344                   21429862.9804
 11  8  1  3 13 30.0000000  0  8G29G25G10G26G12G05G04G02
 -12399201.42647  -9655414.07045  23204757.2194                   23204755.7034
 -17347269.00448 -13508537.02746  21797126.1024                   21797126.1054
  -7786976.85947  -6058754.43744  22830655.9304                   22830652.9694
  -7586362.30946  -5892717.10243  24622130.4844                   24622129.6054
 -17251116.20748 -13433719.34046  21237683.9224                   21237681.0394
 -22850878.88348 -17796461.01647  20388754.9384                   20388752.4104
   3677788.24246   2877137.99642  24693705.6804                   24693703.6294
 -15061899.08248 -11726393.49246  21440780.1334                   21440775.2154
 11  8  1  3 14  0.0000000  0  8G29G25G10G26G12G05G04G02
 -12460768.29747  -9703388.20345  23193041.3834                   23193040.1604
 -17346770.30148 -13508148.41046  21797220.8284                   21797220.8634
  -7671449.17247  -5968732.86744  22852639.6094                   22852637.4654
  -7660844.64546  -5950755.12142  24607956.8284                   24607956.2934
 -17183565.23048 -13381082.21946  21250538.4454                   21250535.8634
 -22826951.07848 -17777815.95747  20393308.2504                   20393305.6684
   3778717.50846   2955784.20742  24712911.1884                   24712910.7664
 -15004441.66048 -11681621.47346  21451713.5784                   21451709.2344
 11  8  1  3 14 30.0000000  0  8G29G25G10G26G12G05G04G02
 -12522311.18446  -9751343.63745  23181330.2114                   23181328.7544
 -17345698.24248 -13507313.02346  21797425.1564                   21797425.0274
  -7555637.43447  -5878489.95344  22874678.5864                   22874675.9774
  -7735404.12546  -6008853.28942  24593768.7034                   24593767.2344
 -17115508.67248 -13328051.14546  21263489.0704                   21263486.6604
 -22802459.69148 -17758731.74247  20397968.7894                   20397966.2704
   3879586.10246   3034383.08242  24732105.5784                   24732104.8954
 -14946876.85548 -11636765.77046  21462667.8444                   21462663.0984
 11  8  1  3 15  0.0000000  0  8G29G25G10G26G12G05G04G02
 -12583830.10947  -9799280.39545  23169623.6484                   23169621.9454
 -17344054.02748 -13506031.80146  21797738.1484                   21797738.2504
  -7439546.37947  -5788029.39844  22896770.3674                   22896767.0084
  -7810039.46546  -6067010.60543  24579565.8284                   24579564.4804
 -17046950.64848 -13274629.30546  21276534.9694                   21276532.4454
 -22777407.08648 -17739210.21947  20402736.3754                   20402733.6214
   3980391.95746   3112933.15642  24751289.1954                   24751287.2194
 -14889207.32848 -11591828.46546  21473641.8674                   21473637.6054
 11  8  1  3 15 30.0000000  0  8G29G25G10G26G12G05G04G02
 -12645318.26247  -9847193.19545  23157922.9924                   23157921.2584
 -17341831.50048 -13504299.94946  21798160.8444                   21798161.0704
  -7323173.09047  -5697348.89544  22918915.2814                   22918911.7734
  -7884742.09847  -6125220.30943  24565350.8284                   24565350.3794
 -16977887.35248 -13220813.75846  21289677.4384                   21289674.8054
 -22751788.29348 -17719247.50847  20407611.5394                   20407608.5124
   4081140.64846   3191438.61342  24770461.1724                   24770458.8244
 -14831428.07447 -11546805.66446  21484637.4454                   21484632.8714
 11  8  1  3 16  0.0000000  0  8G29G25G10G26G12G05G04G02
 -12706778.68047  -9895084.38345  23146227.4614                   23146225.3054
 -17339034.72748 -13502120.62946  21798693.5234                   21798693.0274
  -7206525.30547  -5606454.51644  22941112.4924                   22941109.4024
  -7959513.37947  -6183483.52743  24551121.4304                   24551120.9104
 -16908325.41048 -13166609.64846  21302914.9844                   21302912.1604
 -22725608.58248 -17698847.72347  20412593.3204                   20412590.1954
   4181827.41846   3269895.77742  24789621.6254                   24789618.2774
 -14773543.74247 -11501700.97746  21495652.0864                   21495647.2854
 11  8  1  3 16 30.0000000  0  8G29G25G10G26G12G05G04G02
 -12768210.35247  -9942953.16445  23134537.3594                   23134535.5904
 -17335664.21948 -13499494.25046  21799334.4694                   21799334.3404
  -7089606.86747  -5515349.23844  22963360.1724                   22963358.9654
  -8034351.14547  -6241798.53944  24536880.0784                   24536879.8984
 -16838267.60548 -13112019.16046  21316246.3284                   21316243.3714
 -22698869.92248 -17678012.39147  20417681.5394                   20417679.0944
   4282451.04746   3348303.78942  24808769.8444                   24808767.5314
 -14715555.80947 -11456515.56646  21506686.8204                   21506682.0434
 11  8  1  3 17  0.0000000  0  8G29G25G10G26G12G05G04G02
 -12829611.32047  -9990798.02045  23122852.8364                   23122851.4804
 -17331718.87948 -13496419.94546  21800085.4774                   21800085.3794
  -6972419.77747  -5424034.61744  22985661.0864                   22985658.3594
  -8109251.61347  -6300162.42243  24522626.5314                   24522626.4024
 -16767715.32048 -13057043.35546  21329671.8364                   21329669.2194
 -22671572.37548 -17656741.55947  20422875.8984                   20422873.0124
   4383012.25445   3426663.13342  24827906.5394                   24827902.7194
 -14657464.05948 -11411249.25846  21517741.3444                   21517736.5554
 11  8  1  3 17 30.0000000  0  7G29G25G10G26G12G05G02
 -12890977.68047 -10038615.91445  23111175.1174                   23111174.0554
 -17327195.94948 -13492895.57446  21800945.7734                   21800945.8164
  -6854964.43747  -5332510.97744  23008011.4924                   23008009.5784
  -8184209.18447  -6358570.80543  24508363.4304                   24508362.5984
 -16696667.97748 -13001681.79346  21343191.4454                   21343188.7624
 -22643714.27348 -17635033.93747  20428177.0394                   20428174.1804
 -14599266.92248 -11365900.82446  21528815.5314                   21528811.2464
 11  8  1  3 18  0.0000000  0  7G29G25G10G26G12G05G02
 -14527727.66847 -11314005.46545  22799711.9924                   22799709.7504
 -18897512.79348 -14716519.07846  21502124.4454                   21502124.3324
  -8312658.01247  -6468376.10944  22730621.9304                   22730620.0394
  -9834641.34847  -7644621.71543  24194296.2194                   24194295.0704
 -18200542.93748 -14173532.41046  21057014.1174                   21057011.2504
 -24190713.69548 -18840488.01247  20133792.7034                   20133790.0434
 -16116380.62948 -12548067.35246  21240118.6954                   21240113.9844
 11  8  1  3 18 30.0000000  0  7G29G25G10G26G12G05G02
 -14589011.12147 -11361758.75845  22788050.5234                   22788048.6884
 -18891824.87948 -14712086.92646  21503206.8204                   21503206.6994
  -8194666.64146  -6376434.79344  22753075.3914                   22753073.3404
  -9909695.26646  -7703105.14543  24180013.9614                   24180013.1054
 -18128502.83248 -14117397.26246  21070722.5004                   21070719.5394
 -24161728.69948 -18817902.28947  20139308.5864                   20139305.5864
 -16057964.41047 -12502548.20346  21251235.0004                   21251229.8834
 11  8  1  3 19  0.0000000  0  7G29G25G10G26G12G05G02
 -14650254.62547 -11409480.89845  22776396.1254                   22776394.1564
 -18885557.51248 -14707203.26246  21504399.5394                   21504399.5314
  -8076414.80946  -6284290.51244  22775577.0634                   22775575.4414
  -9984796.09047  -7761625.15243  24165723.0164                   24165721.5824
 -18055972.69148 -14060880.27046  21084524.7504                   21084522.0634
 -24132185.27348 -18794881.41847  20144930.4304                   20144927.8164
 -15999442.92648 -12456947.04346  21262371.0474                   21262366.6454
 11  8  1  3 19 30.0000000  0  7G29G25G10G26G12G05G02
 -14711459.53547 -11457172.99245  22764748.6254                   22764746.9064
 -18878713.71948 -14701870.42246  21505702.0164                   21505701.9384
  -7957908.69947  -6191948.09444  22798129.0314                   22798126.6914
 -10059943.84846  -7820181.72343  24151422.5234                   24151421.2664
 -17982958.34448 -14003985.97746  21098419.0234                   21098416.1804
 -24102087.28148 -18771428.42647  20150657.8754                   20150655.2234
 -15940820.05148 -12411266.87546  21273526.6334                   21273521.5204
 11  8  1  3 20  0.0000000  0  7G29G25G10G26G12G05G02
 -14772616.81647 -11504827.95345  22753111.2114                   22753109.3524
 -18871285.46148 -14696082.16846  21507115.5084                   21507115.7424
  -7839143.44547  -6099403.75044  22820728.5164                   22820726.8484
 -10135128.02046  -7878766.66843  24137115.1414                   24137114.8954
 -17909454.46148 -13946710.22746  21112406.2344                   21112403.3914
 -24071428.14848 -18747538.18047  20156492.3674                   20156489.7194
 -15882088.49648 -12365502.02046  21284703.1024                   21284698.3524
 11  8  1  3 20 30.0000000  0  7G29G25G10G26G12G05G02
 -14833730.21147 -11552448.71545  22741481.4924                   22741479.7894
 -18863277.91048 -14689842.51246  21508639.2584                   21508639.5944
  -7720127.55947  -6006664.08644  22843376.7974                   22843374.5434
 -10210350.32446  -7937381.30943  24122800.6644                   24122799.6724
 -17835468.04748 -13889058.47346  21126485.4454                   21126482.4454
 -24040214.32048 -18723215.70747  20162431.8834                   20162429.0044
 -15823253.92248 -12319656.89546  21295898.8054                   21295894.6094
 11  8  1  3 21  0.0000000  0  7G29G25G10G26G12G05G02
 -14894793.62947 -11600030.54345  22729861.4844                   22729860.0164
 -18854686.66848 -14683148.03546  21510274.1644                   21510274.0314
  -7600859.71147  -5913728.10244  22866072.7974                   22866070.3284
 -10285603.67646  -7996020.16843  24108480.6484                   24108479.7074
 -17760996.78548 -13831028.92246  21140656.8524                   21140653.8914
 -24008442.41448 -18698458.36347  20168477.9304                   20168475.0864
 -15764312.52748 -12273728.52746  21307114.4304                   21307109.9494
 11  8  1  3 21 30.0000000  0  7G29G25G10G26G12G05G02
 -14955805.81647 -11647572.44545  22718251.0784                   22718249.4414
 -18845511.87948 -14675998.84046  21512019.9064                   21512020.0704
  -7481342.97347  -5820598.18444  22888815.9614                   22888814.4264
 -10360884.94946  -8054680.76643  24094155.4454                   24094153.7234
 -17686043.70748 -13772623.93046  21154920.1334                   21154917.4964
 -23976113.91848 -18673267.32047  20174629.7114                   20174627.1254
 -15705265.14548 -12227717.57446  21318351.7424                   21318347.0004
 11  8  1  3 22  0.0000000  0  7G29G25G10G26G12G05G02
 -15016767.53947 -11695075.01645  22706651.1884                   22706649.1724
 -18835755.53148 -14668396.48846  21513876.5944                   21513876.5274
  -7361582.48447  -5727278.31644  22911605.7034                   22911603.5824
 -10436193.41046  -8113362.58243  24079824.1724                   24079822.2774
 -17610612.72348 -13713846.54346  21169274.0474                   21169271.0594
 -23943231.81648 -18647644.89847  20180887.2424                   20180884.1294
 -15646114.11348 -12181625.85946  21329607.2114                   21329602.6094
 11  8  1  3 22 30.0000000  0  7G29G25G10G26G12G05G02
 -15077678.37147 -11742537.94145  22695059.1174                   22695057.7344
 -18825418.71948 -14660341.82846  21515843.9064                   21515844.0044
  -7241582.28547  -5633771.67644  22934440.9534                   22934438.1294
 -10511526.71946  -8172063.77043  24065488.3524                   24065487.4884
 -17534707.50448 -13654699.61346  21183717.9774                   21183715.2814
 -23909798.54348 -18621592.98047  20187249.4224                   20187246.2704
 -15586861.25048 -12135454.79746  21340882.7664                   21340878.2274
 11  8  1  3 23  0.0000000  0  7G29G25G10G26G12G05G02
 -15138531.41847 -11789955.83645  22683479.7584                   22683477.6994
 -18814496.34048 -14651830.87946  21517922.1484                   21517922.1884
  -7121340.06346  -5540076.44544  22957322.2194                   22957320.1414
 -10586876.92246  -8230778.10243  24051149.7584                   24051148.7304
 -17458325.13348 -13595180.87946  21198253.2274                   21198250.3134
 -23875810.10548 -18595108.47747  20193717.0084                   20193714.1454
 -15527501.76248 -12089200.64546  21352178.6174                   21352173.8714
 11  8  1  3 23 30.0000000  0  7G29G25G10G26G12G05G02
 -15199340.51247 -11837339.47745  22671908.0554                   22671906.2854
 -18803003.68048 -14642875.55146  21520108.7974                   21520109.1414
  -7000874.16047  -5446206.92644  22980246.5554                   22980244.4344
 -10662256.09047  -8289515.00843  24036805.6094                   24036803.8364
 -17381483.44148 -13535304.24246  21212875.7974                   21212872.8954
 -23841283.18748 -18568204.37147  20200287.2034                   20200284.1564
 -15468051.49248 -12042875.75046  21363491.6094                   21363487.1414
 11  8  1  3 24  0.0000000  0  7G29G25G10G26G12G05G02
 -15260093.86347 -11884679.68745  22660346.8754                   22660345.4264
 -18790930.34048 -14633467.74646  21522406.2344                   21522406.3914
  -6880177.25047  -5352157.39144  23003213.6174                   23003211.3634
 -10737650.39147  -8348263.74643  24022457.9924                   24022456.0594
 -17304174.16048 -13475063.24246  21227587.1484                   21227584.7894
 -23806208.42648 -18540873.37547  20206961.7424                   20206958.7584
 -15408500.38348 -11996472.29346  21374823.4144                   21374819.5434
 11  8  1  3 24 30.0000000  0  7G29G25G10G26G12G05G02
 -15320788.82847 -11931974.39145  22648796.7974                   22648795.4104
 -18778275.71148 -14623606.98846  21524814.6954                   21524814.6994
  -6759251.49647  -5257929.52044  23026226.1414                   23026222.8324
 -10813056.14147  -8407021.35943  24008108.5864                   24008106.7734
 -17226398.72748 -13414459.01646  21242387.5084                   21242384.9064
 -23770586.48048 -18513115.99647  20213740.5944                   20213737.3594
 -15348848.36348 -11949990.19146  21386175.4224                   21386170.7424
 11  8  1  3 25  0.0000000  0  7G29G25G10G26G12G05G02
 -15381427.40647 -11979225.15645  22637257.8834                   22637256.4654
 -18765043.39148 -14613296.08246  21527332.5004                   21527332.6374
  -6638103.37547  -5163528.37944  23049279.5164                   23049276.9344
 -10888473.71946  -8465788.23443  23993756.8284                   23993756.1644
 -17148163.35248 -13353496.38746  21257275.2734                   21257272.2814
 -23734421.83648 -18484935.74247  20220622.5004                   20220619.4884
 -15289099.44548 -11903432.60246  21397545.3834                   21397540.4384
 11  8  1  3 25 30.0000000  0  7G29G25G10G26G12G05G02
 -15442007.83247 -12026430.61745  22625729.6334                   22625728.0904
 -18751233.13748 -14602534.84446  21529960.7664                   21529960.6804
  -6516735.36747  -5068955.90644  23072375.2974                   23072372.6134
 -10963899.71146  -8524561.66443  23979404.3444                   23979402.0664
 -17069470.13748 -13292177.00846  21272249.9694                   21272247.6954
 -23697715.75448 -18456333.59847  20227607.2584                   20227604.5084
 -15229253.30948 -11856799.23846  21408933.4534                   21408928.8484
 11  8  1  3 26  0.0000000  0  7G29G25G10G26G12G05G02
 -15502524.38747 -12073586.30145  22614213.3914                   22614211.9844
 -18736841.00048 -14591320.18446  21532699.3444                   21532698.9614
  -6395146.21547  -4974211.10944  23095512.5084                   23095509.6724
 -11039326.50046  -8583335.67643  23965051.1024                   23965049.3634
 -16990317.10248 -13230499.32446  21287312.2504                   21287309.8834
 -23660465.38748 -18427307.32047  20234695.8674                   20234692.9884
 -15169306.45348 -11810087.40246  21420341.0004                   21420336.3164
 11  8  1  3 26 30.0000000  0  7G29G25G10G26G12G05G02
 -15562978.71547 -12120693.51645  22602709.4534                   22602707.7774
 -18721870.68748 -14579654.99246  21535547.9304                   21535547.9104
  -6273342.51647  -4879299.13344  23118690.8284                   23118689.0394
 -11114754.39846  -8642110.57043  23950697.4064                   23950696.2734
 -16910710.01648 -13168467.84046  21302461.0234                   21302458.2154
 -23622675.48048 -18397860.62947  20241886.7114                   20241884.1134
 -15109262.90248 -11763300.21546  21431766.7034                   21431762.5864
 11  8  1  3 27  0.0000000  0  7G29G25G10G26G12G05G02
 -15623366.96147 -12167749.23445  22591218.7584                   22591216.3554
 -18706320.02748 -14567537.59846  21538507.5634                   21538507.2734
  -6151324.68447  -4784220.30944  23141909.7194                   23141907.8444
 -11190178.25446  -8700882.30143  23936344.4454                   23936343.7854
 -16830649.30948 -13106082.87946  21317696.0164                   21317693.2704
 -23584345.02748 -18367992.73047  20249181.0474                   20249177.8014
 -15049120.75448 -11716436.18746  21443211.2114                   21443206.7504
 11  8  1  3 27 30.0000000  0  7G29G25G10G26G12G05G02
 -15683686.37147 -12214751.29745  22579739.2814                   22579737.7624
 -18690188.20348 -14554967.34046  21541577.4144                   21541577.3284
  -6029094.70347  -4688976.20744  23165169.7664                   23165168.4454
 -11265593.35546  -8759647.21543  23921993.8754                   23921992.6844
 -16750136.22747 -13043345.41446  21333017.2584                   21333014.2304
 -23545474.43748 -18337703.94547  20256577.8284                   20256574.3984
 -14988879.17648 -11669494.69546  21454675.0234                   21454670.4414
 11  8  1  3 28  0.0000000  0  7G29G25G10G26G12G05G02
 -15743941.94147 -12261703.63745  22568273.2034                   22568271.1564
 -18673481.94948 -14541949.46946  21544756.1564                   21544756.3324
  -5906662.04747  -4593574.14544  23188468.0554                   23188466.1024
 -11341003.11746  -8818407.97743  23907643.0474                   23907641.7584
 -16669179.71548 -12980262.43446  21348422.8594                   21348420.2074
 -23506071.45348 -18307000.30947  20264075.9304                   20264073.1604
 -14928545.22348 -11622481.22746  21466156.1254                   21466151.5784
 11  8  1  3 28 30.0000000  0  7G29G25G10G26G12G05G02
 -15804127.35547 -12308601.31645  22556820.0554                   22556817.9224
 -18656196.98848 -14528480.66446  21548045.1724                   21548045.5274
  -5784024.78547  -4498012.66044  23211805.1254                   23211803.1724
 -11416399.76646  -8877158.48443  23893295.6024                   23893294.4574
 -16587777.80548 -12916832.37946  21363913.3524                   21363910.3444
 -23466133.01648 -18275879.43747  20271675.8524                   20271672.6884
 -14868114.54348 -11575392.37946  21477655.8674                   21477651.0204
 11  8  1  3 29  0.0000000  0  7G29G25G10G26G12G05G02
 -15864238.59047 -12355441.19145  22545381.6174                   22545379.0634
 -18638331.39548 -14514559.41846  21551445.1804                   21551444.7854
  -5661183.65247  -4402292.30944  23235181.0554                   23235179.0044
 -11491777.60246  -8935894.37544  23878951.4614                   23878950.6454
 -16505930.62148 -12853055.36346  21379487.6884                   21379485.4884
 -23425658.28148 -18244340.67247  20279377.6334                   20279374.9654
 -14807585.44948 -11528226.85246  21489174.3984                   21489169.1644
 11  8  1  3 29 30.0000000  0  7G29G25G10G26G12G05G02
 -15924279.08647 -12402225.94545  22533956.3594                   22533954.0124
 -18619890.13348 -14500189.59446  21554954.4924                   21554954.3874
  -5538146.35547  -4306419.12544  23258594.1954                   23258592.3984
 -11567138.28547  -8994616.90643  23864610.7974                   23864610.0984
 -16423645.45748 -12788937.05546  21395146.3524                   21395143.8204
 -23384653.26648 -18212388.71147  20287180.8834                   20287177.9264
 -14746962.85548 -11480988.46946  21500709.9844                   21500705.7074
 11  8  1  3 30  0.0000000  0  7G29G25G10G26G12G05G02
 -15984253.75447 -12448959.40645  22522543.2814                   22522541.4964
 -18600880.68748 -14485377.03146  21558571.5944                   21558571.6564
  -5414922.87947  -4210400.82444  23282042.7194                   23282040.3674
 -11642485.47747  -9053328.89144  23850272.8364                   23850271.6844
 -16340931.83248 -12724484.89146  21410886.2974                   21410883.3674
 -23343126.71148 -18180030.34447  20295082.8204                   20295080.2034
 -14686254.36748 -11433683.14846  21512262.3984                   21512257.9414
 11  8  1  3 30 30.0000000  0  7G29G25G10G26G12G05G02
 -16044148.27047 -12495630.41045  22511145.6804                   22511143.9494
 -18581290.69548 -14470112.09446  21562299.6644                   21562299.2584
  -5291503.30146  -4114229.72744  23305528.3984                   23305526.1334
 -11717803.25846  -9112018.00044  23835940.2034                   23835939.3754
 -16257779.69148 -12659691.02346  21426709.4924                   21426706.8754
 -23301067.55148 -18147256.95747  20303086.8134                   20303084.0354
 -14625447.58248 -11386301.23446  21523833.5234                   21523829.0354
 11  8  1  3 31  0.0000000  0  7G29G25G10G26G12G05G02
 -16103963.48447 -12542239.63345  22499763.1954                   22499761.1054
 -18561123.14848 -14454397.11346  21566137.2814                   21566137.1024
  -5167893.21146  -4017910.19943  23329050.7114                   23329048.9534
 -11793090.87146  -9170683.62943  23821613.8054                   23821612.4534
 -16174194.10248 -12594559.41046  21442615.3134                   21442612.8014
 -23258479.56648 -18114071.50447  20311191.0234                   20311188.2384
 -14564545.41848 -11338845.00446  21535423.1884                   21535418.8714
 11  8  1  3 31 30.0000000  0  7G29G25G10G26G12G05G02
 -16163697.04747 -12588785.20345  22488396.0554                   22488394.3444
 -18540377.61348 -14438231.74646  21570085.1174                   21570084.5944
  -5044094.55146  -3921443.70343  23352608.3984                   23352606.9104
 -11868344.18747  -9229322.49243  23807293.5234                   23807291.7544
 -16090176.47348 -12529091.13746  21458603.5234                   21458600.8324
 -23215363.42248 -18080474.50047  20319395.8054                   20319392.7304
 -14503547.27348 -11291313.98846  21547030.3444                   21547026.0204
 11  8  1  3 32  0.0000000  0  7G29G25G10G26G12G05G02
 -16223343.69147 -12635263.08645  22477045.8134                   22477043.7074
 -18519051.23048 -14421613.77746  21574143.2034                   21574143.2074
  -4920106.91046  -3824829.97343  23376203.0864                   23376200.9454
 -11943556.43446  -9287929.37543  23792980.7274                   23792979.0824
 -16005726.30148 -12463285.82046  21474673.9144                   21474671.1844
 -23171717.27048 -18046464.50847  20327701.0084                   20327698.3954
 -14442450.10948 -11243705.80546  21558657.0004                   21558652.3054
